[[{"header":{"parameterUnit":"m.s-1","parameterCategory":1,"la1":31.0,"la2":29.5877,"lo1":-88.7671,"lo2":-86.6584,"dy":0.0162,"dx":0.0185,"nx":115,"ny":88,"refTime":"2024-07-30T12:00:00:Z","depth":0,"parameterNumber":2,"parameterNumberName":"U-component_of_WINDS"},"data":[0.0,0.0,0.0,0.0,0.0,0.0,0.0,0.0,0.0,0.0,0.0,0.0,0.0,0.0,0.0,0.0,0.0,0.0,0.0,0.0,0.0,0.0,0.0,0.0,0.0,0.0,0.0,0.0,0.0,0.0,0.0,0.0,0.0,0.0,0.0,0.0,0.0,0.0,0.0,0.0,0.0,0.0,0.0,0.0,0.0,0.0,0.0,0.0,0.0,0.0,0.0,0.0,0.0,0.0,0.0,0.0,0.0,0.0,0.0,0.0,0.0,0.0,0.0,0.0,0.0,0.0,0.0,0.0,0.0,0.0,0.0,0.0,0.0,0.0,0.0,0.0,0.0,0.0,0.0,0.0,0.0,0.0,0.0,0.0,0.0,0.0,0.0,0.0,0.0,0.0,0.0,0.0,0.0,0.0,0.0,0.0,0.0,0.0,0.0,0.0,0.0,0.0,0.0,0.0,0.0,0.0,0.0,0.0,0.0,0.0,0.0,0.0,0.0,0.0,0.0,0.0,0.0,0.0,0.0,0.0,0.0,0.0,0.0,0.0,0.0,0.0,0.0,0.0,0.0,0.0,0.0,0.0,0.0,0.0,0.0,0.0,0.0,0.0,0.0,0.0,0.0,0.0,0.0,0.0,0.0,0.0,0.0,0.0,0.0,0.0,0.0,0.0,0.0,0.0,0.0,0.0,0.0,0.0,0.0,0.0,0.0,0.0,0.0,0.0,0.0,0.0,0.0,0.0,0.0,0.0,0.0,0.0,0.0,0.0,0.0,0.0,0.0,0.0,0.0,0.0,0.0,0.0,0.0,0.0,0.0,0.0,0.0,0.0,0.0,0.0,0.0,0.0,0.0,0.0,0.0,0.0,0.0,0.0,0.0,0.0,0.0,0.0,0.0,0.0,0.0,0.0,0.0,0.0,0.0,0.0,0.0,0.0,0.0,0.0,0.0,0.0,0.0,0.0,0.0,0.0,0.0,0.0,0.0,0.0,0.0,0.0,0.0,0.0,0.0,0.0,0.0,0.0,0.0,0.0,0.0,0.0,0.0,0.0,0.0,0.0,0.0,0.0,0.0,0.0,0.0,0.0,0.0,0.0,0.0,0.0,0.0,0.0,0.0,0.0,0.0,0.0,0.0,0.0,0.0,0.0,0.0,0.0,0.0,0.0,0.0,0.0,0.0,0.0,0.0,0.0,0.0,0.0,0.0,0.0,0.0,0.0,0.0,0.0,0.0,0.0,0.0,0.0,0.0,0.0,0.0,0.0,0.0,0.0,0.0,0.0,0.0,0.0,0.0,0.0,0.0,0.0,0.0,0.0,0.0,0.0,0.0,0.0,0.0,0.0,0.0,0.0,0.0,0.0,0.0,0.0,0.0,0.0,0.0,0.0,0.0,0.0,0.0,0.0,0.0,0.0,0.0,0.0,0.0,0.0,0.0,0.0,0.0,0.0,0.0,0.0,0.0,0.0,0.0,0.0,0.0,0.0,0.0,0.0,0.0,0.0,0.0,0.0,0.0,0.0,0.0,0.0,0.0,0.0,0.0,0.0,0.0,0.0,0.0,0.0,0.0,0.0,0.0,0.0,0.0,0.0,0.0,0.0,0.0,0.0,0.0,0.0,0.0,0.0,0.0,0.0,0.0,0.0,0.0,0.0,0.0,0.0,0.0,0.0,0.0,0.0,0.0,0.0,0.0,0.0,0.0,0.0,0.0,0.0,0.0,0.0,0.0,0.0,0.0,0.0,0.0,0.0,0.0,0.0,0.0,0.0,0.0,0.0,0.0,0.0,0.0,0.0,0.0,0.0,0.0,0.0,0.0,0.0,0.0,0.0,0.0,0.0,0.0,0.0,0.0,0.0,0.0,0.0,0.0,0.0,0.0,0.0,0.0,0.0,0.0,0.0,0.0,0.0,0.0,0.0,0.0,0.0,0.0,0.0,0.0,0.0,0.0,0.0,0.0,0.0,0.0,0.0,0.0,0.0,0.0,0.0,0.0,0.0,0.0,0.0,0.0,0.0,0.0,0.0,0.0,0.0,0.0,0.0,0.0,0.0,0.0,0.0,0.0,0.0,0.0,0.0,0.0,0.0,0.0,0.0,0.0,0.0,0.0,0.0,0.0,0.0,0.0,0.0,0.0,0.0,0.0,0.0,0.0,0.0,0.0,0.0,0.0,0.0,0.0,0.0,0.0,0.0,0.0,0.0,0.0,0.0,0.0,0.0,0.0,0.0,0.0,0.0,0.0,0.0,0.0,0.0,0.0,0.0,0.0,0.0,0.0,0.0,0.0,0.0,0.0,0.0,0.0,0.0,0.0,0.0,0.0,0.0,0.0,0.0,0.0,0.0,0.0,0.0,0.0,0.0,0.0,0.0,0.0,0.0,0.0,0.0,0.0,0.0,0.0,0.0,0.0,0.0,0.0,0.0,0.0,0.0,0.0,0.0,0.0,0.0,0.0,0.0,0.0,0.0,0.0,0.0,0.0,0.0,0.0,0.0,0.0,0.0,0.0,0.0,0.0,0.0,0.0,0.0,0.0,0.0,0.0,0.0,0.0,0.0,0.0,0.0,0.0,0.0,0.0,0.0,0.0,0.0,0.0,0.0,0.0,0.0,0.0,0.0,0.0,0.0,0.0,0.0,0.0,0.0,0.0,0.0,0.0,0.0,0.0,0.0,0.0,0.0,0.0,0.0,0.0,0.0,0.0,0.0,0.0,0.0,0.0,0.0,0.0,0.0,0.0,0.0,0.0,0.0,0.0,0.0,0.0,0.0,0.0,0.0,0.0,0.0,0.0,0.0,0.0,0.0,0.0,0.0,0.0,0.0,0.0,0.0,0.0,0.0,0.0,0.0,0.0,0.0,0.0,0.0,0.0,0.0,0.0,0.0,0.0,0.0,0.0,0.0,0.0,0.0,0.0,0.0,0.0,0.0,0.0,0.0,0.0,0.0,0.0,0.0,0.0,0.0,0.0,0.0,0.0,0.0,0.0,0.0,0.0,0.0,0.0,0.0,0.0,0.0,0.0,0.0,0.0,0.0,0.0,0.0,0.0,0.0,0.0,0.0,0.0,0.0,0.0,0.0,0.0,0.0,0.0,0.0,0.0,0.0,0.0,0.0,0.0,0.0,0.0,0.0,0.0,0.0,0.0,0.0,0.0,0.0,0.0,0.0,0.0,0.0,0.0,0.0,0.0,0.0,0.0,0.0,0.0,0.0,0.0,0.0,0.0,0.0,0.0,0.0,0.0,0.0,0.0,0.0,0.0,0.0,0.0,0.0,0.0,0.0,0.0,0.0,0.0,0.0,0.0,0.0,0.0,0.0,0.0,0.0,0.0,0.0,0.0,0.0,0.0,0.0,0.0,0.0,0.0,0.0,0.0,0.0,0.0,0.0,0.0,0.0,0.0,0.0,0.0,0.0,0.0,0.0,0.0,0.0,0.0,0.0,0.0,0.0,0.0,0.0,0.0,0.0,0.0,0.0,0.0,0.0,0.0,0.0,0.0,0.0,0.0,0.0,0.0,0.0,0.0,0.0,0.0,0.0,0.0,0.0,0.0,0.0,0.0,0.0,0.0,0.0,0.0,0.0,0.0,0.0,0.0,0.0,0.0,0.0,0.0,0.0,0.0,0.0,0.0,0.0,0.0,0.0,0.0,0.0,0.0,0.0,0.0,0.0,0.0,0.0,0.0,0.0,0.0,0.0,0.0,0.0,0.0,0.0,0.0,0.0,0.0,0.0,0.0,0.0,0.0,0.0,0.0,0.0,0.0,0.0,0.0,0.0,0.0,0.0,0.0,0.0,0.0,0.0,0.0,0.0,0.0,0.0,0.0,0.0,0.0,0.0,0.0,0.0,0.0,0.0,0.0,0.0,0.0,0.0,0.0,0.0,0.0,0.0,0.0,0.0,0.0,0.0,0.0,0.0,0.0,0.0,0.0,0.0,0.0,0.0,0.0,0.0,0.0,0.0,0.0,0.0,0.0,0.0,0.0,0.0,0.0,0.0,0.0,0.0,0.0,0.0,0.0,0.0,0.0,0.0,0.0,0.0,0.0,0.0,0.0,0.0,0.0,0.0,0.0,0.0,0.0,0.0,0.0,0.0,0.0,0.0,0.0,0.0,0.0,0.0,0.0,0.0,0.0,0.0,0.0,0.0,0.0,0.0,0.0,0.0,0.0,0.0,0.0,0.0,0.0,0.0,0.0,0.0,0.0,0.0,0.0,0.0,0.0,0.0,0.0,0.0,0.0,0.0,0.0,0.0,0.0,0.0,0.0,0.0,-0.3208,0.0,0.0,0.0,0.0,0.0,0.0,0.0,0.0,0.0,0.0,0.0,0.0,0.0,0.0,0.0,0.0,0.0,0.0,0.0,0.0,0.0,0.0,0.0,0.0,0.0,0.0,0.0,0.0,0.0,0.0,0.0,0.0,0.0,0.0,0.0,0.0,0.0,0.0,0.0,0.0,0.0,0.0,0.0,0.0,0.0,0.0,0.0,0.0,0.0,0.0,0.0,0.0,0.0,0.0,0.0,0.0,0.0,0.0,0.0,0.0,0.0,0.0,0.0,0.0,0.0,0.0,0.0,0.0,0.0,0.0,0.0,0.0,0.0,0.0,0.0,0.0,0.0,0.0,0.0,0.0,0.0,0.0,0.0,0.0,0.0,0.0,0.0,0.0,0.0,0.0,0.0,0.0,0.0,0.0,0.0,0.0,0.0,0.0,0.0,0.0,0.0,0.0,0.0,0.0,0.0,0.0,0.0,0.0,0.0,0.0,-0.1809,-0.1803,-0.2372,-0.2821,-0.3102,0.0,0.0,0.0,0.0,0.0,0.0,0.0,0.0,0.0,0.0,0.0,0.0,0.0,0.0,0.0,0.0,0.0,0.0,0.0,0.0,0.0,0.0,0.0,0.0,0.0,0.0,0.0,0.0,0.0,0.0,0.0,0.0,0.0,0.0,0.0,0.0,0.0,0.0,0.0,0.0,0.0,0.0,0.0,0.0,0.0,0.0,0.0,0.0,0.0,0.0,0.0,0.0,0.0,0.0,0.0,0.0,0.0,0.0,0.0,0.0,0.0,0.0,0.0,0.0,0.0,0.0,0.0,0.0,0.0,0.0,0.0,0.0,0.0,0.0,0.0,0.0,0.0,0.0,0.0,0.0,0.0,0.0,0.0,0.0,0.0,0.0,0.0,0.0,0.0,0.0,0.0,0.0,0.0,0.0,0.0,0.0,0.0,0.0,0.0,0.0,0.0,0.0,0.0,0.0,0.0,0.0,0.0,0.0,0.0,0.0,0.0,0.0,-0.2399,-0.2869,-0.3205,0.0,0.0,0.0,0.0,0.0,0.0,0.0,0.0,0.0,0.0,0.0,0.0,0.0,0.0,0.0,0.0,0.0,0.0,0.0,0.0,0.0,0.0,0.0,0.0,0.0,0.0,0.0,0.0,0.0,0.0,0.0,0.0,0.0,0.0,0.0,0.0,0.0,0.0,0.0,0.0,0.0,0.0,0.0,0.0,0.0,0.0,0.0,0.0,0.0,0.0,0.0,0.0,0.0,0.0,0.0,0.0,0.0,0.0,0.0,0.0,0.0,0.0,0.0,0.0,0.0,0.0,0.0,0.0,0.0,0.0,0.0,0.0,0.0,0.0,0.0,0.0,0.0,0.0,0.0,0.0,0.0,0.0,0.0,0.0,0.0,0.0,0.0,0.0,0.0,0.0,0.0,0.0,0.0,0.0,0.0,0.0,0.0,0.0,0.0,0.0,0.0,0.0,0.0,0.0,0.0,0.0,0.0,0.0,0.0,0.0,-0.1793,-0.1797,-0.2381,0.0,-0.3436,0.0,0.0,0.0,0.0,0.0,0.0,0.0,0.0,0.0,0.0,0.0,0.0,0.0,0.0,0.0,0.0,0.0,0.0,0.0,0.0,0.0,0.0,0.0,0.0,0.0,0.0,0.0,0.0,0.0,0.0,0.0,0.0,0.0,0.0,0.0,0.0,0.0,0.0,0.0,0.0,0.0,0.0,0.0,0.0,0.0,0.0,0.0,0.0,0.0,0.0,0.0,0.0,0.0,0.0,0.0,0.0,0.0,0.0,0.0,0.0,0.0,0.0,0.0,0.0,0.0,0.0,0.0,0.0,0.0,0.0,0.0,0.0,0.0,0.0,0.0,0.0,0.0,0.0,0.0,0.0,0.0,0.0,0.0,0.0,0.0,0.0,0.0,0.0,0.0,0.0,0.0,0.0,0.0,0.0,0.0,0.0,0.0,0.0,0.0,0.0,0.0,0.0,0.0,0.0,0.0,0.0,0.0,0.0,0.0,0.0,-0.1798,-0.1796,-0.2195,-0.2589,0.0,0.0,0.0,0.0,0.0,0.0,0.0,0.0,0.0,0.0,0.0,0.0,0.0,0.0,0.0,0.0,0.0,0.0,0.0,0.0,0.0,0.0,0.0,0.0,0.0,0.0,0.0,0.0,0.0,0.0,0.0,0.0,0.0,0.0,0.0,0.0,0.0,0.0,0.0,0.0,0.0,0.0,0.0,0.0,0.0,0.0,0.0,0.0,0.0,0.0,0.0,0.0,0.0,0.0,0.0,0.0,0.0,0.0,0.0,0.0,0.0,0.0,0.0,0.0,0.0,0.0,0.0,0.0,0.0,0.0,0.0,0.0,0.0,0.0,0.0,0.0,0.0,0.0,0.0,0.0,0.0,0.0,0.0,0.0,0.0,0.0,0.0,0.0,0.0,0.0,0.0,0.0,0.0,0.0,0.0,0.0,0.0,0.0,0.0,0.0,0.0,0.0,0.0,0.0,0.0,0.0,0.0,0.0,0.0,0.0,-0.0872,-0.1449,-0.1786,-0.2005,-0.2259,-0.2605,0.0,0.0,0.0,0.0,0.0,0.0,0.0,0.0,0.0,0.0,0.0,0.0,0.0,0.0,0.0,0.0,0.0,0.0,0.0,0.0,0.0,0.0,0.0,0.0,0.0,0.0,0.0,0.0,0.0,0.0,0.0,0.0,0.0,0.0,0.0,0.0,0.0,0.0,0.0,0.0,0.0,0.0,0.0,0.0,0.0,0.0,0.0,0.0,0.0,0.0,0.0,0.0,0.0,0.0,0.0,0.0,0.0,0.0,0.0,0.0,0.0,0.0,0.0,0.0,0.0,0.0,0.0,0.0,0.0,0.0,0.0,0.0,0.0,0.0,0.0,0.0,0.0,0.0,0.0,0.0,0.0,0.0,0.0,0.0,0.0,0.0,0.0,0.0,0.0,0.0,0.0,0.0,0.0,0.0,0.0,0.0,0.0,0.0,0.0,0.0,0.0,0.0,0.0,0.0,0.0,0.0,0.0,0.0,-0.0,-0.0,-0.0623,-0.1729,-0.1806,-0.1984,0.0,0.0,0.0,0.0,0.0,0.0,0.0,0.0,0.0,0.0,0.0,0.0,0.0,0.0,0.0,0.0,0.0,0.0,0.0,0.0,0.0,0.0,0.0,0.0,0.0,0.0,0.0,0.0,0.0,0.0,0.0,0.0,0.0,0.0,0.0,0.0,0.0,0.0,0.0,0.0,0.0,0.0,0.0,0.0,0.0,0.0,0.0,0.0,0.0,0.0,0.0,0.0,0.0,0.0,0.0,0.0,0.0,0.0,0.0,0.0,0.0,0.0,0.0,0.0,0.0,0.0,0.0,0.0,0.0,0.0,0.0,0.0,0.0,0.0,0.0,0.0,0.0,0.0,0.0,0.0,0.0,0.0,0.0,0.0,0.0,0.0,0.0,0.0,0.0,0.0,0.0,0.0,0.0,0.0,0.0,0.0,0.0,0.0,0.0,0.0,0.0,0.0,0.0,0.0,0.0,0.0,0.0,0.0,0.0,-0.0,-0.0,-0.0214,-0.0646,-0.1397,-0.1805,0.0,0.0,0.0,0.0,0.0,0.0,0.0,0.0,0.0,0.0,0.0,0.0,0.0,0.0,0.0,0.0,0.0,0.0,0.0,0.0,0.0,0.0,0.0,0.0,0.0,0.0,0.0,0.0,0.0,0.0,0.0,0.0,0.0,0.0,0.0,0.0,0.0,0.0,0.0,0.0,0.0,0.0,0.0,0.0,0.0,0.0,0.0,0.0,0.0,0.0,0.0,0.0,0.0,0.0,0.0,0.0,0.0,0.0,0.0,0.0,0.0,0.0,0.0,0.0,0.0,0.0,0.0,0.0,0.0,0.0,0.0,0.0,0.0,0.0,0.0,0.0,0.0,0.0,0.0,0.0,0.0,0.0,0.0,0.0,0.0,0.0,0.0,0.0,0.0,0.0,0.0,0.0,0.0,0.0,0.0,0.0,0.0,0.0,0.0,0.0,0.0,0.0,0.0,0.0,0.0,0.0,0.0,0.0,0.0,0.0583,0.0,0.0195,0.0,-0.0768,-0.133,0.0,0.0,0.0,0.0,0.0,0.0,0.0,0.0,0.0,0.0,0.0,0.0,0.0,0.0,0.0,0.0,0.0,0.0,0.0,0.0,0.0,0.0,0.0,0.0,0.0,0.0,0.0,0.0,0.0,0.0,0.0,0.0,0.0,0.0,0.0,0.0,0.0,0.0,0.0,0.0,0.0,0.0,0.0,0.0,0.0,0.0,0.0,0.0,0.0,0.0,0.0,0.0,0.0,0.0,0.0,0.0,0.0,0.0,0.0,0.0,0.0,0.0,0.0,0.0,0.0,0.0,0.0,0.0,0.0,0.0,0.0,0.0,0.0,0.0,0.0,0.0,0.0,0.0,0.0,0.0,0.0,0.0,0.0,0.0,0.0,0.0,0.0,0.0,0.0,0.0,0.0,0.0,0.0,0.0,0.0,0.0,0.0,0.0,0.0,0.0,0.0,0.0,0.0,0.0,0.0,0.0,0.0,0.0,0.2352,0.179,0.121,0.0644,0.005,-0.0,-0.0556,0.0,0.0,0.0,0.0,0.0,0.0,0.0,0.0,0.0,0.0,0.0,0.0,0.0,0.0,0.0,0.0,0.0,0.0,0.0,0.0,0.0,0.0,0.0,0.0,0.0,0.0,0.0,0.0,0.0,0.0,0.0,0.0,0.0,0.0,0.0,0.0,0.0,0.0,0.0,0.0,0.0,0.0,0.0,0.0,0.0,0.0,0.0,0.0,0.0,0.0,0.0,0.0,0.0,0.0,0.0,0.0,0.0,0.0,0.0,0.0,0.0,0.0,0.0,0.0,0.0,0.0,0.0,0.0,0.0,0.0,0.0,0.0,0.0,0.0,0.0,0.0,0.0,0.0,0.0,0.0,0.0,0.0,0.0,0.0,0.0,0.0,0.0,0.0,0.0,0.0,0.0,0.0,0.0,0.0,0.0,0.0,0.0,0.0,0.0,0.0,0.0,0.0,0.0,0.0,0.0,0.0,0.0,0.0,0.0,0.2424,0.1835,0.1531,0.1507,0.079,0.0308,0.0,0.0,0.0,0.0,0.0,0.0,0.0,0.0,0.0,0.0,0.0,0.0,0.0,0.0,0.0,0.0,0.0,0.0,0.0,0.0,0.0,0.0,0.0,0.0,0.0,0.0,0.0,0.0,0.0,0.0,0.0,0.0,0.0,0.0,0.0,0.0,0.0,0.0,0.0,0.0,0.0,0.0,0.0,0.0,0.0,0.0,0.0,0.0,0.0,0.0,0.0,0.0,0.0,0.0,0.0,0.0,0.0,0.0,0.0,0.0,0.0,0.0,0.0,0.0,0.0,0.0,0.0,0.0,0.0,0.0,0.0,0.0,0.0,0.0,0.0,0.0,0.0,0.0,0.0,0.0,0.0,0.0,0.0,0.0,0.0,0.0,0.0,0.0,0.0,0.0,0.0,0.0,0.0,0.0,0.0,0.0,0.0,0.0,0.0,0.0,0.0,0.0,0.0,0.0,0.0,0.0,0.0,0.0,0.0,0.2608,0.2269,0.2089,0.2152,0.1645,0.133,0.1216,0.0,0.0,0.0,0.0,0.0,0.0,0.0,0.0,0.0,0.0,0.0,0.0,0.0,0.0,0.0,0.0,0.0,0.0,0.0,0.0,0.0,0.0,0.0,0.0,0.0,0.0,0.0,0.0,0.0,0.0,0.0,0.0,0.0,0.0,0.0,0.0,0.0,0.0,0.0,0.0,0.0,0.0,0.0,0.0,0.0,0.0,0.0,0.0,0.0,0.0,0.0,0.0,0.0,0.0,0.0,0.0,0.0,0.0,0.0,0.0,0.0,0.0,0.0,0.0,0.0,0.0,0.0,0.0,0.0,0.0,0.0,0.0,0.0,0.0,0.0,0.0,0.0,0.0,0.0,0.0,0.0,0.0,0.0,0.0,0.0,0.0,0.0,0.0,0.0,0.0,0.0,0.0,0.0,0.0,0.0,0.0,0.0,0.0,0.0,0.0,0.0,0.0,0.0,0.0,0.0,0.0,0.0,0.0,0.254,0.2568,0.2481,0.2226,0.2508,0.2428,0.0,0.0,0.0,0.0,0.0,0.0,0.0,0.0,0.0,0.0,0.0,0.0,0.0,0.0,0.0,0.0,0.0,0.0,0.0,0.0,0.0,0.0,0.0,0.0,0.0,0.0,0.0,0.0,0.0,0.0,0.0,0.0,0.0,0.0,0.0,0.0,0.0,0.0,0.0,0.0,0.0,0.0,0.0,0.0,0.0,0.0,0.0,0.0,0.0,0.0,0.0,0.0,0.0,0.0,0.0,0.0,0.0,0.0,0.0,0.0,0.0,0.0,0.0,0.0,0.0,0.0,0.0,0.0,0.0,0.0,0.0,0.0,0.0,0.0,0.0,0.0,0.0,0.0,0.0,0.0,0.0,0.0,0.0,0.0,0.0,0.0,0.0,0.0,0.0,0.0,0.0,0.0,0.0,0.0,0.0,0.0,0.0,0.0,0.0,0.0,0.0,0.0,0.0,0.0,0.0,0.0,0.0,0.0,0.0,0.3091,0.342,0.3479,0.3227,0.2888,0.2621,0.0,0.0,0.0,0.0,0.0,0.0,0.0,0.0,0.0,0.0,0.0,0.0,0.0,0.0,0.0,0.0,0.0,0.0,0.0,0.0,0.0,0.0,0.0,0.0,0.0,0.0,0.0,0.0,0.0,0.0,0.0,0.0,0.0,0.0,0.0,0.0,0.0,0.0,0.0,0.0,0.0,0.0,0.0,0.0,0.0,0.0,0.0,0.0,0.0,0.0,0.0,0.0,0.0,0.0,0.0,0.0,0.0,0.0,0.0,0.0,0.0,0.0,0.0,0.0,0.0,0.0,0.0,0.0,0.0,0.0,0.0,0.0,0.0,0.0,0.0,0.0,0.0,0.0,0.0,0.0,0.0,0.0,0.0,0.0,0.0,0.0,0.0,0.0,0.0,0.0,0.0,0.0,0.0,0.0,0.0,0.0,0.0,0.0,0.0,0.0,0.0,0.0,0.0,0.0,0.0,0.0,0.0,0.0,0.3067,0.3511,0.4118,0.449,0.4488,0.4001,0.3466,0.0,0.0,0.0,0.0,0.0,0.0,0.0,0.0,0.0,0.0,0.0,0.0,0.0,0.0,0.0,0.0,0.0,0.0,0.0,0.0,0.0,0.0,0.0,0.0,0.0,0.0,0.0,0.0,0.0,0.0,0.0,0.0,0.0,0.0,0.0,0.0,0.0,0.0,0.0,0.0,0.0,0.0,0.0,0.0,0.0,0.0,0.0,0.0,0.0,0.0,0.0,0.0,0.0,0.0,0.0,0.0,0.0,0.0,0.0,0.0,0.0,0.0,0.0,0.0,0.0,0.0,0.0,0.0,0.0,0.0,0.0,0.0,0.0,0.0,0.0,0.0,0.0,0.0,0.0,0.0,0.0,0.0,0.0,0.0,0.0,0.0,0.0,0.0,0.0,0.0,0.0,0.0,0.0,0.0,0.0,0.0,0.0,0.0,0.0,0.0,0.0,0.0,0.0,0.0,0.0,0.0,0.0,0.0,0.3566,0.3978,0.4816,0.5416,0.578,0.537,0.4565,0.0,0.0,0.0,0.0,0.0,0.0,0.0,0.0,0.0,0.0,0.0,0.0,0.0,0.0,0.0,0.0,0.0,0.0,0.0,0.0,0.0,0.0,0.0,0.0,0.0,0.0,0.0,0.0,0.0,0.0,0.0,0.0,0.0,0.0,0.0,0.0,0.0,0.0,0.0,0.0,0.0,0.0,0.0,0.0,0.0,0.0,0.0,0.0,0.0,0.0,0.0,0.0,0.0,0.0,0.0,0.0,0.0,0.0,0.0,0.0,0.0,0.0,0.0,0.0,0.0,0.0,0.0,0.0,0.0,0.0,0.0,0.0,0.0,0.0,0.0,0.0,0.0,0.0,0.0,0.0,0.0,0.0,0.0,0.0,0.0,0.0,0.0,0.0,0.0,0.0,0.0,0.0,0.0,0.0,0.0,0.0,0.0,0.0,0.0,0.0,0.0,0.0,0.0,0.0,0.0,0.0,0.0,0.0,0.4222,0.5267,0.574,0.6223,0.6719,0.579,0.4808,0.0,0.0,0.0,0.0,0.0,0.0,0.0,0.0,0.0,0.0,0.0,0.0,0.0,0.0,0.0,0.0,0.0,0.0,0.0,0.0,0.0,0.0,0.0,0.0,0.0,0.0,0.0,0.0,0.0,0.0,0.0,0.0,0.0,0.0,0.0,0.0,0.0,0.0,0.0,0.0,0.0,0.0,0.0,0.0,0.0,0.0,0.0,0.0,0.4917,0.0,0.0,0.0,0.0,0.0,0.0,0.0,0.0,0.0,0.0,0.0,0.0,0.0,0.0,0.0,0.0,0.0,0.0,0.0,0.0,0.0,0.0,0.0,0.0,0.0,0.0,0.0,0.0,0.0,0.0,0.0,0.0,0.0,0.0,0.0,0.0,0.0,0.0,0.0,0.0,0.0,0.0,0.0,0.0,0.0,0.0,0.0,0.0,0.0,0.0,0.0,0.0,0.0,0.0,0.0,0.0,0.0,0.0,0.0,0.4681,0.576,0.6296,0.6689,0.6972,0.6397,0.556,0.0,0.0,0.0,0.0,0.0,0.0,0.0,0.0,0.0,0.0,0.0,0.0,0.0,0.0,0.0,0.0,0.0,0.0,0.0,0.0,0.0,0.0,0.0,0.0,0.0,0.0,0.0,0.0,0.0,0.0,0.0,0.0,0.0,0.0,0.0,0.0,0.0,0.0,0.0,0.0,0.0,0.0,0.0,0.0,0.0,0.0,0.0,0.0,0.0,0.0,0.0,0.0,0.0,0.0,0.0,0.0,0.0,0.0,0.0,0.0,0.0,0.0,0.0,0.0,0.0,0.0,0.0,0.0,0.0,0.0,0.0,0.0,0.0,0.0,0.0,0.0,0.0,0.0,0.0,0.0,0.0,0.0,0.0,0.0,0.0,0.0,0.0,0.0,0.0,0.0,0.0,0.0,0.0,0.0,0.0,0.0,0.0,0.0,0.0,0.0,0.0,0.0,0.0,0.0,0.0,0.0,0.0,0.4282,0.5134,0.6068,0.668,0.6972,0.6972,0.6972,0.6311,0.4933,0.0,0.0,0.0,0.0,0.0,0.0,0.0,0.0,0.0,0.0,0.0,0.0,0.0,0.0,0.0,0.0,0.0,0.0,0.0,0.0,0.0,0.0,0.0,0.0,0.0,0.0,0.0,0.0,0.0,0.0,0.0,0.0,0.0,0.0,0.0,0.0,0.0,0.0,0.4407,0.4935,0.0,0.0,0.0,0.0,0.0,0.0,0.0,0.0,0.5098,0.0,0.0,0.0,0.0,0.0,0.0,0.0,0.0,0.0,0.0,0.0,0.0,0.0,0.0,0.0,0.0,0.0,0.0,0.0,0.0,0.0,0.0,0.0,0.0,0.0,0.0,0.0,0.0,0.0,0.0,0.0,0.0,0.0,0.0,0.0,0.0,0.0,0.0,0.0,0.0,0.0,0.0,0.0,0.0,0.0,0.0,0.0,0.0,0.0,0.0,0.0,0.0,0.0,0.0,0.0,0.0,0.4361,0.4796,0.5597,0.6803,0.6917,0.6972,0.6972,0.6972,0.6434,0.5293,0.0,0.0,0.0,0.0,0.0,0.0,0.0,0.0,0.0,0.0,0.0,0.0,0.0,0.0,0.0,0.0,0.0,0.0,0.0,0.0,0.0,0.0,0.0,0.0,0.0,0.0,0.0,0.0,0.0,0.0,0.0,0.0,0.0,0.0,0.0,0.0,0.0,0.0,0.0,0.5305,0.5427,0.0,0.0,0.0,0.0,0.0,0.0,0.0,0.0,0.5068,0.0,0.0,0.0,0.0,0.0,0.0,0.0,0.0,0.0,0.0,0.0,0.0,0.0,0.0,0.0,0.0,0.0,0.0,0.0,0.0,0.0,0.0,0.0,0.0,0.0,0.0,0.0,0.0,0.0,0.0,0.0,0.0,0.0,0.0,0.0,0.0,0.0,0.0,0.0,0.0,0.0,0.0,0.0,0.0,0.0,0.0,0.0,0.0,0.0,0.0,0.0,0.0,0.0,0.0,0.0,0.4643,0.5115,0.5876,0.6945,0.6972,0.6972,0.6965,0.6734,0.6172,0.0,0.0,0.0,0.0,0.0,0.0,0.0,0.0,0.0,0.0,0.0,0.0,0.0,0.0,0.0,0.0,0.0,0.0,0.0,0.0,0.0,0.0,0.0,0.0,0.0,0.0,0.0,0.0,0.0,0.0,0.0,0.0,0.0,0.0,0.0,0.0,0.0,0.0,0.0,0.0,0.5231,0.5282,0.5108,0.0,0.0,0.0,0.0,0.0,0.0,0.5098,0.5098,0.0,0.0,0.0,0.0,0.0,0.0,0.0,0.0,0.0,0.0,0.0,0.0,0.0,0.0,0.0,0.0,0.0,0.0,0.0,0.0,0.0,0.0,0.0,0.0,0.0,0.0,0.0,0.0,0.0,0.0,0.0,0.0,0.0,0.0,0.0,0.0,0.0,0.0,0.0,0.0,0.0,0.0,0.0,0.0,0.0,0.0,0.0,0.0,0.0,0.0,0.0,0.0,0.0,0.0,0.0,0.4776,0.5297,0.6021,0.6945,0.6972,0.6972,0.6965,0.6573,0.6035,0.0,0.0,0.0,0.0,0.0,0.0,0.0,0.0,0.0,0.0,0.0,0.0,0.0,0.0,0.0,0.0,0.0,0.0,0.0,0.0,0.0,0.0,0.0,0.0,0.0,0.0,0.0,0.0,0.0,0.0,0.0,0.0,0.0,0.0,0.0,0.0,0.0,0.0,0.0,0.0,0.0,0.5155,0.5264,0.5185,0.0,0.0,0.0,0.0,0.509,0.526,0.0,0.0,0.0,0.0,0.0,0.0,0.0,0.0,0.0,0.0,0.0,0.0,0.0,0.0,0.0,0.0,0.0,0.0,0.0,0.0,0.0,0.0,0.0,0.0,0.0,0.0,0.0,0.0,0.0,0.0,0.0,0.0,0.0,0.0,0.0,0.0,0.0,0.0,0.0,0.0,0.0,0.0,0.0,0.0,0.0,0.0,0.0,0.0,0.0,0.0,0.0,0.0,0.0,0.0,0.0,0.0,0.4789,0.539,0.6098,0.6926,0.6972,0.6972,0.6972,0.6954,0.6406,0.0,0.0,0.0,0.0,0.0,0.0,0.0,0.0,0.0,0.0,0.0,0.0,0.0,0.0,0.0,0.0,0.0,0.0,0.0,0.0,0.0,0.0,0.0,0.0,0.0,0.0,0.0,0.0,0.0,0.0,0.0,0.0,0.0,0.0,0.0,0.0,0.0,0.0,0.0,0.0,0.0,0.5306,0.5819,0.5421,0.5373,0.0,0.0,0.509,0.5097,0.5735,0.0,0.0,0.0,0.0,0.0,0.0,0.0,0.0,0.0,0.0,0.0,0.0,0.0,0.0,0.0,0.0,0.0,0.0,0.0,0.0,0.0,0.0,0.0,0.0,0.0,0.0,0.0,0.0,0.0,0.0,0.0,0.0,0.0,0.0,0.0,0.0,0.0,0.0,0.0,0.0,0.0,0.0,0.0,0.0,0.0,0.0,0.0,0.0,0.0,0.0,0.0,0.0,0.0,0.0,0.0,0.4364,0.5068,0.5663,0.6313,0.6945,0.6972,0.6972,0.6972,0.6729,0.6272,0.0,0.0,0.0,0.0,0.0,0.0,0.0,0.0,0.0,0.0,0.0,0.0,0.0,0.0,0.0,0.0,0.0,0.0,0.0,0.0,0.0,0.0,0.0,0.0,0.0,0.0,0.0,0.0,0.0,0.0,0.0,0.0,0.0,0.0,0.0,0.0,0.0,0.0,0.0,0.0,0.0,0.0,0.6126,0.6432,0.0,0.0,0.0,0.6135,0.6126,0.0,0.0,0.0,0.0,0.0,0.0,0.0,0.0,0.0,0.0,0.0,0.0,0.0,0.0,0.0,0.0,0.0,0.0,0.0,0.0,0.0,0.0,0.0,0.0,0.0,0.0,0.0,0.0,0.0,0.0,0.0,0.0,0.0,0.0,0.0,0.0,0.0,0.0,0.0,0.0,0.0,0.0,0.0,0.0,0.0,0.0,0.0,0.0,0.0,0.0,0.0,0.0,0.0,0.0,0.0,0.0,0.0,0.5284,0.5967,0.6513,0.6959,0.7154,0.7238,0.7217,0.6899,0.0,0.0,0.0,0.0,0.0,0.0,0.0,0.0,0.0,0.0,0.0,0.0,0.0,0.0,0.0,0.0,0.0,0.0,0.0,0.0,0.0,0.0,0.0,0.0,0.0,0.0,0.0,0.2754,0.0,0.0,0.0,0.0,0.0,0.0,0.0,0.0,0.0,0.0,0.0,0.0,0.0,0.0,0.5985,0.6614,0.7261,0.7397,0.0,0.0,0.6856,0.7072,0.6903,0.6572,0.0,0.0,0.0,0.0,0.0,0.0,0.0,0.0,0.0,0.0,0.0,0.0,0.0,0.0,0.0,0.0,0.0,0.0,0.0,0.0,0.0,0.0,0.0,0.0,0.0,0.0,0.0,0.0,0.0,0.0,0.0,0.0,0.0,0.0,0.0,0.0,0.0,0.0,0.0,0.0,0.0,0.0,0.0,0.0,0.0,0.0,0.0,0.0,0.0,0.0,0.0,0.0,0.0,0.0,0.4934,0.5322,0.6162,0.6707,0.7007,0.7579,0.7829,0.787,0.789,0.7455,0.0,0.0,0.0,0.0,0.0,0.0,0.0,0.0,0.0,0.0,0.0,0.0,0.0,0.0,0.0,0.0,0.0,0.0,0.0,0.0,0.0,0.0,0.0,0.0,0.0,0.0,0.0,0.0,0.0,0.0,0.0,0.0,0.0,0.0,0.0,0.0,0.0,0.0,0.0,0.0,0.0,0.7523,0.7506,0.7629,0.7671,0.0,0.6933,0.6729,0.754,0.7627,0.7249,0.6172,0.0,0.0,0.0,0.0,0.0,0.0,0.0,0.0,0.0,0.0,0.0,0.0,0.0,0.0,0.0,0.0,0.0,0.0,0.0,0.0,0.0,0.0,0.0,0.0,0.0,0.0,0.0,0.0,0.0,0.0,0.0,0.0,0.0,0.0,0.0,0.0,0.0,0.0,0.0,0.0,0.0,0.0,0.0,0.0,0.0,0.0,0.0,0.0,0.0,0.0,0.0,0.0,0.0,0.4953,0.5284,0.6176,0.7024,0.7867,0.7891,0.8177,0.8752,0.8593,0.8041,0.0,0.0,0.0,0.0,0.0,0.0,0.0,0.0,0.0,0.0,0.0,0.0,0.0,0.0,0.0,0.0,0.0,0.0,0.0,0.0,0.0,0.0,0.0,0.0,0.0,0.0,0.0,0.0,0.3634,0.3838,0.4777,0.0,0.0,0.0,0.0,0.0,0.0,0.0,0.0,0.0,0.0,0.8725,0.779,0.8088,0.0,0.0,0.8437,0.7889,0.8469,0.8077,0.7468,0.678,0.6425,0.0,0.0,0.0,0.0,0.0,0.0,0.0,0.0,0.0,0.0,0.0,0.0,0.0,0.0,0.0,0.0,0.0,0.0,0.0,0.0,0.0,0.0,0.0,0.0,0.0,0.0,0.0,0.0,0.0,0.0,0.0,0.0,0.0,0.0,0.0,0.0,0.0,0.0,0.0,0.0,0.0,0.0,0.0,0.0,0.0,0.0,0.0,0.0,0.0,0.0,0.0,0.0,0.5117,0.5411,0.6588,0.7637,0.8617,0.87,0.9021,0.9521,0.9367,0.8839,0.0,0.0,0.0,0.0,0.0,0.0,0.0,0.0,0.0,0.0,0.0,0.0,0.0,0.0,0.0,0.0,0.0,0.0,0.0,0.0,0.0,0.0,0.0,0.0,0.0,0.0,0.0,0.0,0.4263,0.4538,0.5252,0.0,0.0,0.0,0.0,0.0,0.0,0.0,0.0,0.0,0.0,1.0346,0.8927,0.92,0.9805,1.0407,0.9695,0.906,0.8931,0.8228,0.7614,0.731,0.0,0.0,0.0,0.0,0.0,0.0,0.0,0.0,0.0,0.0,0.0,0.0,0.0,0.0,0.0,0.0,0.0,0.0,0.0,0.0,0.0,0.0,0.0,0.0,0.0,0.0,0.0,0.4556,0.0,0.0,0.3547,0.0,0.0,0.0,0.0,0.0,0.0,0.0,0.0,0.0,0.0,0.0,0.0,0.0,0.0,0.0,0.0,0.0,0.0,0.0,0.0,0.0,0.0,0.5443,0.5711,0.7533,0.861,0.8951,1.0086,1.0478,1.0134,1.021,0.9873,0.897,0.0,0.0,0.0,0.0,0.0,0.0,0.0,0.0,0.0,0.0,0.0,0.0,0.0,0.0,0.0,0.0,0.0,0.0,0.0,0.0,0.0,0.0,0.0,0.0,0.0,0.0,0.4975,0.5074,0.5272,0.0,0.0,0.0,0.0,0.0,0.0,0.0,0.0,0.0,0.8726,1.1358,1.2599,1.1166,1.1199,1.1058,1.0507,1.0416,0.9976,0.8681,0.804,0.7675,0.0,0.0,0.0,0.0,0.0,0.0,0.0,0.0,0.0,0.0,0.0,0.0,0.0,0.0,0.0,0.0,0.0,0.0,0.0,0.0,0.0,0.0,0.0,0.0,0.0,0.0,0.0,0.6327,0.6128,0.0,0.0,0.0,0.0,0.0,0.0,0.0,0.0,0.0,0.0,0.0,0.9548,0.9954,0.0,0.0,0.0,0.0,0.0,0.0,0.0,0.0,0.0,0.0,0.0,0.0,0.6126,0.6755,0.8229,0.9537,1.0548,1.0732,1.1046,1.15,1.1,1.0166,0.9043,0.0,0.0,0.0,0.0,0.0,0.0,0.0,0.0,0.0,0.0,0.0,0.0,0.0,0.0,0.0,0.0,0.0,0.0,0.0,0.0,0.0,0.0,0.0,0.0,0.0,0.4811,0.0,0.0,0.0,0.0,0.0,0.0,0.0,0.0,0.0,0.0,0.6495,0.7138,0.89,1.0352,1.1219,1.112,1.1146,1.1274,0.0,0.0,0.0,0.0,0.0,0.0,0.0,0.0,0.0,0.0,0.0,0.0,0.0,0.0,0.8223,0.6323,0.6374,0.6487,0.5753,0.0,0.0,0.0,0.0,0.0,0.0,0.0,0.0,0.0,0.0,0.0,0.0,0.0,0.0,0.8011,0.7933,0.763,0.0,0.0,0.0,0.0,0.0,0.0,0.0,0.0,1.0283,1.084,1.0977,1.1396,1.1367,0.0,1.082,0.9753,0.0,0.0,0.0,0.0,0.0,0.0,0.0,0.0,0.7069,0.7816,0.9274,1.0505,1.1486,1.1528,1.1759,1.2171,1.1334,1.0449,0.9473,0.859,0.7744,0.0,0.0,0.0,0.0,0.0,0.0,0.0,0.0,0.0,0.0,0.0,0.0,0.0,0.0,0.0,0.0,0.0,0.0,0.0,0.0,0.0,0.0,0.0,0.5088,0.0,0.0,0.0,0.0,0.0,0.0,0.0,0.0,0.0,0.6878,0.7017,0.7831,0.9724,1.0753,1.1388,1.157,0.0,0.0,0.0,0.0,0.0,0.0,0.0,0.8879,0.9613,1.0235,1.0467,0.9993,1.0221,1.0158,0.9297,0.0,0.0,0.7709,0.7377,0.7167,0.6589,0.7119,0.7856,0.8484,0.8699,0.8642,0.0,0.0,0.0,0.0,0.0,0.0,0.0,0.0,0.9391,0.9505,0.0,0.9131,0.0,0.0,0.0,0.0,0.8267,1.0051,0.0,0.0,1.21,1.2676,1.2287,1.2695,1.2676,1.2258,1.2646,1.2168,1.0867,0.9059,0.0,0.0,0.0,0.0,0.0,0.0,0.8214,0.8992,1.0588,1.1561,1.1837,1.2501,1.2666,1.218,1.1406,1.0762,1.0293,0.9482,0.8652,0.7773,0.6898,0.0,0.0,0.0,0.0,0.0,0.0,0.0,0.0,0.0,0.0,0.0,0.0,0.0,0.0,0.0,0.0,0.0,0.0,0.0,0.0,0.5096,0.0,0.0,0.0,0.0,0.0,0.0,0.0,0.0,0.0,0.8039,0.7583,0.8168,0.9309,1.1199,0.0,0.0,0.0,0.0,1.2589,1.2651,1.2977,1.3129,1.2892,1.1538,1.0661,1.1052,0.0,0.0,1.1008,1.0928,1.0685,0.9816,1.0049,1.0115,0.947,0.8785,0.8515,0.8858,0.866,0.8668,0.9213,0.9256,0.9077,1.3188,0.0,0.0,0.0,0.0,1.193,1.2187,1.2791,1.2378,1.2155,1.1998,1.1412,0.0,0.0,0.0,0.0,0.0,0.0,1.2119,1.2598,1.3105,1.3418,1.3533,1.3408,1.3262,1.3135,1.2969,1.2686,1.2295,1.1427,1.0106,0.8323,0.0,0.0,0.0,0.0,0.9652,1.0394,1.1459,1.2186,1.255,1.2774,1.2676,1.22,1.1947,1.1494,1.0752,1.0205,0.9521,0.8672,0.7783,0.0,0.0,0.0,0.0,0.0,0.0,0.0,0.0,0.0,0.0,0.0,0.0,0.0,0.0,0.0,0.0,0.0,0.0,0.0,0.5117,0.5098,0.5092,0.0,0.0,0.0,0.0,0.0,0.0,0.0,0.0,0.0,1.0184,1.0543,1.1213,0.0,0.0,1.4099,1.3177,1.3402,1.3638,1.3662,1.4099,0.0,1.3804,1.4303,1.4114,1.2309,1.1943,1.1784,1.1439,1.142,1.1341,1.1035,1.1155,1.1136,1.0933,0.978,0.9177,0.9705,0.9569,0.9457,0.9914,0.9963,0.9922,1.5332,1.4385,1.4023,1.4033,1.4238,1.3994,1.417,1.4629,1.4365,1.4121,1.3857,1.3428,1.2852,1.2168,1.1748,0.0,0.0,0.0,1.3212,1.375,1.3708,1.3896,1.4048,1.3867,1.376,1.375,1.3496,1.3291,1.3115,1.2861,1.1814,1.0078,0.0,0.9469,0.9437,1.0198,1.0841,1.1471,1.2144,1.2617,1.2871,1.2891,1.2754,1.25,1.2324,1.1937,1.1445,1.085,1.0215,0.9541,0.8691,0.7812,0.0,0.0,0.0,0.0,0.0,0.0,0.0,0.0,0.0,0.0,0.0,0.4163,0.3356,0.0,0.0,0.0,0.5419,0.5783,0.5169,0.5925,0.0,0.0,0.0,0.0,0.0,0.0,0.0,1.0218,1.0605,1.1308,1.24,1.2659,1.3059,1.3939,1.4538,1.4523,1.3447,0.0,1.4146,1.4261,1.4268,1.4497,1.4996,1.5863,1.5612,1.3042,1.2236,1.2081,1.2132,1.1953,1.1836,1.1826,1.1826,1.1768,1.1636,1.0633,0.9962,1.0479,1.0525,1.0449,1.0607,1.0715,1.0832,1.687,1.6738,1.5933,1.5526,1.5518,1.5518,1.5518,1.5518,1.5518,1.5508,1.5488,1.5068,1.4648,1.4219,1.3867,0.0,1.373,1.4097,1.4272,1.4243,1.4287,1.4214,1.4238,1.4145,1.4136,1.4136,1.4097,1.3883,1.3574,1.3555,1.3154,1.2326,1.1533,1.1289,1.1645,1.1694,1.1906,1.2266,1.2665,1.2881,1.2891,1.2891,1.2891,1.2881,1.249,1.2246,1.2148,1.1396,1.0752,1.0283,0.9502,0.8649,0.7822,0.0,0.0,0.0,0.0,0.0,0.0,0.0,0.0,0.0,0.0,0.0,0.0,0.0,0.0,0.0,0.6234,0.0,0.5414,0.735,0.0,0.0,0.0,0.8684,1.0822,1.2141,1.2796,1.2446,0.0,0.0,1.4101,1.4385,1.4774,1.5414,1.5243,1.4636,1.3595,1.3986,1.4401,1.4702,1.4143,1.4378,1.6046,1.6467,1.5727,1.3552,1.2522,1.2287,1.2703,1.2549,1.2305,1.2285,1.2229,1.2168,1.1783,1.146,1.1246,1.1261,1.1436,1.1504,1.1277,1.1349,1.1518,1.8176,1.7423,1.7222,1.6852,1.6364,1.6416,1.6364,1.6354,1.6426,1.6354,1.6387,1.5947,1.5518,1.5127,1.5352,1.5517,1.5478,1.5908,1.5928,1.5605,1.5605,1.543,1.5098,1.4775,1.4629,1.4609,1.4297,1.4029,1.3941,1.3984,1.3834,1.361,1.3154,1.2617,1.2109,1.2402,1.2645,1.2733,1.2861,1.2891,1.2891,1.2891,1.2891,1.2881,1.2783,1.2412,1.1792,1.1557,1.1096,1.0322,0.9766,0.9248,0.8721,0.749,0.0,0.0,0.0,0.0,0.0,0.0,0.0,0.0,0.0,0.6268,0.4948,0.0,0.6534,0.0,0.6593,0.6943,0.7093,0.8359,0.0,0.0,1.0329,0.9731,1.1531,1.2436,1.2793,1.2496,1.329,1.4084,1.4731,1.4988,1.541,1.6115,1.6163,1.5805,1.5082,1.55,1.5976,1.5954,1.5831,1.5936,1.6386,1.6511,1.5993,1.4527,1.3376,1.2769,1.2871,1.2803,1.2734,1.2725,1.2725,1.2676,1.2568,1.2501,1.2472,1.2443,1.2152,1.1894,1.183,1.1679,1.1606,1.8912,1.8387,1.8378,1.8223,1.7784,1.712,1.7102,1.7502,1.7383,1.7197,1.6992,1.6562,1.623,1.6016,1.625,1.6357,1.6377,1.6621,1.6602,1.6367,1.6357,1.6123,1.5693,1.5469,1.5254,1.5059,1.4814,1.4609,1.4434,1.4424,1.4326,1.4087,1.3896,1.334,1.2529,1.2478,1.2412,1.2382,1.2094,1.1986,1.195,1.2246,1.2403,1.2403,1.2725,1.2568,1.1885,1.1714,1.1292,1.0596,1.0146,0.9727,0.9262,0.8437,0.7812,0.0,0.0,0.0,0.0,0.0,0.0,0.0,0.0,0.0,0.0,0.0,0.7478,0.7293,0.7795,0.7977,0.7727,0.9323,1.1057,1.2721,1.1514,1.0961,1.1985,1.2567,1.3001,1.319,1.3905,1.4706,1.5519,1.5738,1.6003,1.6466,1.6528,1.6338,1.6036,1.6271,1.6534,1.6534,1.6534,1.6534,1.6534,1.6535,1.6098,1.488,1.3687,1.2889,1.2929,1.2891,1.2891,1.2891,1.2891,1.2891,1.2891,1.2891,1.2891,1.2871,1.2624,1.2431,1.2391,1.227,1.2194,1.938,1.9222,1.9222,1.9232,1.911,1.7725,1.7749,1.8701,1.833,1.7939,1.7519,1.709,1.6894,1.6904,1.6894,1.6831,1.6894,1.684,1.6865,1.6826,1.6816,1.6572,1.6152,1.6143,1.5957,1.5586,1.5518,1.5303,1.4961,1.4893,1.4668,1.4253,1.4248,1.3768,1.3022,1.2191,1.1758,1.1707,1.1073,1.0769,1.0813,1.1358,1.1715,1.1814,1.2452,1.2541,1.2158,1.1826,1.1416,1.0937,1.0615,1.0244,0.9777,0.931,0.8896,0.0,0.7809,0.0,0.0,0.0,0.0,0.0,0.0,0.0,0.0,0.864,0.8603,0.8746,0.9414,0.9421,0.8308,1.0339,1.2047,1.278,1.2453,1.2168,1.2275,1.2646,1.3227,1.4025,1.4444,1.5131,1.6259,1.6504,1.6491,1.6522,1.6522,1.6484,1.6509,1.6509,1.6534,1.6534,1.6534,1.6534,1.6534,1.6534,1.6175,1.505,1.4022,1.3181,1.3188,1.321,1.3162,1.3152,1.321,1.32,1.3113,1.3025,1.2957,1.3064,1.314,1.314,1.3054,1.2909,1.2929,1.985,1.9054,1.9054,1.9054,1.9017,1.8308,1.849,1.916,1.9072,1.8799,1.8369,1.7959,1.7764,1.7773,1.7764,1.7773,1.7773,1.7773,1.7578,1.7256,1.7266,1.7031,1.6621,1.6602,1.6562,1.6455,1.6113,1.5898,1.587,1.5459,1.5254,1.5166,1.4834,1.4269,1.3435,0.0,0.0,0.0,1.0672,1.0468,1.0762,1.0914,1.1266,1.1765,1.1922,0.0,1.1748,1.1953,1.1728,1.0977,1.1204,0.0,0.0,0.0,0.0,0.0,0.0,0.0,0.0,0.0,0.0,0.0,1.0266,0.9863,0.9807,0.9856,1.012,1.0625,1.1023,1.1147,1.088,1.1915,1.2726,1.2869,1.2792,1.2733,1.2754,1.287,1.3195,1.4025,1.447,1.5164,1.6268,1.6504,1.6534,1.6534,1.6534,1.6534,1.6534,1.6534,1.6534,1.6534,1.6534,1.6534,1.6534,1.6534,1.6442,1.6021,1.5171,1.4406,1.4275,1.4294,1.434,1.4294,1.4387,1.434,1.434,1.3594,1.3176,1.374,1.4136,1.4258,1.3936,1.3364,1.32,2.0437,1.9854,1.9766,1.9766,0.0,1.9531,1.964,1.9883,1.9473,1.916,1.8945,1.873,1.8643,1.8633,1.8418,1.832,1.8311,1.8105,1.79,1.7695,1.7695,1.7471,1.7051,1.7051,1.6943,1.6665,1.6504,1.6279,1.6125,1.584,1.5625,1.541,1.5195,1.4687,1.3839,1.2348,1.1174,1.0253,0.9899,0.9731,0.9814,1.0115,1.0466,1.0813,1.1466,0.0,0.0,0.0,0.0,0.0,0.0,0.0,0.0,0.0,0.0,1.0322,0.9992,0.9816,0.9826,1.0345,1.0925,1.1506,1.1694,1.1485,1.0861,1.0883,1.1162,1.1642,1.1792,1.2018,1.2217,1.2669,1.2885,1.2932,1.3263,1.346,1.3382,1.361,1.3888,1.4095,1.4699,1.549,1.6386,1.6498,1.6534,1.6534,1.6534,1.6534,1.6534,1.6534,1.6534,1.6534,1.6534,1.6534,1.6534,1.6534,1.651,1.6416,1.5997,1.5377,1.4789,1.4525,1.4457,1.4652,1.4846,1.4994,1.4949,1.4301,1.3974,1.4573,1.5177,1.5372,1.4925,1.4269,1.3931,2.1094,2.0684,2.0674,2.0635,2.0576,2.0576,2.0576,2.0508,1.9746,0.0,0.0,1.9326,1.9277,1.9258,1.8916,1.875,1.8721,1.8311,1.8125,1.8115,1.8047,1.7822,1.75,1.749,1.7305,1.6963,1.6821,1.6621,1.6191,1.6164,1.584,1.5449,1.542,1.4991,1.4127,1.2457,1.1018,0.9862,0.9397,0.9098,0.8818,0.9361,0.9658,0.9821,1.1015,1.1487,1.1199,1.1902,1.2139,1.1753,1.1792,1.1802,1.1724,1.1724,1.1685,1.1606,1.1596,1.1426,1.1172,1.1842,1.2181,1.1944,1.2562,1.2679,1.1975,1.188,1.1988,1.2444,1.239,1.249,1.2842,1.2929,1.2891,1.2929,1.3614,1.4099,1.4089,1.4398,1.4562,1.4461,1.506,1.578,1.6191,1.6424,1.6423,1.638,1.6423,1.6534,1.6534,1.6534,1.6534,1.6534,1.6534,1.6534,1.6534,1.6534,1.6498,1.6504,1.6485,1.6114,1.53,1.4744,1.4687,1.5062,1.5311,1.548,1.5517,1.5255,1.5142,1.5439,1.6013,1.6357,1.5872,1.5377,1.5073,2.1533,2.1143,2.1152,2.0918,2.0576,2.0576,2.0576,2.0527,2.0039,1.9824,1.9805,1.9453,1.9277,1.9277,1.9228,1.9199,1.917,1.874,1.8545,1.8455,1.8174,1.7978,1.793,1.792,1.7891,1.7803,1.7471,1.7061,1.6641,1.625,1.584,1.5469,1.542,1.4991,1.4204,1.3253,1.2549,1.2092,1.0158,0.9044,0.8818,0.891,0.9211,0.9814,1.0568,1.1036,1.1217,1.2234,1.2588,1.2132,1.249,1.2529,1.2158,1.2139,1.1963,1.1645,1.1596,1.1743,1.1966,1.2145,1.2368,1.2711,1.2859,1.3067,1.3499,1.3063,1.2934,1.3496,1.308,1.2812,1.2929,1.2891,1.2891,1.2929,1.3614,1.4363,1.4904,1.4808,1.4801,1.5037,1.5395,1.552,1.5564,1.6039,1.6238,1.5952,1.6194,1.6534,1.6534,1.6534,1.6534,1.6534,1.6534,1.6534,1.6534,1.6534,1.6504,1.6504,1.6498,1.6442,1.6163,1.6008,1.602,1.6207,1.6194,1.6262,1.6287,1.6306,1.6163,1.6256,1.6417,1.6436,1.6293,1.6194,1.612,2.1973,2.1602,2.1592,2.1338,2.0908,2.0664,2.0576,2.0634,2.0361,2.0264,2.0254,2.0059,1.998,1.9951,1.9736,1.9629,1.9609,1.918,1.8867,1.8553,1.8437,1.8232,1.8018,1.8008,1.8008,1.7988,1.7822,1.75,1.71,1.6865,1.6436,1.5801,1.5527,1.5225,1.4815,1.4025,1.3543,1.3226,1.1543,1.0364,0.9731,0.9453,0.951,0.9806,1.0466,1.1039,1.1504,1.2406,1.2783,1.2588,1.2773,1.2793,1.2598,1.2588,1.249,1.2295,1.2322,1.2363,1.2568,1.2588,1.2666,1.291,1.2891,1.3034,1.332,1.309,1.3017,1.3286,1.3055,1.2891,1.2891,1.2891,1.2891,1.2891,1.3226,1.3711,1.4341,1.4671,1.4789,1.4971,1.5039,1.5084,1.4971,1.532,1.5599,1.5599,1.6095,1.6479,1.6479,1.6491,1.6479,1.6534,1.6534,1.6534,1.6534,1.6534,1.6534,1.6534,1.6534,1.6534,1.6534,1.6534,1.6534,1.6534,1.6534,1.6534,1.6534,1.6534,1.6534,1.6534,1.6534,1.6534,1.6479,1.6238,1.6139,2.2412,2.2021,2.2021,2.1777,2.1357,2.1016,2.081,2.0713,2.0723,2.0664,2.0576,2.0576,2.0576,2.0527,2.0215,2.0059,2.0,1.9629,1.9248,1.8936,1.8828,1.8564,1.8174,1.8154,1.8105,1.8018,1.8008,1.7793,1.7422,1.7383,1.6998,1.6103,1.5625,1.542,1.541,1.4805,1.4354,1.4107,1.3123,1.2019,1.0911,1.0408,1.0179,1.0231,1.0761,1.1266,1.1814,1.251,1.2891,1.2891,1.2891,1.2891,1.2891,1.2891,1.2891,1.2891,1.2891,1.2891,1.2891,1.2891,1.2891,1.2891,1.2891,1.2891,1.2891,1.2891,1.2891,1.2891,1.2929,1.2891,1.2891,1.2891,1.2891,1.292,1.2897,1.3303,1.3931,1.434,1.463,1.4687,1.4766,1.4789,1.4651,1.4891,1.5085,1.5037,1.5716,1.6281,1.6225,1.6269,1.6281,1.6269,1.6367,1.6479,1.6534,1.6529,1.6374,1.6213,1.6306,1.6386,1.6374,1.638,1.6479,1.6534,1.6534,1.6534,1.6534,1.6534,1.6534,1.6534,1.6529,1.6411,1.602,1.5688,1.5599,2.2832,2.248,2.2451,2.2207,2.1836,2.1768,2.1514,2.1191,2.1172,2.0928,2.0615,2.0576,2.0576,2.0566,2.0518,2.0488,2.0449,2.0049,1.9814,1.9727,1.9404,1.8994,1.8584,1.8494,1.8379,1.8047,1.8008,1.7812,1.7432,1.7383,1.6943,1.6103,1.5625,1.542,1.542,1.5294,1.5274,1.5226,1.4762,1.3719,1.2044,1.156,1.1317,1.1361,1.1599,1.1715,1.1891,1.251,1.2881,1.2891,1.2881,1.2881,1.2881,1.2881,1.2881,1.2881,1.2881,1.2891,1.2891,1.2891,1.2891,1.2891,1.2891,1.2891,1.2891,1.2891,1.2891,1.29,1.29,1.2891,1.2891,1.2891,1.29,1.2929,1.2916,1.3361,1.4226,1.434,1.429,1.4687,1.4834,1.4958,1.4392,1.5164,1.528,1.3672,1.4777,1.562,1.5528,1.5608,1.5608,1.5572,1.5971,1.6392,1.6473,1.6511,1.5937,1.5201,1.5756,1.6041,1.5925,1.612,1.6491,1.6498,1.6436,1.6436,1.6436,1.6534,1.6491,1.6287,1.6262,1.6114,1.5198,1.4824,1.5005,2.3037,2.2881,2.2881,2.2637,2.2256,2.1992,2.1787,2.1602,2.1348,2.1133,2.0937,2.0684,2.0576,2.0576,2.0576,2.0576,2.0557,2.0381,2.0146,1.9922,1.9727,1.9307,1.8611,1.8562,1.8418,1.8037,1.8008,1.792,1.7734,1.75,1.7061,1.6475,1.6016,1.5664,1.5439,1.542,1.542,1.54,1.5693,1.5435,1.4627,1.3205,1.2457,1.2439,1.2511,1.2678,1.2739,1.272,1.2507,1.2264,1.1891,1.1642,1.1692,1.203,1.2246,1.2295,1.2666,1.2891,1.2891,1.2891,1.2891,1.2891,1.2891,1.2891,1.2891,1.2891,1.2821,1.2613,1.2721,1.2891,1.29,1.29,1.291,1.29,1.291,1.3133,1.356,1.3488,1.3474,1.3621,1.3747,1.3826,1.3625,1.4258,1.4291,1.331,1.4155,1.4937,1.4971,1.4994,1.4914,1.4756,1.5071,1.573,1.6199,1.5858,1.4982,1.4181,1.444,1.4971,1.5437,1.5322,1.5647,1.6355,1.6169,1.6008,1.5908,1.6274,1.6423,1.6021,1.5252,1.4767,1.3817,1.3946,1.4239,2.3144,2.3144,2.3144,2.2959,2.2666,2.2363,2.2158,2.2031,2.1719,2.1523,2.1377,2.0947,2.0742,2.0732,2.0625,2.0576,2.0576,2.0576,2.04,2.0107,2.0098,1.9697,1.9023,1.8857,1.8594,1.8223,1.8066,1.8008,1.7959,1.7588,1.7217,1.6865,1.6338,1.5898,1.5615,1.5488,1.542,1.5478,1.5979,1.6322,1.6162,1.4664,1.3746,1.3844,1.3523,1.3443,1.3649,1.3204,1.2635,1.2013,1.154,1.1124,1.0813,1.1266,1.1616,1.1814,1.2501,1.2891,1.2891,1.2891,1.2832,1.2666,1.2764,1.2822,1.2618,1.2569,1.2451,1.2364,1.2322,1.2324,1.2878,1.2893,1.2693,1.2172,1.2443,1.2902,1.2957,1.303,1.3212,1.2966,1.3027,1.292,1.2959,1.3326,1.3372,1.3148,1.3622,1.4179,1.4272,1.4318,1.4332,1.4082,1.4147,1.4477,1.5303,1.4776,1.3779,1.3418,1.3552,1.4082,1.4799,1.4743,1.4846,1.565,1.5546,1.5478,1.5377,1.5686,1.5655,1.4914,1.4297,1.3807,1.3211,1.3381,1.3521,2.3144,2.3144,2.3144,2.3038,2.3008,2.3057,2.2842,2.249,2.2432,2.2217,2.1826,2.1396,2.1211,2.1152,2.0771,2.0576,2.0576,2.0576,2.0547,2.0498,2.0508,2.0283,1.9853,1.9453,1.9023,1.8555,1.8223,1.8037,1.7998,1.7607,1.7373,1.7295,1.6543,1.6145,1.5947,1.5625,1.542,1.541,1.5526,1.5806,1.6322,1.5688,1.5372,1.5543,1.467,1.4072,1.4048,1.4048,1.3527,1.2489,1.2296,1.1869,1.093,1.0821,1.1166,1.1765,1.2452,1.2881,1.2881,1.2783,1.2559,1.208,1.2403,1.2559,1.203,1.1769,1.1822,1.2228,1.1399,1.1445,1.2517,1.2593,1.1969,1.0512,1.1748,1.2636,1.2846,1.3304,1.3582,1.318,1.3058,1.2859,1.2871,1.2929,1.2928,1.279,1.2861,1.2987,1.3152,1.3515,1.3695,1.3627,1.3379,1.3062,1.3099,1.3398,1.3216,1.2977,1.3054,1.3226,1.3882,1.4479,1.472,1.496,1.504,1.4983,1.4789,1.4549,1.4215,1.3831,1.3836,1.3385,1.2994,1.2929,1.3065,2.3144,2.3144,2.3144,2.3144,2.3144,2.3144,2.3057,2.2891,2.2627,2.2432,2.2236,2.1836,2.1504,2.1211,2.1064,2.084,2.0586,2.0576,2.0576,2.0576,2.0576,2.0332,1.9932,1.9746,1.9307,1.8691,1.8486,1.8271,1.8008,1.7852,1.7646,1.7393,1.708,1.6713,1.6204,1.5908,1.5703,1.5508,1.5874,1.6255,1.6436,1.6265,1.6172,1.6242,1.5415,1.4824,1.4551,1.4145,1.3571,1.2896,1.1828,1.1051,1.0704,1.074,1.1107,1.1715,1.2049,1.2206,1.2138,1.1792,1.1683,1.1765,1.1625,1.1692,1.171,1.1541,1.1378,1.1233,1.121,1.1312,1.1249,1.1406,1.1166,1.0565,1.0951,1.1672,1.2025,1.2287,1.2784,1.4013,1.4062,1.3137,1.2202,1.2581,1.2724,1.1231,1.1198,1.1774,1.228,1.266,1.2817,1.2686,1.2735,1.291,1.289,1.2966,1.2918,1.2918,1.2986,1.2986,1.342,1.3573,1.3763,1.4233,1.4408,1.4269,1.3988,1.3662,1.3228,1.288,1.288,1.3065,1.2929,1.292,1.2891,2.3144,2.3144,2.3144,2.3144,2.3144,2.3144,2.3144,2.3105,2.2842,2.2725,2.2627,2.2275,2.1924,2.1621,2.1357,2.1084,2.0781,2.0644,2.0576,2.0576,2.0576,2.041,2.0146,1.998,1.9619,1.9072,1.874,1.8418,1.8057,1.8008,1.7852,1.7607,1.7461,1.709,1.6562,1.6357,1.6064,1.5822,1.6143,1.643,1.6457,1.6255,1.6265,1.6379,1.5748,1.5283,1.5,1.4525,1.3978,1.3257,1.1972,1.0909,1.0346,1.0562,1.0954,1.1268,1.1524,1.1556,1.1434,1.1065,1.0914,1.1107,1.0973,1.0998,1.1285,1.1331,1.12,1.1039,1.1165,1.1203,1.0842,1.1106,1.1186,1.0777,1.0594,1.0814,1.1274,1.1499,1.2817,1.4627,1.4835,1.3596,1.1999,1.2486,1.2028,1.0389,1.0531,1.098,1.166,1.1928,1.1957,1.1703,1.1913,1.2379,1.2685,1.2881,1.292,1.291,1.289,1.292,1.2832,1.2832,1.2978,1.345,1.3498,1.3364,1.3115,1.2782,1.2379,1.19,1.2138,1.2393,1.2548,1.293,1.29,2.3144,2.3144,2.3144,2.3144,2.3144,2.3144,2.3144,2.3135,2.3115,2.3076,2.3008,2.2685,2.2461,2.2295,2.168,2.1269,2.1113,2.0801,2.0615,2.0576,2.0576,2.0566,2.0488,2.0146,1.9893,1.9687,1.9004,1.8418,1.8027,1.8008,1.7978,1.792,1.7607,1.7383,1.7399,1.6904,1.6504,1.6174,1.6117,1.6227,1.6384,1.5806,1.5806,1.6265,1.5758,1.54,1.5371,1.5313,1.4821,1.391,1.2952,1.1655,1.0142,1.0336,1.0621,1.057,1.0939,1.1072,1.0845,1.0736,1.032,1.0272,1.0446,1.0717,1.0792,1.1234,1.1517,1.1325,1.147,1.1428,1.1157,1.202,1.2295,1.0968,1.0892,1.0961,1.085,1.1524,1.2895,1.4536,1.4848,1.4574,1.3293,1.2465,1.1809,1.1188,1.0805,1.081,1.1334,1.1636,1.1544,1.1397,1.1379,1.1554,1.2277,1.2889,1.288,1.292,1.2891,1.2881,1.2666,1.2608,1.2559,1.2842,1.2579,1.2393,1.237,1.195,1.0981,1.0615,1.1113,1.199,1.2548,1.289,1.29,2.3144,2.3144,2.3144,2.3144,2.3144,2.3144,2.3144,2.3144,2.3144,2.3144,2.3115,2.2998,2.2783,2.2519,2.2197,2.1787,2.125,2.1074,2.0869,2.0615,2.0576,2.0576,2.0537,2.043,2.0059,1.9482,1.8916,1.8418,1.8076,1.8008,1.8008,1.7969,1.7871,1.7656,1.7402,1.7227,1.6836,1.6213,1.6125,1.6029,1.574,1.5526,1.5526,1.569,1.5526,1.542,1.542,1.542,1.5226,1.4849,1.3415,1.1736,1.027,1.0351,1.0635,1.0587,1.0584,1.0593,1.0417,0.9851,0.9724,1.0045,1.0417,1.0901,1.1383,1.1913,1.2192,1.2137,1.2408,1.2421,1.244,1.2972,1.3128,1.2343,1.2228,1.1707,1.0843,1.094,1.1352,1.1943,1.2701,1.305,1.3058,1.2582,1.209,1.1041,1.0669,1.0781,1.1231,1.1702,1.2095,1.2021,1.1496,1.0937,1.1549,1.2382,1.291,1.2803,1.2725,1.2744,1.2529,1.2295,1.2286,1.2187,1.1873,1.1534,1.1453,1.0981,1.0097,1.029,1.1215,1.2017,1.2664,1.291,1.291,2.3144,2.3144,2.3144,2.3144,2.3144,2.3144,2.3144,2.3144,2.3144,2.3144,2.3144,2.3135,2.3008,2.2754,2.2588,2.2129,2.1504,2.1318,2.0996,2.0625,2.0576,2.0576,2.0576,2.0576,2.0117,1.9385,1.9014,1.8574,1.8027,1.8008,1.8008,1.8008,1.8008,1.7891,1.7637,1.7598,1.7236,1.6631,1.6406,1.6094,1.5713,1.5498,1.542,1.541,1.542,1.542,1.542,1.542,1.542,1.5138,1.3726,1.2024,1.0664,1.0656,1.0762,1.082,1.0406,1.0014,0.9838,0.939,0.9187,0.9857,1.0372,1.09,1.1712,1.2423,1.2963,1.2814,1.345,1.3648,1.3245,1.3872,1.4156,1.3914,1.3475,1.2653,1.1388,1.0739,1.0628,1.1016,1.1636,1.2089,1.2103,1.2749,1.2274,1.1017,1.0618,1.064,1.1081,1.1621,1.2126,1.2436,1.2049,1.152,1.0982,1.1718,1.2792,1.2735,1.2501,1.2548,1.2469,1.2157,1.1972,1.1972,1.1774,1.0856,1.0646,1.0253,0.964,1.0497,1.1633,1.2243,1.292,1.293,1.2891,2.3144,2.3144,2.3144,2.3144,2.3144,2.3144,2.3144,2.3144,2.3144,2.3144,2.3144,2.3144,2.3038,2.3037,2.2754,2.2324,2.1875,2.1494,2.1055,2.0684,2.0576,2.0576,2.0576,2.0576,2.0107,1.9385,1.9248,1.8809,1.8037,1.8008,1.8008,1.8008,1.8008,1.8008,1.7949,1.7988,1.7734,1.7275,1.6934,1.6543,1.6105,1.5684,1.5439,1.543,1.542,1.542,1.542,1.542,1.5352,1.5167,1.3879,1.2753,1.1866,1.1101,1.0911,1.1234,1.0303,0.9724,0.9339,0.9439,0.9391,0.9639,1.0602,1.118,1.1881,1.3113,1.3785,1.3451,1.4305,1.4582,1.3791,1.4141,1.4883,1.5079,1.4357,1.3308,1.1903,1.1024,1.0661,1.073,1.1435,1.1762,1.0947,1.1947,1.1807,1.1269,1.0877,1.1101,1.1148,1.1806,1.2473,1.2751,1.2905,1.252,1.213,1.1953,1.293,1.2803,1.2569,1.2419,1.2299,1.1936,1.1625,1.1625,1.1756,1.0731,1.0132,1.0039,1.0563,1.1769,1.2506,1.2821,1.289,1.29,1.2891,2.3144,2.3144,2.3144,2.3144,2.3144,2.3144,2.3144,2.3144,2.3144,2.3144,2.3144,2.3144,2.3144,2.3125,2.3008,2.2588,2.1982,2.1738,2.1269,2.0664,2.0576,2.0576,2.0576,2.0557,2.0127,1.9404,1.9268,1.8838,1.8066,1.8008,1.8008,1.8008,1.8008,1.8008,1.8008,1.8008,1.7783,1.7441,1.7295,1.6826,1.6253,1.5967,1.5732,1.5439,1.542,1.542,1.542,1.542,1.505,1.4569,1.4154,1.3545,1.2696,1.1896,1.1534,1.1448,1.0547,0.9724,0.9717,0.9973,1.0276,1.0546,1.1728,1.2811,1.3407,1.4344,1.4828,1.4746,1.4746,1.4597,1.4524,1.3992,1.3881,1.4219,1.4439,1.3665,1.168,1.0746,1.0618,1.0618,1.0877,1.087,1.0877,1.094,1.1387,1.149,1.1909,1.2173,1.2081,1.2562,1.3492,1.4034,1.4223,1.3768,1.341,1.2995,1.2881,1.2861,1.2675,1.2426,1.2118,1.1731,1.1368,1.1141,1.1882,1.1338,1.1031,1.0789,1.1895,1.2801,1.2871,1.293,1.292,1.2891,1.2891,2.3144,2.3144,2.3144,2.3144,2.3144,2.3144,2.3144,2.3144,2.3144,2.3144,2.3144,2.3144,2.3144,2.3125,2.2939,2.2519,2.1924,2.1689,2.1221,2.0684,2.0576,2.0576,2.0576,2.0557,2.0215,1.96,1.9365,1.8916,1.835,1.8096,1.8018,1.8008,1.8008,1.8008,1.8008,1.7998,1.791,1.7656,1.748,1.709,1.6723,1.6292,1.5957,1.5674,1.5537,1.542,1.542,1.542,1.505,1.4392,1.4154,1.3965,1.3485,1.2757,1.232,1.2243,1.1405,1.0785,1.0581,1.0986,1.1439,1.1816,1.2911,1.3664,1.42,1.4932,1.542,1.5294,1.4932,1.4638,1.4085,1.297,1.2926,1.413,1.3873,1.285,1.1319,1.0899,1.0618,1.0618,1.0618,1.0618,1.0618,1.064,1.1073,1.1934,1.326,1.3255,1.3164,1.3837,1.4231,1.4436,1.4542,1.4008,1.3555,1.3145,1.293,1.29,1.2842,1.2544,1.2218,1.184,1.1872,1.1828,1.2107,1.2187,1.1873,1.1765,1.2264,1.2822,1.29,1.29,1.2891,1.2891,1.2891,2.3144,2.3144,2.3144,2.3144,2.3144,2.3144,2.3144,2.3144,2.3144,2.3144,2.3144,2.3144,2.3144,2.3105,2.2754,2.2295,2.1865,2.1484,2.1025,2.0693,2.0576,2.0576,2.0576,2.0576,2.0293,1.9844,1.9473,1.9043,1.8574,1.8193,1.8018,1.8008,1.8008,1.8008,1.8008,1.8008,1.8008,1.792,1.7666,1.7432,1.7168,1.6723,1.626,1.6007,1.5586,1.543,1.542,1.5362,1.5118,1.4392,1.4332,1.4382,1.4213,1.3545,1.3183,1.3003,1.2595,1.2014,1.1737,1.2149,1.2655,1.283,1.3708,1.4323,1.4569,1.5059,1.542,1.542,1.5352,1.4455,1.3416,1.1896,1.2562,1.3972,1.2494,1.1928,1.1943,1.1582,1.1017,1.0674,1.0724,1.094,1.0822,1.076,1.1084,1.2634,1.3683,1.3536,1.3408,1.3525,1.3805,1.3955,1.3985,1.3969,1.3516,1.3105,1.2969,1.2891,1.29,1.2733,1.2487,1.232,1.2645,1.2783,1.2637,1.2618,1.2618,1.2725,1.2832,1.2832,1.2891,1.2891,1.2891,1.2891,1.2891,2.3144,2.3144,2.3144,2.3144,2.3144,2.3144,2.3144,2.3144,2.3144,2.3144,2.3144,2.3144,2.3144,2.3028,2.2676,2.2285,2.1855,2.1406,2.0996,2.0615,2.0576,2.0576,2.0576,2.0576,2.0322,1.9932,1.9502,1.9072,1.8652,1.8271,1.8008,1.8008,1.8008,1.8008,1.8008,1.8008,1.8008,1.7988,1.79,1.7686,1.7451,1.7187,1.6699,1.6184,1.5644,1.5439,1.542,1.542,1.5294,1.5177,1.5118,1.505,1.4932,1.4392,1.3974,1.3716,1.3109,1.2605,1.2539,1.3079,1.3522,1.3651,1.4406,1.5167,1.5177,1.5235,1.542,1.5294,1.4815,1.4186,1.3374,1.3941,1.3846,1.3554,1.3837,1.3899,1.3692,1.3856,1.2956,1.1727,1.2074,1.2944,1.2493,1.1265,1.1829,1.327,1.3708,1.3647,1.3508,1.336,1.3307,1.3366,1.3879,1.3799,1.3099,1.29,1.2959,1.2891,1.293,1.291,1.2665,1.2607,1.2842,1.293,1.2891,1.2891,1.2891,1.2891,1.2881,1.2891,1.2891,1.2891,1.2891,1.2891,1.2891,2.3144,2.3144,2.3144,2.3144,2.3144,2.3144,2.3144,2.3144,2.3144,2.3144,2.3144,2.3144,2.3144,2.3076,2.2519,2.207,2.1768,2.1201,2.0801,2.0596,2.0576,2.0576,2.0576,2.0566,2.041,2.0127,1.957,1.916,1.8848,1.8359,1.8008,1.8008,1.8008,1.8008,1.8008,1.8008,1.8008,1.8008,1.8008,1.7881,1.7705,1.7461,1.6963,1.6223,1.5664,1.542,1.542,1.542,1.542,1.542,1.542,1.542,1.5352,1.4982,1.4628,1.4159,1.4168,1.3673,1.3673,1.4023,1.4562,1.4544,1.5119,1.5313,1.542,1.542,1.542,1.5352,1.505,1.456,1.4222,1.4689,1.4583,1.43,1.4671,1.5072,1.4708,1.4463,1.3926,1.2549,1.3058,1.3761,1.3476,1.2458,1.2192,1.3408,1.4305,1.4232,1.326,1.3061,1.2703,1.2878,1.3633,1.3652,1.2817,1.2588,1.292,1.2891,1.29,1.291,1.2793,1.2812,1.289,1.291,1.2891,1.2891,1.2891,1.2891,1.2891,1.2891,1.2891,1.2891,1.2881,1.2881,1.2881,2.3144,2.3144,2.3144,2.3144,2.3144,2.3144,2.3144,2.3144,2.3144,2.3144,2.3144,2.3144,2.3144,2.2978,2.2383,2.1982,2.1572,2.1035,2.0596,2.0586,2.0576,2.0576,2.0576,2.0557,2.0537,2.0459,1.9805,1.9404,1.9072,1.8535,1.8135,1.8037,1.8008,1.8008,1.8008,1.8008,1.8008,1.8008,1.8008,1.7998,1.793,1.7646,1.709,1.6318,1.5674,1.5439,1.542,1.542,1.542,1.542,1.542,1.542,1.542,1.5352,1.5167,1.4451,1.4885,1.4808,1.4554,1.4885,1.5313,1.542,1.541,1.541,1.542,1.542,1.542,1.542,1.5294,1.5294,1.5381,1.5369,1.5407,1.5263,1.537,1.5429,1.5166,1.4145,1.383,1.3934,1.4105,1.4501,1.457,1.4007,1.3631,1.3434,1.4269,1.4443,1.3397,1.2579,1.2049,1.1523,1.2026,1.1954,1.1206,1.2026,1.2342,1.2403,1.251,1.2735,1.2783,1.2842,1.2861,1.29,1.2891,1.2891,1.2891,1.2891,1.2891,1.2891,1.2832,1.2774,1.2774,1.2813,1.2822,2.3144,2.3144,2.3144,2.3144,2.3144,2.3144,2.3144,2.3144,2.3144,2.3144,2.3144,2.3144,2.3144,2.2988,2.2646,2.2031,2.1348,2.0791,2.0576,2.0576,2.0576,2.0576,2.0576,2.0576,2.0576,2.0449,2.0039,1.9668,1.9248,1.8789,1.8311,1.8076,1.8008,1.8008,1.8008,1.8008,1.8008,1.794,1.794,1.7862,1.7823,1.7533,1.7129,1.6302,1.5549,1.5312,1.5303,1.5352,1.542,1.542,1.542,1.542,1.542,1.542,1.5294,1.5225,1.5235,1.5294,1.5177,1.5235,1.542,1.542,1.542,1.542,1.542,1.542,1.542,1.542,1.542,1.542,1.542,1.5263,1.5361,1.5371,1.5254,1.5215,1.5118,1.4883,1.4597,1.4643,1.4871,1.493,1.4703,1.4455,1.3906,1.3168,1.3057,1.3108,1.2307,1.1561,1.097,1.0434,1.0001,0.9717,0.9241,1.0722,1.1604,1.1525,1.1665,1.2274,1.2421,1.2666,1.2774,1.2881,1.2891,1.2891,1.2891,1.2891,1.2891,1.2891,1.2774,1.2657,1.2657,1.2657,1.2598,2.3144,2.3144,2.3144,2.3144,2.3144,2.3144,2.3144,2.3144,2.3144,2.3144,2.3144,2.3144,2.3144,2.2978,2.2441,2.1709,2.1016,2.0703,2.0576,2.0576,2.0576,2.0576,2.0576,2.0576,2.0576,2.0518,2.0322,1.9883,1.9297,1.8838,1.8428,1.8105,1.8008,1.8008,1.8008,1.8008,1.8008,1.794,1.7579,1.7285,1.7179,1.6697,1.5878,1.5357,1.4862,1.4569,1.4765,1.4815,1.4991,1.5294,1.542,1.542,1.542,1.542,1.542,1.542,1.542,1.542,1.542,1.542,1.542,1.542,1.542,1.542,1.542,1.542,1.542,1.542,1.542,1.542,1.542,1.4972,1.4505,1.4232,1.4209,1.4118,1.399,1.4291,1.4506,1.4497,1.404,1.3939,1.4372,1.4096,1.3846,1.3159,1.2292,1.1755,1.1341,1.0981,1.0608,1.0201,0.9868,0.9418,0.9095,0.9877,1.0981,1.0906,1.1015,1.1657,1.2215,1.251,1.2774,1.2881,1.2891,1.2891,1.2881,1.2881,1.2881,1.2881,1.2822,1.2715,1.255,1.2491,1.2442,2.3144,2.3144,2.3144,2.3144,2.3144,2.3144,2.3144,2.3144,2.3144,2.3144,2.3144,2.3135,2.3086,2.2803,2.2148,2.1357,2.0684,2.0654,2.0576,2.0576,2.0576,2.0576,2.0576,2.0576,2.0576,2.0566,2.0527,2.0117,1.9375,1.8975,1.8516,1.8135,1.8008,1.8008,1.8008,1.8008,1.8008,1.7716,1.706,1.6567,1.6052,1.5154,1.4435,1.4164,1.372,1.3692,1.4039,1.4249,1.4579,1.4991,1.5294,1.542,1.542,1.542,1.542,1.542,1.542,1.542,1.542,1.542,1.542,1.542,1.542,1.542,1.542,1.542,1.542,1.542,1.542,1.542,1.5284,1.4319,1.3356,1.2753,1.2792,1.2923,1.2813,1.2959,1.3415,1.3235,1.2877,1.2953,1.3312,1.3502,1.3124,1.2874,1.2012,1.1608,1.1218,1.1114,1.0806,1.0425,1.0066,0.9665,0.9418,0.9413,1.0272,1.0586,1.0831,1.1271,1.1895,1.2403,1.2666,1.2891,1.2891,1.2891,1.2881,1.2764,1.2657,1.2657,1.2822,1.2842,1.2724,1.2637,1.2608,2.3144,2.3144,2.3144,2.3144,2.3144,2.3144,2.3144,2.3144,2.3144,2.3144,2.3144,2.3115,2.2939,2.2451,2.1719,2.1279,2.1035,2.0742,2.0576,2.0576,2.0576,2.0576,2.0576,2.0576,2.0576,2.0576,2.0576,2.0068,1.9492,1.9228,1.874,1.8174,1.8008,1.8008,1.8008,1.8008,1.8008,1.7862,1.7001,1.6149,1.5325,1.4686,1.4368,1.4109,1.3712,1.3291,1.3468,1.3813,1.4258,1.4451,1.505,1.5352,1.542,1.542,1.542,1.542,1.542,1.542,1.542,1.542,1.542,1.542,1.542,1.542,1.542,1.542,1.542,1.542,1.543,1.542,1.5157,1.4037,1.2576,1.203,1.2019,1.2303,1.231,1.1966,1.2343,1.222,1.1882,1.1974,1.2257,1.2371,1.2417,1.2181,1.189,1.1443,1.1121,1.0991,1.0939,1.0565,1.0251,0.9869,0.9569,0.9585,1.0045,1.0431,1.0965,1.1262,1.1711,1.2344,1.2725,1.2891,1.2891,1.2666,1.2403,1.2286,1.2335,1.2461,1.2705,1.2821,1.2879,1.2812,1.2725,2.3144,2.3144,2.3144,2.3144,2.3144,2.3144,2.3144,2.3144,2.3144,2.3144,2.3144,2.3135,2.2783,2.2119,2.1484,2.1094,2.0869,2.0654,2.0576,2.0576,2.0576,2.0576,2.0576,2.0576,2.0576,2.0576,2.0518,2.0283,1.9746,1.9316,1.8857,1.8154,1.8008,1.8008,1.8008,1.8008,1.8008,1.7467,1.6237,1.4697,1.3852,1.3373,1.3219,1.305,1.2748,1.2646,1.2891,1.3421,1.3918,1.4225,1.4932,1.541,1.542,1.542,1.542,1.542,1.542,1.542,1.542,1.542,1.542,1.542,1.542,1.542,1.542,1.5352,1.5352,1.542,1.54,1.539,1.5166,1.4225,1.2542,1.1616,1.1409,1.1428,1.148,1.137,1.1274,1.108,1.1017,1.1301,1.1465,1.1472,1.1611,1.1432,1.1253,1.1036,1.0863,1.076,1.0711,1.0643,1.0375,1.0082,0.9812,0.9653,1.0295,1.0881,1.1899,1.2094,1.1913,1.2246,1.2666,1.2881,1.2891,1.251,1.1972,1.2166,1.2558,1.2635,1.2654,1.2733,1.2841,1.29,1.2774,2.3144,2.3144,2.3144,2.3144,2.3144,2.3144,2.3144,2.3144,2.3144,2.3144,2.3066,2.2891,2.2373,2.1758,2.126,2.0859,2.0596,2.0576,2.0576,2.0576,2.0576,2.0576,2.0576,2.0576,2.0576,2.0576,2.0576,2.0303,1.9902,1.9463,1.8906,1.8184,1.8057,1.8018,1.8008,1.794,1.7773,1.6851,1.5152,1.3667,1.2673,1.2445,1.2317,1.2103,1.1935,1.1929,1.2188,1.2732,1.3347,1.397,1.4616,1.5059,1.5352,1.542,1.542,1.542,1.542,1.542,1.542,1.542,1.542,1.542,1.5352,1.5294,1.505,1.5108,1.4923,1.4688,1.5279,1.5153,1.4743,1.3926,1.2631,1.1355,1.0753,1.0649,1.0654,1.0836,1.0905,1.0787,1.0856,1.1052,1.1101,1.0793,1.0737,1.0681,1.0618,1.0618,1.0618,1.0618,1.0584,1.0593,1.0527,1.0797,1.1831,1.1455,1.1535,1.1331,1.2369,1.2731,1.2469,1.2412,1.2666,1.2774,1.2676,1.2147,1.1466,1.2153,1.2733,1.2147,1.1769,1.244,1.2724,1.2852,1.2881,2.3144,2.3144,2.3144,2.3144,2.3144,2.3144,2.3144,2.3144,2.3144,2.3115,2.2978,2.2373,2.1816,2.1309,2.0937,2.0654,2.0576,2.0576,2.0576,2.0576,2.0576,2.0576,2.0576,2.0576,2.0576,2.0576,2.0566,2.0332,1.9932,1.9521,1.9053,1.8613,1.8203,1.8057,1.794,1.7745,1.695,1.5885,1.4279,1.3264,1.2546,1.2305,1.2278,1.2211,1.2024,1.1901,1.1905,1.2327,1.2844,1.358,1.4205,1.4834,1.5313,1.542,1.542,1.542,1.542,1.542,1.542,1.541,1.5342,1.541,1.5294,1.4932,1.4392,1.4273,1.3965,1.3623,1.43,1.4385,1.3761,1.2899,1.1966,1.1394,1.0842,1.1071,1.1066,1.0905,1.0905,1.0674,1.0807,1.1052,1.0968,1.0773,1.0912,1.0912,1.0618,1.0618,1.0618,1.0618,1.0604,1.0557,1.0594,1.1722,1.4412,1.4402,1.3469,1.2679,1.2921,1.3024,1.2871,1.2832,1.251,1.2197,1.199,1.1475,1.1166,1.1719,1.1841,1.1045,1.1028,1.2166,1.2734,1.2842,1.2891,2.3144,2.3144,2.3144,2.3144,2.3144,2.3144,2.3144,2.3144,2.3135,2.2978,2.2715,2.2139,2.165,2.1201,2.0791,2.0576,2.0576,2.0576,2.0576,2.0576,2.0576,2.0576,2.0576,2.0576,2.0576,2.0576,2.0557,2.0527,2.0303,1.9619,1.9297,1.8887,1.832,1.8086,1.7872,1.7342,1.6272,1.5251,1.3783,1.2633,1.2472,1.2305,1.2305,1.2285,1.2238,1.2024,1.1999,1.2484,1.2935,1.3444,1.4117,1.4708,1.5293,1.5381,1.542,1.542,1.542,1.542,1.542,1.5352,1.5167,1.4678,1.4628,1.4323,1.3606,1.3485,1.3364,1.3241,1.3186,1.3075,1.3199,1.2135,1.1193,1.1024,1.1167,1.1552,1.1658,1.1564,1.1253,1.1197,1.1149,1.1288,1.1073,1.0801,1.1066,1.1267,1.0912,1.0618,1.0618,1.0667,1.071,1.0843,1.0877,1.2173,1.4784,1.5031,1.4944,1.4267,1.3468,1.3309,1.3085,1.2342,1.203,1.1674,1.1466,1.1166,1.1065,1.1325,1.1349,1.1314,1.1733,1.2494,1.2791,1.29,1.2891,2.3144,2.3144,2.3144,2.3144,2.3144,2.3144,2.3144,2.3144,2.3144,2.2812,2.2314,2.1992,2.1787,2.1382,2.082,2.0867,2.0934,2.0789,2.0644,2.0576,2.0576,2.0576,2.0576,2.0576,2.0576,2.0576,2.0557,2.0518,2.0244,1.9609,1.9219,1.8848,1.8418,1.8086,1.7745,1.6857,1.6008,1.5242,1.4163,1.2952,1.2886,1.2732,1.2445,1.2378,1.2278,1.2204,1.2175,1.2424,1.3013,1.3589,1.4187,1.4735,1.5248,1.5508,1.543,1.542,1.542,1.542,1.542,1.5352,1.505,1.4451,1.4273,1.3726,1.294,1.2634,1.2512,1.2151,1.1934,1.1903,1.2342,1.1598,1.2149,1.251,1.2271,1.2504,1.2525,1.2464,1.202,1.1705,1.1735,1.1655,1.1888,1.1611,1.1348,1.1556,1.1329,1.0912,1.0681,1.078,1.0927,1.1105,1.125,1.2918,1.4809,1.4888,1.4988,1.4795,1.4119,1.3603,1.3179,1.2451,1.1891,1.1715,1.1466,1.1065,1.0788,1.0697,1.136,1.2154,1.2482,1.2761,1.2821,1.2891,1.2891,2.3144,2.3144,2.3144,2.3144,2.3144,2.3144,2.3135,2.3057,2.3104,2.2758,2.2254,2.2135,2.2069,2.1886,2.1318,2.1385,2.1527,2.1078,2.0712,2.0644,2.0576,2.0576,2.0576,2.0576,2.0576,2.0576,2.0547,2.0381,1.998,1.9521,1.9121,1.8621,1.8143,1.7862,1.7862,1.707,1.6567,1.6349,1.5438,1.445,1.3882,1.3665,1.331,1.2945,1.2806,1.2823,1.2905,1.2749,1.3446,1.4379,1.4061,1.4702,1.5872,1.5556,1.5459,1.5488,1.5439,1.542,1.542,1.542,1.4991,1.4332,1.4154,1.3606,1.2381,1.1888,1.1958,1.1911,1.1288,1.094,1.1138,1.1684,1.2945,1.3828,1.3588,1.3502,1.358,1.3554,1.3176,1.2464,1.212,1.2081,1.2512,1.2618,1.2028,1.1781,1.1611,1.1329,1.0856,1.0856,1.1003,1.1658,1.1943,1.3245,1.4771,1.4994,1.5041,1.4954,1.4528,1.3854,1.3323,1.2786,1.2308,1.19,1.1466,1.1023,1.0436,0.9903,1.1057,1.2218,1.2635,1.2861,1.2891,1.2891,1.2891,2.3144,2.3144,2.3144,2.3144,2.3144,2.3144,2.2988,2.2781,2.3036,2.3306,2.346,2.3442,2.3197,2.2928,2.2627,2.2339,2.1962,2.1811,2.1375,2.0644,2.0644,2.0576,2.0576,2.0576,2.0576,2.0566,2.0527,2.0312,1.9922,1.937,1.8971,1.8562,1.7562,1.7451,1.7569,1.7139,1.6567,1.6428,1.572,1.495,1.4736,1.4665,1.4522,1.4163,1.4091,1.4019,1.4019,1.3851,1.4369,1.518,1.4754,1.5178,1.6061,1.5879,1.5547,1.5635,1.5644,1.542,1.542,1.5352,1.505,1.451,1.4094,1.3726,1.2757,1.2573,1.2397,1.2135,1.1735,1.137,1.1024,1.204,1.3331,1.4643,1.4758,1.4784,1.4787,1.4728,1.4433,1.3433,1.285,1.1912,1.1889,1.2435,1.2112,1.2128,1.2089,1.1329,1.078,1.087,1.1052,1.2135,1.285,1.3865,1.4684,1.4887,1.4927,1.4773,1.4267,1.3556,1.3161,1.2989,1.2494,1.1999,1.1484,1.0965,1.0814,1.0831,1.1399,1.2184,1.2637,1.2881,1.2881,1.2891,1.2891,2.3144,2.3135,2.356,2.3537,2.3352,2.2997,2.2837,2.2832,2.3124,2.3613,2.4039,2.4189,2.4145,2.3954,2.3599,2.3672,2.2925,2.2188,2.1886,2.1001,2.0712,2.0644,2.0576,2.0576,2.0576,2.0527,2.0342,2.0098,1.9564,1.8883,1.8075,1.7177,1.6562,1.6742,1.7001,1.6844,1.6853,1.6853,1.6585,1.6149,1.5869,1.5658,1.5446,1.5163,1.5092,1.5092,1.5163,1.5334,1.5477,1.5819,1.5803,1.5827,1.6153,1.6035,1.5625,1.5654,1.5625,1.542,1.542,1.542,1.5108,1.4746,1.4392,1.3786,1.3122,1.2757,1.2818,1.2671,1.2668,1.2269,1.1873,1.2957,1.3791,1.5105,1.54,1.5362,1.5284,1.5225,1.5107,1.4165,1.3189,1.2166,1.1229,1.172,1.195,1.2236,1.2514,1.1608,1.0829,1.0919,1.0989,1.174,1.2846,1.3726,1.4385,1.4763,1.4743,1.4563,1.4079,1.3543,1.3459,1.3401,1.2733,1.2215,1.2008,1.185,1.1783,1.194,1.2215,1.248,1.2744,1.2891,1.2891,1.2891,1.2891,2.3222,2.3387,2.4351,2.4525,2.395,2.3116,2.299,2.3381,2.3419,2.3762,2.4371,2.4476,2.4669,2.4849,2.4108,2.4036,2.4192,2.2776,2.2038,2.1517,2.0857,2.0722,2.0576,2.0576,2.0498,2.0371,1.9994,1.9401,1.9049,1.7796,1.6527,1.5501,1.5196,1.5429,1.5773,1.6271,1.6784,1.7364,1.7579,1.7079,1.6784,1.6636,1.6289,1.6009,1.5799,1.5728,1.5728,1.5781,1.6131,1.6201,1.596,1.6159,1.6153,1.5889,1.5586,1.542,1.543,1.542,1.542,1.542,1.542,1.5108,1.4688,1.3914,1.3485,1.3235,1.3416,1.3468,1.3477,1.3348,1.3297,1.3773,1.4319,1.4942,1.5381,1.541,1.541,1.5391,1.5351,1.4708,1.3605,1.2552,1.121,1.1224,1.1586,1.1542,1.168,1.1487,1.0857,1.1087,1.108,1.0857,1.202,1.3291,1.3761,1.3683,1.4036,1.3705,1.4145,1.3866,1.3834,1.3594,1.2957,1.2544,1.2763,1.2725,1.2412,1.2461,1.2725,1.2891,1.29,1.2891,1.2891,1.2891,1.2881,2.5484,2.5525,2.5426,2.5278,2.5,2.4119,2.4128,2.4812,2.4642,2.4964,2.58,2.58,2.581,2.6025,2.5721,2.4981,2.4108,2.3231,2.2113,2.1451,2.0857,2.0722,2.0576,2.0547,2.0381,1.9918,1.9345,1.8602,1.7624,1.6455,1.4792,1.3418,1.3867,1.3996,1.4339,1.4917,1.6428,1.7579,1.793,1.7784,1.7569,1.7501,1.7217,1.701,1.6941,1.6941,1.6941,1.701,1.7295,1.729,1.6693,1.6645,1.699,1.6123,1.542,1.542,1.542,1.542,1.542,1.542,1.542,1.542,1.5108,1.505,1.4688,1.4442,1.4323,1.4305,1.4355,1.43,1.4282,1.4632,1.4904,1.5099,1.542,1.542,1.5352,1.505,1.5077,1.455,1.3498,1.2081,1.0801,1.0746,1.1024,1.0829,1.0733,1.0753,1.0836,1.1003,1.108,1.0795,1.103,1.2166,1.1927,1.1774,1.2393,1.2854,1.3506,1.3947,1.3789,1.3456,1.3004,1.2838,1.289,1.2891,1.2832,1.2891,1.2891,1.2891,1.2891,1.2891,1.2891,1.2891,1.2891,2.636,2.6147,2.6246,2.6297,2.613,2.5433,2.5468,2.578,2.5278,2.5581,2.6452,2.6465,2.6521,2.6452,2.6314,2.5873,2.4838,2.3806,2.285,2.2188,2.0867,2.0644,2.0576,2.0518,2.0072,1.9402,1.8581,1.7784,1.6538,1.5217,1.3715,1.2558,1.2945,1.3004,1.3426,1.4649,1.593,1.707,1.7716,1.793,1.8008,1.8008,1.8008,1.8008,1.8008,1.8008,1.8008,1.8008,1.8008,1.7949,1.7275,1.6992,1.7031,1.6045,1.543,1.542,1.542,1.542,1.542,1.542,1.542,1.542,1.542,1.5352,1.5352,1.5108,1.5167,1.5167,1.5294,1.5352,1.5352,1.541,1.541,1.542,1.542,1.542,1.5089,1.47,1.4345,1.3979,1.2827,1.1346,1.0611,1.0618,1.0611,1.0634,1.0613,1.0627,1.0634,1.071,1.0793,1.0654,1.062,1.0989,1.0628,1.0871,1.1867,1.2764,1.344,1.3756,1.367,1.3504,1.3173,1.2995,1.291,1.2891,1.2891,1.2891,1.2891,1.2891,1.2891,1.2891,1.2891,1.2891,1.2881,2.6323,2.5961,2.6882,2.7136,2.7147,2.6552,2.6421,2.6383,2.5594,2.5664,2.6383,2.6521,2.6521,2.6521,2.6452,2.6314,2.5288,2.4169,2.322,2.322,2.1385,2.0615,2.0449,2.0459,1.9583,1.8674,1.7658,1.6659,1.543,1.4179,1.3084,1.2218,1.2372,1.2505,1.2917,1.4434,1.5649,1.6367,1.7432,1.8008,1.8008,1.8008,1.8008,1.8008,1.8008,1.8008,1.8008,1.8008,1.8008,1.7871,1.7598,1.7168,1.6523,1.5937,1.5537,1.542,1.542,1.542,1.542,1.542,1.542,1.542,1.542,1.542,1.542,1.542,1.542,1.542,1.542,1.542,1.542,1.5352,1.5284,1.5148,1.5012,1.5176,1.5281,1.4396,1.3114,1.2763,1.2157,1.0821,1.0618,1.0618,1.0618,1.0604,1.0604,1.0611,1.0674,1.0674,1.0674,1.0681,1.0591,1.0696,1.0989,1.1303,1.1996,1.281,1.3476,1.3856,1.3978,1.3782,1.3455,1.3193,1.2891,1.2891,1.2891,1.2891,1.2891,1.2891,1.2891,1.2891,1.2891,1.2891,1.2891,2.7641,2.747,2.7372,2.7042,2.6678,2.6584,2.6452,2.6452,2.6245,2.6245,2.6452,2.6452,2.6521,2.6521,2.6521,2.6245,2.5288,2.4397,2.3147,2.2371,2.1181,2.0426,2.0117,2.0049,1.9042,1.7705,1.6551,1.5225,1.3793,1.2847,1.2285,1.1465,1.1916,1.2505,1.2398,1.406,1.5587,1.6009,1.7217,1.794,1.8008,1.8008,1.8008,1.8008,1.8008,1.8008,1.8008,1.8008,1.8008,1.793,1.7588,1.7002,1.626,1.5713,1.5459,1.542,1.542,1.542,1.542,1.542,1.542,1.542,1.542,1.542,1.542,1.542,1.542,1.542,1.542,1.542,1.541,1.5284,1.5148,1.4876,1.44,1.4781,1.5166,1.3657,1.1981,1.1593,1.1206,1.0954,1.0688,1.0618,1.0618,1.0618,1.0618,1.0618,1.0793,1.0919,1.0919,1.0863,1.0674,1.0737,1.108,1.2165,1.3059,1.3214,1.3691,1.3996,1.4269,1.3733,1.3202,1.3085,1.2891,1.293,1.2939,1.2891,1.2891,1.2891,1.2891,1.2891,1.2891,1.2891,1.2891,2.7959,2.7682,2.7143,2.6753,2.6559,2.6521,2.6245,2.5955,2.6314,2.5943,2.5429,2.6013,2.6452,2.6452,2.6521,2.6302,2.5499,2.4624,2.3636,2.2453,2.1254,2.0412,2.0019,1.9545,1.8193,1.6835,1.4943,1.3462,1.2606,1.2372,1.2063,1.205,1.2645,1.2858,1.283,1.4712,1.5799,1.5939,1.7295,1.7872,1.8008,1.8008,1.8008,1.8008,1.8008,1.8008,1.8008,1.8008,1.8008,1.7803,1.7412,1.7002,1.6348,1.5781,1.5469,1.542,1.542,1.542,1.542,1.542,1.542,1.542,1.542,1.542,1.542,1.542,1.542,1.542,1.542,1.542,1.542,1.5352,1.5274,1.508,1.3423,1.2549,1.2651,1.1951,1.121,1.1108,1.0891,1.0758,1.0618,1.0618,1.0618,1.0618,1.0618,1.0618,1.08,1.1101,1.1108,1.1288,1.1156,1.0822,1.0822,1.2498,1.4513,1.4448,1.407,1.4227,1.4378,1.3531,1.295,1.3101,1.3125,1.3047,1.3037,1.293,1.2891,1.2891,1.2891,1.2891,1.2891,1.2891,1.2891,2.7582,2.713,2.6666,2.6521,2.6521,2.6521,2.5955,2.53,2.5873,2.5276,2.3952,2.5346,2.6094,2.6314,2.6452,2.6521,2.5951,2.4649,2.3695,2.2778,2.1459,2.0285,1.9482,1.9088,1.7796,1.6199,1.4333,1.3594,1.3018,1.3084,1.3375,1.381,1.4027,1.4307,1.5226,1.6,1.6498,1.6645,1.7354,1.793,1.8008,1.8008,1.8008,1.8008,1.8008,1.8008,1.8008,1.8008,1.8008,1.7695,1.7275,1.6885,1.6436,1.5879,1.5547,1.542,1.542,1.542,1.542,1.542,1.542,1.542,1.542,1.542,1.542,1.542,1.542,1.542,1.542,1.542,1.542,1.541,1.5342,1.4836,1.2839,1.1001,1.0887,1.0815,1.0843,1.0807,1.0751,1.0681,1.0618,1.0618,1.0618,1.0618,1.0618,1.0618,1.0681,1.1045,1.1226,1.171,1.2074,1.1645,1.1297,1.2813,1.526,1.5147,1.4715,1.4659,1.446,1.3806,1.347,1.3449,1.3477,1.3203,1.3027,1.291,1.2891,1.2891,1.2891,1.2891,1.2891,1.2891,1.2891,2.6703,2.6672,2.6571,2.6521,2.6521,2.6452,2.5943,2.5075,2.5146,2.4552,2.3734,2.3734,2.448,2.5358,2.6164,2.6402,2.6034,2.4646,2.3605,2.2726,2.1304,1.9839,1.8867,1.8589,1.7746,1.636,1.5062,1.4752,1.4091,1.4307,1.4665,1.4879,1.4879,1.5084,1.5305,1.6079,1.6775,1.707,1.7432,1.8008,1.8008,1.8008,1.8008,1.8008,1.8008,1.8008,1.8008,1.8008,1.8008,1.7754,1.7246,1.6782,1.6364,1.5877,1.5537,1.542,1.542,1.542,1.542,1.542,1.542,1.542,1.542,1.542,1.542,1.542,1.542,1.542,1.542,1.542,1.542,1.542,1.5294,1.4569,1.31,1.1806,1.1102,1.1098,1.1155,1.1094,1.094,1.087,1.0807,1.0737,1.0604,1.0611,1.0618,1.0618,1.0618,1.0982,1.1281,1.1943,1.261,1.307,1.2967,1.3717,1.5377,1.535,1.5274,1.4964,1.4651,1.4262,1.4,1.3975,1.3545,1.3154,1.3008,1.289,1.291,1.291,1.2891,1.2891,1.2891,1.2891,1.2891]},{"header":{"parameterUnit":"m.s-1","parameterCategory":1,"la1":31.0,"la2":29.5877,"lo1":-88.7671,"lo2":-86.6584,"dy":0.0162,"dx":0.0185,"nx":115,"ny":88,"refTime":"2024-07-30T12:00:00:Z","depth":0,"parameterNumber":3,"parameterNumberName":"V-component_of_WINDS"},"data":[0.0,0.0,0.0,0.0,0.0,0.0,0.0,0.0,0.0,0.0,0.0,0.0,0.0,0.0,0.0,0.0,0.0,0.0,0.0,0.0,0.0,0.0,0.0,0.0,0.0,0.0,0.0,0.0,0.0,0.0,0.0,0.0,0.0,0.0,0.0,0.0,0.0,0.0,0.0,0.0,0.0,0.0,0.0,0.0,0.0,0.0,0.0,0.0,0.0,0.0,0.0,0.0,0.0,0.0,0.0,0.0,0.0,0.0,0.0,0.0,0.0,0.0,0.0,0.0,0.0,0.0,0.0,0.0,0.0,0.0,0.0,0.0,0.0,0.0,0.0,0.0,0.0,0.0,0.0,0.0,0.0,0.0,0.0,0.0,0.0,0.0,0.0,0.0,0.0,0.0,0.0,0.0,0.0,0.0,0.0,0.0,0.0,0.0,0.0,0.0,0.0,0.0,0.0,0.0,0.0,0.0,0.0,0.0,0.0,0.0,0.0,0.0,0.0,0.0,0.0,0.0,0.0,0.0,0.0,0.0,0.0,0.0,0.0,0.0,0.0,0.0,0.0,0.0,0.0,0.0,0.0,0.0,0.0,0.0,0.0,0.0,0.0,0.0,0.0,0.0,0.0,0.0,0.0,0.0,0.0,0.0,0.0,0.0,0.0,0.0,0.0,0.0,0.0,0.0,0.0,0.0,0.0,0.0,0.0,0.0,0.0,0.0,0.0,0.0,0.0,0.0,0.0,0.0,0.0,0.0,0.0,0.0,0.0,0.0,0.0,0.0,0.0,0.0,0.0,0.0,0.0,0.0,0.0,0.0,0.0,0.0,0.0,0.0,0.0,0.0,0.0,0.0,0.0,0.0,0.0,0.0,0.0,0.0,0.0,0.0,0.0,0.0,0.0,0.0,0.0,0.0,0.0,0.0,0.0,0.0,0.0,0.0,0.0,0.0,0.0,0.0,0.0,0.0,0.0,0.0,0.0,0.0,0.0,0.0,0.0,0.0,0.0,0.0,0.0,0.0,0.0,0.0,0.0,0.0,0.0,0.0,0.0,0.0,0.0,0.0,0.0,0.0,0.0,0.0,0.0,0.0,0.0,0.0,0.0,0.0,0.0,0.0,0.0,0.0,0.0,0.0,0.0,0.0,0.0,0.0,0.0,0.0,0.0,0.0,0.0,0.0,0.0,0.0,0.0,0.0,0.0,0.0,0.0,0.0,0.0,0.0,0.0,0.0,0.0,0.0,0.0,0.0,0.0,0.0,0.0,0.0,0.0,0.0,0.0,0.0,0.0,0.0,0.0,0.0,0.0,0.0,0.0,0.0,0.0,0.0,0.0,0.0,0.0,0.0,0.0,0.0,0.0,0.0,0.0,0.0,0.0,0.0,0.0,0.0,0.0,0.0,0.0,0.0,0.0,0.0,0.0,0.0,0.0,0.0,0.0,0.0,0.0,0.0,0.0,0.0,0.0,0.0,0.0,0.0,0.0,0.0,0.0,0.0,0.0,0.0,0.0,0.0,0.0,0.0,0.0,0.0,0.0,0.0,0.0,0.0,0.0,0.0,0.0,0.0,0.0,0.0,0.0,0.0,0.0,0.0,0.0,0.0,0.0,0.0,0.0,0.0,0.0,0.0,0.0,0.0,0.0,0.0,0.0,0.0,0.0,0.0,0.0,0.0,0.0,0.0,0.0,0.0,0.0,0.0,0.0,0.0,0.0,0.0,0.0,0.0,0.0,0.0,0.0,0.0,0.0,0.0,0.0,0.0,0.0,0.0,0.0,0.0,0.0,0.0,0.0,0.0,0.0,0.0,0.0,0.0,0.0,0.0,0.0,0.0,0.0,0.0,0.0,0.0,0.0,0.0,0.0,0.0,0.0,0.0,0.0,0.0,0.0,0.0,0.0,0.0,0.0,0.0,0.0,0.0,0.0,0.0,0.0,0.0,0.0,0.0,0.0,0.0,0.0,0.0,0.0,0.0,0.0,0.0,0.0,0.0,0.0,0.0,0.0,0.0,0.0,0.0,0.0,0.0,0.0,0.0,0.0,0.0,0.0,0.0,0.0,0.0,0.0,0.0,0.0,0.0,0.0,0.0,0.0,0.0,0.0,0.0,0.0,0.0,0.0,0.0,0.0,0.0,0.0,0.0,0.0,0.0,0.0,0.0,0.0,0.0,0.0,0.0,0.0,0.0,0.0,0.0,0.0,0.0,0.0,0.0,0.0,0.0,0.0,0.0,0.0,0.0,0.0,0.0,0.0,0.0,0.0,0.0,0.0,0.0,0.0,0.0,0.0,0.0,0.0,0.0,0.0,0.0,0.0,0.0,0.0,0.0,0.0,0.0,0.0,0.0,0.0,0.0,0.0,0.0,0.0,0.0,0.0,0.0,0.0,0.0,0.0,0.0,0.0,0.0,0.0,0.0,0.0,0.0,0.0,0.0,0.0,0.0,0.0,0.0,0.0,0.0,0.0,0.0,0.0,0.0,0.0,0.0,0.0,0.0,0.0,0.0,0.0,0.0,0.0,0.0,0.0,0.0,0.0,0.0,0.0,0.0,0.0,0.0,0.0,0.0,0.0,0.0,0.0,0.0,0.0,0.0,0.0,0.0,0.0,0.0,0.0,0.0,0.0,0.0,0.0,0.0,0.0,0.0,0.0,0.0,0.0,0.0,0.0,0.0,0.0,0.0,0.0,0.0,0.0,0.0,0.0,0.0,0.0,0.0,0.0,0.0,0.0,0.0,0.0,0.0,0.0,0.0,0.0,0.0,0.0,0.0,0.0,0.0,0.0,0.0,0.0,0.0,0.0,0.0,0.0,0.0,0.0,0.0,0.0,0.0,0.0,0.0,0.0,0.0,0.0,0.0,0.0,0.0,0.0,0.0,0.0,0.0,0.0,0.0,0.0,0.0,0.0,0.0,0.0,0.0,0.0,0.0,0.0,0.0,0.0,0.0,0.0,0.0,0.0,0.0,0.0,0.0,0.0,0.0,0.0,0.0,0.0,0.0,0.0,0.0,0.0,0.0,0.0,0.0,0.0,0.0,0.0,0.0,0.0,0.0,0.0,0.0,0.0,0.0,0.0,0.0,0.0,0.0,0.0,0.0,0.0,0.0,0.0,0.0,0.0,0.0,0.0,0.0,0.0,0.0,0.0,0.0,0.0,0.0,0.0,0.0,0.0,0.0,0.0,0.0,0.0,0.0,0.0,0.0,0.0,0.0,0.0,0.0,0.0,0.0,0.0,0.0,0.0,0.0,0.0,0.0,0.0,0.0,0.0,0.0,0.0,0.0,0.0,0.0,0.0,0.0,0.0,0.0,0.0,0.0,0.0,0.0,0.0,0.0,0.0,0.0,0.0,0.0,0.0,0.0,0.0,0.0,0.0,0.0,0.0,0.0,0.0,0.0,0.0,0.0,0.0,0.0,0.0,0.0,0.0,0.0,0.0,0.0,0.0,0.0,0.0,0.0,0.0,0.0,0.0,0.0,0.0,0.0,0.0,0.0,0.0,0.0,0.0,0.0,0.0,0.0,0.0,0.0,0.0,0.0,0.0,0.0,0.0,0.0,0.0,0.0,0.0,0.0,0.0,0.0,0.0,0.0,0.0,0.0,0.0,0.0,0.0,0.0,0.0,0.0,0.0,0.0,0.0,0.0,0.0,0.0,0.0,0.0,0.0,0.0,0.0,0.0,0.0,0.0,0.0,0.0,0.0,0.0,0.0,0.0,0.0,0.0,0.0,0.0,0.0,0.0,0.0,0.0,0.0,0.0,0.0,0.0,0.0,0.0,0.0,0.0,0.0,0.0,0.0,0.0,0.0,0.0,0.0,0.0,0.0,0.0,0.0,0.0,0.0,0.0,0.0,0.0,0.0,0.0,0.0,0.0,0.0,0.0,0.0,0.0,0.0,0.0,0.0,0.0,0.0,0.0,0.0,0.0,0.0,0.0,0.0,0.0,0.0,0.0,0.0,0.0,0.0,0.0,0.0,0.0,0.0,0.0,0.0,0.0,0.0,0.0,0.0,0.0,0.0,0.0,0.0,0.0,0.0,0.0,0.0,0.0,0.0,0.0,0.0,0.0,0.0,0.0,0.0,0.0,0.0,0.0,0.0,0.0,0.0,0.0,0.0,0.0,0.0,0.0,0.0,0.0,0.0,0.0,0.0,0.0,0.0,0.0,0.0,0.0,0.0,0.0,0.0,0.0,0.0,0.0,0.0,0.0,0.0,0.0,0.0,0.0,0.0,0.0,0.0,0.0,0.0,0.0,0.0,0.0,0.0,0.0,-0.9657,0.0,0.0,0.0,0.0,0.0,0.0,0.0,0.0,0.0,0.0,0.0,0.0,0.0,0.0,0.0,0.0,0.0,0.0,0.0,0.0,0.0,0.0,0.0,0.0,0.0,0.0,0.0,0.0,0.0,0.0,0.0,0.0,0.0,0.0,0.0,0.0,0.0,0.0,0.0,0.0,0.0,0.0,0.0,0.0,0.0,0.0,0.0,0.0,0.0,0.0,0.0,0.0,0.0,0.0,0.0,0.0,0.0,0.0,0.0,0.0,0.0,0.0,0.0,0.0,0.0,0.0,0.0,0.0,0.0,0.0,0.0,0.0,0.0,0.0,0.0,0.0,0.0,0.0,0.0,0.0,0.0,0.0,0.0,0.0,0.0,0.0,0.0,0.0,0.0,0.0,0.0,0.0,0.0,0.0,0.0,0.0,0.0,0.0,0.0,0.0,0.0,0.0,0.0,0.0,0.0,0.0,0.0,0.0,0.0,0.0,-1.0133,-1.0094,-0.9976,-0.9838,-0.9691,0.0,0.0,0.0,0.0,0.0,0.0,0.0,0.0,0.0,0.0,0.0,0.0,0.0,0.0,0.0,0.0,0.0,0.0,0.0,0.0,0.0,0.0,0.0,0.0,0.0,0.0,0.0,0.0,0.0,0.0,0.0,0.0,0.0,0.0,0.0,0.0,0.0,0.0,0.0,0.0,0.0,0.0,0.0,0.0,0.0,0.0,0.0,0.0,0.0,0.0,0.0,0.0,0.0,0.0,0.0,0.0,0.0,0.0,0.0,0.0,0.0,0.0,0.0,0.0,0.0,0.0,0.0,0.0,0.0,0.0,0.0,0.0,0.0,0.0,0.0,0.0,0.0,0.0,0.0,0.0,0.0,0.0,0.0,0.0,0.0,0.0,0.0,0.0,0.0,0.0,0.0,0.0,0.0,0.0,0.0,0.0,0.0,0.0,0.0,0.0,0.0,0.0,0.0,0.0,0.0,0.0,0.0,0.0,0.0,0.0,0.0,0.0,-1.009,-0.9844,-0.972,0.0,0.0,0.0,0.0,0.0,0.0,0.0,0.0,0.0,0.0,0.0,0.0,0.0,0.0,0.0,0.0,0.0,0.0,0.0,0.0,0.0,0.0,0.0,0.0,0.0,0.0,0.0,0.0,0.0,0.0,0.0,0.0,0.0,0.0,0.0,0.0,0.0,0.0,0.0,0.0,0.0,0.0,0.0,0.0,0.0,0.0,0.0,0.0,0.0,0.0,0.0,0.0,0.0,0.0,0.0,0.0,0.0,0.0,0.0,0.0,0.0,0.0,0.0,0.0,0.0,0.0,0.0,0.0,0.0,0.0,0.0,0.0,0.0,0.0,0.0,0.0,0.0,0.0,0.0,0.0,0.0,0.0,0.0,0.0,0.0,0.0,0.0,0.0,0.0,0.0,0.0,0.0,0.0,0.0,0.0,0.0,0.0,0.0,0.0,0.0,0.0,0.0,0.0,0.0,0.0,0.0,0.0,0.0,0.0,0.0,-1.0572,-1.1343,-1.0415,0.0,-0.9703,0.0,0.0,0.0,0.0,0.0,0.0,0.0,0.0,0.0,0.0,0.0,0.0,0.0,0.0,0.0,0.0,0.0,0.0,0.0,0.0,0.0,0.0,0.0,0.0,0.0,0.0,0.0,0.0,0.0,0.0,0.0,0.0,0.0,0.0,0.0,0.0,0.0,0.0,0.0,0.0,0.0,0.0,0.0,0.0,0.0,0.0,0.0,0.0,0.0,0.0,0.0,0.0,0.0,0.0,0.0,0.0,0.0,0.0,0.0,0.0,0.0,0.0,0.0,0.0,0.0,0.0,0.0,0.0,0.0,0.0,0.0,0.0,0.0,0.0,0.0,0.0,0.0,0.0,0.0,0.0,0.0,0.0,0.0,0.0,0.0,0.0,0.0,0.0,0.0,0.0,0.0,0.0,0.0,0.0,0.0,0.0,0.0,0.0,0.0,0.0,0.0,0.0,0.0,0.0,0.0,0.0,0.0,0.0,0.0,0.0,-1.0888,-1.073,-1.0216,-0.9922,0.0,0.0,0.0,0.0,0.0,0.0,0.0,0.0,0.0,0.0,0.0,0.0,0.0,0.0,0.0,0.0,0.0,0.0,0.0,0.0,0.0,0.0,0.0,0.0,0.0,0.0,0.0,0.0,0.0,0.0,0.0,0.0,0.0,0.0,0.0,0.0,0.0,0.0,0.0,0.0,0.0,0.0,0.0,0.0,0.0,0.0,0.0,0.0,0.0,0.0,0.0,0.0,0.0,0.0,0.0,0.0,0.0,0.0,0.0,0.0,0.0,0.0,0.0,0.0,0.0,0.0,0.0,0.0,0.0,0.0,0.0,0.0,0.0,0.0,0.0,0.0,0.0,0.0,0.0,0.0,0.0,0.0,0.0,0.0,0.0,0.0,0.0,0.0,0.0,0.0,0.0,0.0,0.0,0.0,0.0,0.0,0.0,0.0,0.0,0.0,0.0,0.0,0.0,0.0,0.0,0.0,0.0,0.0,0.0,0.0,-1.1392,-1.1196,-1.0533,-1.0195,-0.9882,-0.9554,0.0,0.0,0.0,0.0,0.0,0.0,0.0,0.0,0.0,0.0,0.0,0.0,0.0,0.0,0.0,0.0,0.0,0.0,0.0,0.0,0.0,0.0,0.0,0.0,0.0,0.0,0.0,0.0,0.0,0.0,0.0,0.0,0.0,0.0,0.0,0.0,0.0,0.0,0.0,0.0,0.0,0.0,0.0,0.0,0.0,0.0,0.0,0.0,0.0,0.0,0.0,0.0,0.0,0.0,0.0,0.0,0.0,0.0,0.0,0.0,0.0,0.0,0.0,0.0,0.0,0.0,0.0,0.0,0.0,0.0,0.0,0.0,0.0,0.0,0.0,0.0,0.0,0.0,0.0,0.0,0.0,0.0,0.0,0.0,0.0,0.0,0.0,0.0,0.0,0.0,0.0,0.0,0.0,0.0,0.0,0.0,0.0,0.0,0.0,0.0,0.0,0.0,0.0,0.0,0.0,0.0,0.0,0.0,-1.334,-1.2168,-1.1409,-1.1235,-1.051,-0.9642,0.0,0.0,0.0,0.0,0.0,0.0,0.0,0.0,0.0,0.0,0.0,0.0,0.0,0.0,0.0,0.0,0.0,0.0,0.0,0.0,0.0,0.0,0.0,0.0,0.0,0.0,0.0,0.0,0.0,0.0,0.0,0.0,0.0,0.0,0.0,0.0,0.0,0.0,0.0,0.0,0.0,0.0,0.0,0.0,0.0,0.0,0.0,0.0,0.0,0.0,0.0,0.0,0.0,0.0,0.0,0.0,0.0,0.0,0.0,0.0,0.0,0.0,0.0,0.0,0.0,0.0,0.0,0.0,0.0,0.0,0.0,0.0,0.0,0.0,0.0,0.0,0.0,0.0,0.0,0.0,0.0,0.0,0.0,0.0,0.0,0.0,0.0,0.0,0.0,0.0,0.0,0.0,0.0,0.0,0.0,0.0,0.0,0.0,0.0,0.0,0.0,0.0,0.0,0.0,0.0,0.0,0.0,0.0,0.0,-1.1445,-1.0977,-1.0916,-1.1368,-1.0612,-0.9737,0.0,0.0,0.0,0.0,0.0,0.0,0.0,0.0,0.0,0.0,0.0,0.0,0.0,0.0,0.0,0.0,0.0,0.0,0.0,0.0,0.0,0.0,0.0,0.0,0.0,0.0,0.0,0.0,0.0,0.0,0.0,0.0,0.0,0.0,0.0,0.0,0.0,0.0,0.0,0.0,0.0,0.0,0.0,0.0,0.0,0.0,0.0,0.0,0.0,0.0,0.0,0.0,0.0,0.0,0.0,0.0,0.0,0.0,0.0,0.0,0.0,0.0,0.0,0.0,0.0,0.0,0.0,0.0,0.0,0.0,0.0,0.0,0.0,0.0,0.0,0.0,0.0,0.0,0.0,0.0,0.0,0.0,0.0,0.0,0.0,0.0,0.0,0.0,0.0,0.0,0.0,0.0,0.0,0.0,0.0,0.0,0.0,0.0,0.0,0.0,0.0,0.0,0.0,0.0,0.0,0.0,0.0,0.0,0.0,-1.0687,0.0,-1.119,0.0,-1.0656,-0.9773,0.0,0.0,0.0,0.0,0.0,0.0,0.0,0.0,0.0,0.0,0.0,0.0,0.0,0.0,0.0,0.0,0.0,0.0,0.0,0.0,0.0,0.0,0.0,0.0,0.0,0.0,0.0,0.0,0.0,0.0,0.0,0.0,0.0,0.0,0.0,0.0,0.0,0.0,0.0,0.0,0.0,0.0,0.0,0.0,0.0,0.0,0.0,0.0,0.0,0.0,0.0,0.0,0.0,0.0,0.0,0.0,0.0,0.0,0.0,0.0,0.0,0.0,0.0,0.0,0.0,0.0,0.0,0.0,0.0,0.0,0.0,0.0,0.0,0.0,0.0,0.0,0.0,0.0,0.0,0.0,0.0,0.0,0.0,0.0,0.0,0.0,0.0,0.0,0.0,0.0,0.0,0.0,0.0,0.0,0.0,0.0,0.0,0.0,0.0,0.0,0.0,0.0,0.0,0.0,0.0,0.0,0.0,0.0,-1.0722,-1.1463,-1.2284,-1.2288,-1.1523,-1.0664,-0.9789,0.0,0.0,0.0,0.0,0.0,0.0,0.0,0.0,0.0,0.0,0.0,0.0,0.0,0.0,0.0,0.0,0.0,0.0,0.0,0.0,0.0,0.0,0.0,0.0,0.0,0.0,0.0,0.0,0.0,0.0,0.0,0.0,0.0,0.0,0.0,0.0,0.0,0.0,0.0,0.0,0.0,0.0,0.0,0.0,0.0,0.0,0.0,0.0,0.0,0.0,0.0,0.0,0.0,0.0,0.0,0.0,0.0,0.0,0.0,0.0,0.0,0.0,0.0,0.0,0.0,0.0,0.0,0.0,0.0,0.0,0.0,0.0,0.0,0.0,0.0,0.0,0.0,0.0,0.0,0.0,0.0,0.0,0.0,0.0,0.0,0.0,0.0,0.0,0.0,0.0,0.0,0.0,0.0,0.0,0.0,0.0,0.0,0.0,0.0,0.0,0.0,0.0,0.0,0.0,0.0,0.0,0.0,0.0,0.0,-1.1525,-1.1752,-1.2032,-1.2271,-1.0948,-1.0093,0.0,0.0,0.0,0.0,0.0,0.0,0.0,0.0,0.0,0.0,0.0,0.0,0.0,0.0,0.0,0.0,0.0,0.0,0.0,0.0,0.0,0.0,0.0,0.0,0.0,0.0,0.0,0.0,0.0,0.0,0.0,0.0,0.0,0.0,0.0,0.0,0.0,0.0,0.0,0.0,0.0,0.0,0.0,0.0,0.0,0.0,0.0,0.0,0.0,0.0,0.0,0.0,0.0,0.0,0.0,0.0,0.0,0.0,0.0,0.0,0.0,0.0,0.0,0.0,0.0,0.0,0.0,0.0,0.0,0.0,0.0,0.0,0.0,0.0,0.0,0.0,0.0,0.0,0.0,0.0,0.0,0.0,0.0,0.0,0.0,0.0,0.0,0.0,0.0,0.0,0.0,0.0,0.0,0.0,0.0,0.0,0.0,0.0,0.0,0.0,0.0,0.0,0.0,0.0,0.0,0.0,0.0,0.0,0.0,-1.2404,-1.2392,-1.2483,-1.269,-1.1346,-1.064,-1.0673,0.0,0.0,0.0,0.0,0.0,0.0,0.0,0.0,0.0,0.0,0.0,0.0,0.0,0.0,0.0,0.0,0.0,0.0,0.0,0.0,0.0,0.0,0.0,0.0,0.0,0.0,0.0,0.0,0.0,0.0,0.0,0.0,0.0,0.0,0.0,0.0,0.0,0.0,0.0,0.0,0.0,0.0,0.0,0.0,0.0,0.0,0.0,0.0,0.0,0.0,0.0,0.0,0.0,0.0,0.0,0.0,0.0,0.0,0.0,0.0,0.0,0.0,0.0,0.0,0.0,0.0,0.0,0.0,0.0,0.0,0.0,0.0,0.0,0.0,0.0,0.0,0.0,0.0,0.0,0.0,0.0,0.0,0.0,0.0,0.0,0.0,0.0,0.0,0.0,0.0,0.0,0.0,0.0,0.0,0.0,0.0,0.0,0.0,0.0,0.0,0.0,0.0,0.0,0.0,0.0,0.0,0.0,0.0,-1.3871,-1.4025,-1.3723,-1.2955,-1.1927,-1.1424,0.0,0.0,0.0,0.0,0.0,0.0,0.0,0.0,0.0,0.0,0.0,0.0,0.0,0.0,0.0,0.0,0.0,0.0,0.0,0.0,0.0,0.0,0.0,0.0,0.0,0.0,0.0,0.0,0.0,0.0,0.0,0.0,0.0,0.0,0.0,0.0,0.0,0.0,0.0,0.0,0.0,0.0,0.0,0.0,0.0,0.0,0.0,0.0,0.0,0.0,0.0,0.0,0.0,0.0,0.0,0.0,0.0,0.0,0.0,0.0,0.0,0.0,0.0,0.0,0.0,0.0,0.0,0.0,0.0,0.0,0.0,0.0,0.0,0.0,0.0,0.0,0.0,0.0,0.0,0.0,0.0,0.0,0.0,0.0,0.0,0.0,0.0,0.0,0.0,0.0,0.0,0.0,0.0,0.0,0.0,0.0,0.0,0.0,0.0,0.0,0.0,0.0,0.0,0.0,0.0,0.0,0.0,0.0,0.0,-1.3799,-1.5586,-1.6193,-1.5348,-1.3303,-1.2202,0.0,0.0,0.0,0.0,0.0,0.0,0.0,0.0,0.0,0.0,0.0,0.0,0.0,0.0,0.0,0.0,0.0,0.0,0.0,0.0,0.0,0.0,0.0,0.0,0.0,0.0,0.0,0.0,0.0,0.0,0.0,0.0,0.0,0.0,0.0,0.0,0.0,0.0,0.0,0.0,0.0,0.0,0.0,0.0,0.0,0.0,0.0,0.0,0.0,0.0,0.0,0.0,0.0,0.0,0.0,0.0,0.0,0.0,0.0,0.0,0.0,0.0,0.0,0.0,0.0,0.0,0.0,0.0,0.0,0.0,0.0,0.0,0.0,0.0,0.0,0.0,0.0,0.0,0.0,0.0,0.0,0.0,0.0,0.0,0.0,0.0,0.0,0.0,0.0,0.0,0.0,0.0,0.0,0.0,0.0,0.0,0.0,0.0,0.0,0.0,0.0,0.0,0.0,0.0,0.0,0.0,0.0,0.0,-1.4124,-1.4764,-1.6828,-1.7681,-1.7198,-1.5064,-1.3649,0.0,0.0,0.0,0.0,0.0,0.0,0.0,0.0,0.0,0.0,0.0,0.0,0.0,0.0,0.0,0.0,0.0,0.0,0.0,0.0,0.0,0.0,0.0,0.0,0.0,0.0,0.0,0.0,0.0,0.0,0.0,0.0,0.0,0.0,0.0,0.0,0.0,0.0,0.0,0.0,0.0,0.0,0.0,0.0,0.0,0.0,0.0,0.0,0.0,0.0,0.0,0.0,0.0,0.0,0.0,0.0,0.0,0.0,0.0,0.0,0.0,0.0,0.0,0.0,0.0,0.0,0.0,0.0,0.0,0.0,0.0,0.0,0.0,0.0,0.0,0.0,0.0,0.0,0.0,0.0,0.0,0.0,0.0,0.0,0.0,0.0,0.0,0.0,0.0,0.0,0.0,0.0,0.0,0.0,0.0,0.0,0.0,0.0,0.0,0.0,0.0,0.0,0.0,0.0,0.0,0.0,0.0,0.0,-1.4711,-1.6259,-1.7818,-1.8582,-1.8472,-1.6902,-1.529,0.0,0.0,0.0,0.0,0.0,0.0,0.0,0.0,0.0,0.0,0.0,0.0,0.0,0.0,0.0,0.0,0.0,0.0,0.0,0.0,0.0,0.0,0.0,0.0,0.0,0.0,0.0,0.0,0.0,0.0,0.0,0.0,0.0,0.0,0.0,0.0,0.0,0.0,0.0,0.0,0.0,0.0,0.0,0.0,0.0,0.0,0.0,0.0,0.0,0.0,0.0,0.0,0.0,0.0,0.0,0.0,0.0,0.0,0.0,0.0,0.0,0.0,0.0,0.0,0.0,0.0,0.0,0.0,0.0,0.0,0.0,0.0,0.0,0.0,0.0,0.0,0.0,0.0,0.0,0.0,0.0,0.0,0.0,0.0,0.0,0.0,0.0,0.0,0.0,0.0,0.0,0.0,0.0,0.0,0.0,0.0,0.0,0.0,0.0,0.0,0.0,0.0,0.0,0.0,0.0,0.0,0.0,0.0,-1.6036,-1.6832,-1.8485,-1.9295,-1.9107,-1.769,-1.5849,0.0,0.0,0.0,0.0,0.0,0.0,0.0,0.0,0.0,0.0,0.0,0.0,0.0,0.0,0.0,0.0,0.0,0.0,0.0,0.0,0.0,0.0,0.0,0.0,0.0,0.0,0.0,0.0,0.0,0.0,0.0,0.0,0.0,0.0,0.0,0.0,0.0,0.0,0.0,0.0,0.0,0.0,0.0,0.0,0.0,0.0,0.0,0.0,-0.8347,0.0,0.0,0.0,0.0,0.0,0.0,0.0,0.0,0.0,0.0,0.0,0.0,0.0,0.0,0.0,0.0,0.0,0.0,0.0,0.0,0.0,0.0,0.0,0.0,0.0,0.0,0.0,0.0,0.0,0.0,0.0,0.0,0.0,0.0,0.0,0.0,0.0,0.0,0.0,0.0,0.0,0.0,0.0,0.0,0.0,0.0,0.0,0.0,0.0,0.0,0.0,0.0,0.0,0.0,0.0,0.0,0.0,0.0,0.0,-1.6599,-1.7597,-1.8818,-1.9427,-1.9286,-1.8578,-1.6861,0.0,0.0,0.0,0.0,0.0,0.0,0.0,0.0,0.0,0.0,0.0,0.0,0.0,0.0,0.0,0.0,0.0,0.0,0.0,0.0,0.0,0.0,0.0,0.0,0.0,0.0,0.0,0.0,0.0,0.0,0.0,0.0,0.0,0.0,0.0,0.0,0.0,0.0,0.0,0.0,0.0,0.0,0.0,0.0,0.0,0.0,0.0,0.0,0.0,0.0,0.0,0.0,0.0,0.0,0.0,0.0,0.0,0.0,0.0,0.0,0.0,0.0,0.0,0.0,0.0,0.0,0.0,0.0,0.0,0.0,0.0,0.0,0.0,0.0,0.0,0.0,0.0,0.0,0.0,0.0,0.0,0.0,0.0,0.0,0.0,0.0,0.0,0.0,0.0,0.0,0.0,0.0,0.0,0.0,0.0,0.0,0.0,0.0,0.0,0.0,0.0,0.0,0.0,0.0,0.0,0.0,0.0,-1.5311,-1.6791,-1.84,-1.8996,-1.9286,-1.9286,-1.9286,-1.7822,-1.4743,0.0,0.0,0.0,0.0,0.0,0.0,0.0,0.0,0.0,0.0,0.0,0.0,0.0,0.0,0.0,0.0,0.0,0.0,0.0,0.0,0.0,0.0,0.0,0.0,0.0,0.0,0.0,0.0,0.0,0.0,0.0,0.0,0.0,0.0,0.0,0.0,0.0,0.0,-0.7672,-0.8336,0.0,0.0,0.0,0.0,0.0,0.0,0.0,0.0,-0.8964,0.0,0.0,0.0,0.0,0.0,0.0,0.0,0.0,0.0,0.0,0.0,0.0,0.0,0.0,0.0,0.0,0.0,0.0,0.0,0.0,0.0,0.0,0.0,0.0,0.0,0.0,0.0,0.0,0.0,0.0,0.0,0.0,0.0,0.0,0.0,0.0,0.0,0.0,0.0,0.0,0.0,0.0,0.0,0.0,0.0,0.0,0.0,0.0,0.0,0.0,0.0,0.0,0.0,0.0,0.0,0.0,-1.5593,-1.5812,-1.6972,-1.9077,-1.9265,-1.9286,-1.9286,-1.9286,-1.7798,-1.4743,0.0,0.0,0.0,0.0,0.0,0.0,0.0,0.0,0.0,0.0,0.0,0.0,0.0,0.0,0.0,0.0,0.0,0.0,0.0,0.0,0.0,0.0,0.0,0.0,0.0,0.0,0.0,0.0,0.0,0.0,0.0,0.0,0.0,0.0,0.0,0.0,0.0,0.0,0.0,-0.8408,-0.8769,0.0,0.0,0.0,0.0,0.0,0.0,0.0,0.0,-0.8959,0.0,0.0,0.0,0.0,0.0,0.0,0.0,0.0,0.0,0.0,0.0,0.0,0.0,0.0,0.0,0.0,0.0,0.0,0.0,0.0,0.0,0.0,0.0,0.0,0.0,0.0,0.0,0.0,0.0,0.0,0.0,0.0,0.0,0.0,0.0,0.0,0.0,0.0,0.0,0.0,0.0,0.0,0.0,0.0,0.0,0.0,0.0,0.0,0.0,0.0,0.0,0.0,0.0,0.0,0.0,-1.5185,-1.6101,-1.7435,-1.9213,-1.9286,-1.9286,-1.9268,-1.85,-1.6958,0.0,0.0,0.0,0.0,0.0,0.0,0.0,0.0,0.0,0.0,0.0,0.0,0.0,0.0,0.0,0.0,0.0,0.0,0.0,0.0,0.0,0.0,0.0,0.0,0.0,0.0,0.0,0.0,0.0,0.0,0.0,0.0,0.0,0.0,0.0,0.0,0.0,0.0,0.0,0.0,-0.8706,-0.8834,-0.8891,0.0,0.0,0.0,0.0,0.0,0.0,-0.8919,-0.8919,0.0,0.0,0.0,0.0,0.0,0.0,0.0,0.0,0.0,0.0,0.0,0.0,0.0,0.0,0.0,0.0,0.0,0.0,0.0,0.0,0.0,0.0,0.0,0.0,0.0,0.0,0.0,0.0,0.0,0.0,0.0,0.0,0.0,0.0,0.0,0.0,0.0,0.0,0.0,0.0,0.0,0.0,0.0,0.0,0.0,0.0,0.0,0.0,0.0,0.0,0.0,0.0,0.0,0.0,0.0,-1.459,-1.6063,-1.7612,-1.9213,-1.9286,-1.9286,-1.9268,-1.806,-1.6468,0.0,0.0,0.0,0.0,0.0,0.0,0.0,0.0,0.0,0.0,0.0,0.0,0.0,0.0,0.0,0.0,0.0,0.0,0.0,0.0,0.0,0.0,0.0,0.0,0.0,0.0,0.0,0.0,0.0,0.0,0.0,0.0,0.0,0.0,0.0,0.0,0.0,0.0,0.0,0.0,0.0,-0.9112,-0.9117,-0.9117,0.0,0.0,0.0,0.0,-0.9326,-0.9344,0.0,0.0,0.0,0.0,0.0,0.0,0.0,0.0,0.0,0.0,0.0,0.0,0.0,0.0,0.0,0.0,0.0,0.0,0.0,0.0,0.0,0.0,0.0,0.0,0.0,0.0,0.0,0.0,0.0,0.0,0.0,0.0,0.0,0.0,0.0,0.0,0.0,0.0,0.0,0.0,0.0,0.0,0.0,0.0,0.0,0.0,0.0,0.0,0.0,0.0,0.0,0.0,0.0,0.0,0.0,0.0,-1.4524,-1.5434,-1.6985,-1.9158,-1.9286,-1.9286,-1.9286,-1.9106,-1.7601,0.0,0.0,0.0,0.0,0.0,0.0,0.0,0.0,0.0,0.0,0.0,0.0,0.0,0.0,0.0,0.0,0.0,0.0,0.0,0.0,0.0,0.0,0.0,0.0,0.0,0.0,0.0,0.0,0.0,0.0,0.0,0.0,0.0,0.0,0.0,0.0,0.0,0.0,0.0,0.0,0.0,-0.9876,-0.9878,-0.988,-1.0106,0.0,0.0,-1.0098,-1.0747,-1.0842,0.0,0.0,0.0,0.0,0.0,0.0,0.0,0.0,0.0,0.0,0.0,0.0,0.0,0.0,0.0,0.0,0.0,0.0,0.0,0.0,0.0,0.0,0.0,0.0,0.0,0.0,0.0,0.0,0.0,0.0,0.0,0.0,0.0,0.0,0.0,0.0,0.0,0.0,0.0,0.0,0.0,0.0,0.0,0.0,0.0,0.0,0.0,0.0,0.0,0.0,0.0,0.0,0.0,0.0,0.0,-1.2585,-1.4512,-1.5772,-1.7344,-1.9213,-1.9286,-1.9286,-1.9286,-1.7877,-1.6233,0.0,0.0,0.0,0.0,0.0,0.0,0.0,0.0,0.0,0.0,0.0,0.0,0.0,0.0,0.0,0.0,0.0,0.0,0.0,0.0,0.0,0.0,0.0,0.0,0.0,0.0,0.0,0.0,0.0,0.0,0.0,0.0,0.0,0.0,0.0,0.0,0.0,0.0,0.0,0.0,0.0,0.0,-1.0196,-1.0444,0.0,0.0,0.0,-1.0734,-1.1052,0.0,0.0,0.0,0.0,0.0,0.0,0.0,0.0,0.0,0.0,0.0,0.0,0.0,0.0,0.0,0.0,0.0,0.0,0.0,0.0,0.0,0.0,0.0,0.0,0.0,0.0,0.0,0.0,0.0,0.0,0.0,0.0,0.0,0.0,0.0,0.0,0.0,0.0,0.0,0.0,0.0,0.0,0.0,0.0,0.0,0.0,0.0,0.0,0.0,0.0,0.0,0.0,0.0,0.0,0.0,0.0,0.0,-1.4517,-1.6285,-1.7894,-1.925,-1.9261,-1.923,-1.9175,-1.7077,0.0,0.0,0.0,0.0,0.0,0.0,0.0,0.0,0.0,0.0,0.0,0.0,0.0,0.0,0.0,0.0,0.0,0.0,0.0,0.0,0.0,0.0,0.0,0.0,0.0,0.0,0.0,-0.477,0.0,0.0,0.0,0.0,0.0,0.0,0.0,0.0,0.0,0.0,0.0,0.0,0.0,0.0,-1.0211,-1.0584,-1.1074,-1.1335,0.0,0.0,-1.1466,-1.1655,-1.1209,-1.0725,0.0,0.0,0.0,0.0,0.0,0.0,0.0,0.0,0.0,0.0,0.0,0.0,0.0,0.0,0.0,0.0,0.0,0.0,0.0,0.0,0.0,0.0,0.0,0.0,0.0,0.0,0.0,0.0,0.0,0.0,0.0,0.0,0.0,0.0,0.0,0.0,0.0,0.0,0.0,0.0,0.0,0.0,0.0,0.0,0.0,0.0,0.0,0.0,0.0,0.0,0.0,0.0,0.0,0.0,-1.3647,-1.4524,-1.6817,-1.8427,-1.9253,-1.9119,-1.9018,-1.9001,-1.7931,-1.6264,0.0,0.0,0.0,0.0,0.0,0.0,0.0,0.0,0.0,0.0,0.0,0.0,0.0,0.0,0.0,0.0,0.0,0.0,0.0,0.0,0.0,0.0,0.0,0.0,0.0,0.0,0.0,0.0,0.0,0.0,0.0,0.0,0.0,0.0,0.0,0.0,0.0,0.0,0.0,0.0,0.0,-1.0945,-1.1287,-1.186,-1.2456,0.0,-1.2637,-1.2459,-1.3125,-1.321,-1.2684,-1.125,0.0,0.0,0.0,0.0,0.0,0.0,0.0,0.0,0.0,0.0,0.0,0.0,0.0,0.0,0.0,0.0,0.0,0.0,0.0,0.0,0.0,0.0,0.0,0.0,0.0,0.0,0.0,0.0,0.0,0.0,0.0,0.0,0.0,0.0,0.0,0.0,0.0,0.0,0.0,0.0,0.0,0.0,0.0,0.0,0.0,0.0,0.0,0.0,0.0,0.0,0.0,0.0,0.0,-1.3702,-1.4517,-1.6853,-1.8663,-1.9719,-1.9288,-1.9147,-1.9428,-1.8016,-1.6396,0.0,0.0,0.0,0.0,0.0,0.0,0.0,0.0,0.0,0.0,0.0,0.0,0.0,0.0,0.0,0.0,0.0,0.0,0.0,0.0,0.0,0.0,0.0,0.0,0.0,0.0,0.0,0.0,-0.6871,-0.7294,-0.8315,0.0,0.0,0.0,0.0,0.0,0.0,0.0,0.0,0.0,0.0,-1.2345,-1.2589,-1.3071,0.0,0.0,-1.3567,-1.326,-1.3685,-1.3376,-1.2806,-1.1984,-1.1355,0.0,0.0,0.0,0.0,0.0,0.0,0.0,0.0,0.0,0.0,0.0,0.0,0.0,0.0,0.0,0.0,0.0,0.0,0.0,0.0,0.0,0.0,0.0,0.0,0.0,0.0,0.0,0.0,0.0,0.0,0.0,0.0,0.0,0.0,0.0,0.0,0.0,0.0,0.0,0.0,0.0,0.0,0.0,0.0,0.0,0.0,0.0,0.0,0.0,0.0,0.0,0.0,-1.4059,-1.4866,-1.7388,-1.9264,-2.0425,-1.9772,-1.9456,-1.9521,-1.809,-1.6624,0.0,0.0,0.0,0.0,0.0,0.0,0.0,0.0,0.0,0.0,0.0,0.0,0.0,0.0,0.0,0.0,0.0,0.0,0.0,0.0,0.0,0.0,0.0,0.0,0.0,0.0,0.0,0.0,-0.7975,-0.8315,-0.8784,0.0,0.0,0.0,0.0,0.0,0.0,0.0,0.0,0.0,0.0,-1.3183,-1.3812,-1.41,-1.4401,-1.4863,-1.4239,-1.3818,-1.4087,-1.3626,-1.2992,-1.2287,0.0,0.0,0.0,0.0,0.0,0.0,0.0,0.0,0.0,0.0,0.0,0.0,0.0,0.0,0.0,0.0,0.0,0.0,0.0,0.0,0.0,0.0,0.0,0.0,0.0,0.0,0.0,-1.0542,0.0,0.0,-0.9746,0.0,0.0,0.0,0.0,0.0,0.0,0.0,0.0,0.0,0.0,0.0,0.0,0.0,0.0,0.0,0.0,0.0,0.0,0.0,0.0,0.0,0.0,-1.4854,-1.5692,-1.8527,-2.0407,-2.1216,-2.0679,-2.0022,-1.9364,-1.8324,-1.7101,-1.5615,0.0,0.0,0.0,0.0,0.0,0.0,0.0,0.0,0.0,0.0,0.0,0.0,0.0,0.0,0.0,0.0,0.0,0.0,0.0,0.0,0.0,0.0,0.0,0.0,0.0,0.0,-0.7481,-0.8321,-0.8818,0.0,0.0,0.0,0.0,0.0,0.0,0.0,0.0,0.0,-1.2177,-1.2559,-1.3219,-1.4818,-1.4794,-1.4875,-1.5577,-1.4738,-1.4116,-1.4448,-1.4211,-1.3498,0.0,0.0,0.0,0.0,0.0,0.0,0.0,0.0,0.0,0.0,0.0,0.0,0.0,0.0,0.0,0.0,0.0,0.0,0.0,0.0,0.0,0.0,0.0,0.0,0.0,0.0,0.0,-1.319,-1.2635,0.0,0.0,0.0,0.0,0.0,0.0,0.0,0.0,0.0,0.0,0.0,-1.6791,-1.7504,0.0,0.0,0.0,0.0,0.0,0.0,0.0,0.0,0.0,0.0,0.0,0.0,-1.4882,-1.6207,-1.8592,-2.0336,-2.1388,-2.0726,-2.045,-2.0534,-1.9246,-1.7608,-1.5663,0.0,0.0,0.0,0.0,0.0,0.0,0.0,0.0,0.0,0.0,0.0,0.0,0.0,0.0,0.0,0.0,0.0,0.0,0.0,0.0,0.0,0.0,0.0,0.0,0.0,-0.825,0.0,0.0,0.0,0.0,0.0,0.0,0.0,0.0,0.0,0.0,-1.0863,-1.1821,-1.289,-1.4183,-1.5023,-1.5097,-1.5271,-1.5589,0.0,0.0,0.0,0.0,0.0,0.0,0.0,0.0,0.0,0.0,0.0,0.0,0.0,0.0,-1.3033,-1.1233,-1.0662,-1.0433,-1.0433,0.0,0.0,0.0,0.0,0.0,0.0,0.0,0.0,0.0,0.0,0.0,0.0,0.0,0.0,-1.5471,-1.5159,-1.4656,0.0,0.0,0.0,0.0,0.0,0.0,0.0,0.0,-1.7991,-1.8775,-1.9012,-1.9739,-1.9688,0.0,-1.8741,-1.7326,0.0,0.0,0.0,0.0,0.0,0.0,0.0,0.0,-1.5602,-1.7151,-1.9228,-2.0842,-2.1831,-2.1343,-2.1105,-2.1187,-1.973,-1.8099,-1.6407,-1.4954,-1.3481,0.0,0.0,0.0,0.0,0.0,0.0,0.0,0.0,0.0,0.0,0.0,0.0,0.0,0.0,0.0,0.0,0.0,0.0,0.0,0.0,0.0,0.0,0.0,-0.8857,0.0,0.0,0.0,0.0,0.0,0.0,0.0,0.0,0.0,-1.1224,-1.2277,-1.3295,-1.3887,-1.5145,-1.5892,-1.5565,0.0,0.0,0.0,0.0,0.0,0.0,0.0,-1.5936,-1.5687,-1.5989,-1.6351,-1.6713,-1.6598,-1.6177,-1.5171,0.0,0.0,-1.2958,-1.2338,-1.2167,-1.2135,-1.2331,-1.2572,-1.2818,-1.3331,-1.383,0.0,0.0,0.0,0.0,0.0,0.0,0.0,0.0,-1.7569,-1.7597,0.0,-1.6644,0.0,0.0,0.0,0.0,-1.5069,-1.7674,0.0,0.0,-2.0957,-2.1955,-2.139,-2.1989,-2.1955,-2.1339,-2.1904,-2.1075,-1.8917,-1.626,0.0,0.0,0.0,0.0,0.0,0.0,-1.7029,-1.854,-2.0449,-2.1857,-2.2617,-2.2436,-2.1938,-2.1204,-1.9756,-1.864,-1.7828,-1.6424,-1.4986,-1.3532,-1.2007,0.0,0.0,0.0,0.0,0.0,0.0,0.0,0.0,0.0,0.0,0.0,0.0,0.0,0.0,0.0,0.0,0.0,0.0,0.0,0.0,-0.8695,0.0,0.0,0.0,0.0,0.0,0.0,0.0,0.0,0.0,-1.358,-1.2874,-1.3594,-1.4472,-1.5135,0.0,0.0,0.0,0.0,-1.6706,-1.7654,-1.7221,-1.6957,-1.7503,-1.7682,-1.7313,-1.608,0.0,0.0,-1.8971,-1.8927,-1.8414,-1.7088,-1.7405,-1.7344,-1.5683,-1.4841,-1.4456,-1.4455,-1.4484,-1.457,-1.4602,-1.5104,-1.5643,-2.3192,0.0,0.0,0.0,0.0,-2.1412,-2.1761,-2.2609,-2.1878,-2.1375,-2.0993,-2.0068,0.0,0.0,0.0,0.0,0.0,0.0,-2.0991,-2.182,-2.2699,-2.3241,-2.3558,-2.3224,-2.297,-2.275,-2.2462,-2.1972,-2.1295,-1.9992,-1.8046,-1.5571,0.0,0.0,0.0,0.0,-1.8249,-1.9757,-2.078,-2.1649,-2.2409,-2.2349,-2.1955,-2.1237,-2.0797,-1.9908,-1.8623,-1.7676,-1.6492,-1.502,-1.3549,0.0,0.0,0.0,0.0,0.0,0.0,0.0,0.0,0.0,0.0,0.0,0.0,0.0,0.0,0.0,0.0,0.0,0.0,0.0,-0.8818,-0.8829,-0.9281,0.0,0.0,0.0,0.0,0.0,0.0,0.0,0.0,0.0,-1.5533,-1.5197,-1.5222,0.0,0.0,-1.6878,-1.7018,-1.7387,-1.7773,-1.8049,-1.7884,0.0,-1.799,-1.7822,-1.7823,-1.8248,-1.9207,-1.9807,-1.9714,-1.9681,-1.9545,-1.9113,-1.9224,-1.9191,-1.8653,-1.6771,-1.5426,-1.5308,-1.5691,-1.6055,-1.6099,-1.6663,-1.7185,-2.6556,-2.4915,-2.4289,-2.4306,-2.4661,-2.4239,-2.4543,-2.5338,-2.4881,-2.4458,-2.4002,-2.3257,-2.226,-2.1075,-2.0348,0.0,0.0,0.0,-2.2999,-2.3816,-2.3863,-2.4069,-2.4455,-2.4019,-2.3833,-2.3816,-2.3376,-2.3021,-2.2716,-2.2276,-2.0671,-1.7995,0.0,-1.7261,-1.7656,-1.8398,-1.9358,-2.0483,-2.1247,-2.1854,-2.2293,-2.2327,-2.209,-2.1651,-2.1346,-2.078,-1.9824,-1.8792,-1.7693,-1.6525,-1.5054,-1.3599,0.0,0.0,0.0,0.0,0.0,0.0,0.0,0.0,0.0,0.0,0.0,-0.6379,-0.5319,0.0,0.0,0.0,-0.8843,-0.9672,-0.9772,-1.0314,0.0,0.0,0.0,0.0,0.0,0.0,0.0,-1.5511,-1.6726,-1.7412,-1.7305,-1.6799,-1.6565,-1.6834,-1.7326,-1.7618,-1.7525,0.0,-1.8269,-1.8501,-1.8594,-1.8639,-1.8768,-1.8738,-1.9023,-2.0082,-1.9967,-2.0107,-2.0803,-2.0703,-2.05,-2.0483,-2.0483,-2.0382,-2.0052,-1.8511,-1.7342,-1.7355,-1.7692,-1.8008,-1.8007,-1.8373,-1.8667,-2.9367,-2.9285,-2.7877,-2.7165,-2.6877,-2.6877,-2.6877,-2.6877,-2.6877,-2.686,-2.6826,-2.6099,-2.5372,-2.4628,-2.4019,0.0,-2.3782,-2.454,-2.4845,-2.4794,-2.4746,-2.4743,-2.4661,-2.4625,-2.4608,-2.4608,-2.454,-2.4167,-2.3511,-2.3477,-2.2784,-2.1458,-1.9976,-1.9553,-2.0069,-2.0154,-2.0415,-2.0928,-2.1826,-2.231,-2.2327,-2.2327,-2.2327,-2.231,-2.1634,-2.1211,-2.1042,-1.9739,-1.8623,-1.7811,-1.6458,-1.5056,-1.3616,0.0,0.0,0.0,0.0,0.0,0.0,0.0,0.0,0.0,0.0,0.0,0.0,0.0,0.0,0.0,-1.0427,0.0,-1.1288,-1.2603,0.0,0.0,0.0,-1.4172,-1.5455,-1.6333,-1.7136,-1.7941,0.0,0.0,-1.8377,-1.833,-1.8245,-1.7889,-1.8085,-1.8155,-1.7879,-1.8145,-1.8516,-1.9073,-1.9201,-1.9343,-1.9552,-1.9888,-2.0404,-2.1171,-2.0433,-2.0348,-2.1781,-2.1735,-2.1312,-2.1278,-2.1288,-2.1075,-2.0306,-2.0153,-2.0184,-2.0108,-2.0009,-1.9925,-1.983,-1.9857,-1.9849,-3.2622,-3.2942,-3.2562,-3.0876,-2.8486,-2.8433,-2.8486,-2.8469,-2.845,-2.8469,-2.8383,-2.7621,-2.6877,-2.6201,-2.659,-2.6742,-2.681,-2.7554,-2.7588,-2.7029,-2.7029,-2.6725,-2.615,-2.5592,-2.5338,-2.5304,-2.4763,-2.4421,-2.4269,-2.4222,-2.4083,-2.3693,-2.2784,-2.1854,-2.0974,-2.1481,-2.1792,-2.1944,-2.2164,-2.2327,-2.2327,-2.2327,-2.2327,-2.231,-2.2141,-2.1498,-2.0322,-1.9917,-1.9123,-1.7879,-1.6915,-1.6018,-1.5105,-1.2973,0.0,0.0,0.0,0.0,0.0,0.0,0.0,0.0,0.0,-0.9035,-0.7335,0.0,-1.061,0.0,-1.1955,-1.2854,-1.2861,-1.3707,0.0,0.0,-1.5905,-1.6686,-1.8635,-1.8351,-1.8271,-1.8969,-1.9518,-1.9654,-1.9026,-1.9445,-1.9636,-1.9291,-1.8841,-1.8505,-1.8296,-1.8887,-1.9381,-1.9526,-1.955,-1.9591,-1.9702,-2.0029,-2.047,-2.1038,-2.1097,-2.1357,-2.2181,-2.2175,-2.2057,-2.204,-2.204,-2.1955,-2.1769,-2.1762,-2.1712,-2.1661,-2.0837,-1.9991,-1.9984,-2.0027,-2.0002,-3.3598,-3.3865,-3.3848,-3.2707,-3.0959,-3.0885,-3.0694,-3.0467,-3.0108,-2.9786,-2.9431,-2.8687,-2.8112,-2.774,-2.8146,-2.8332,-2.8366,-2.8789,-2.8755,-2.8349,-2.8332,-2.7926,-2.7182,-2.6793,-2.642,-2.6082,-2.5659,-2.5304,-2.5,-2.4983,-2.4814,-2.4523,-2.4069,-2.3578,-2.2956,-2.2627,-2.2508,-2.2569,-2.2746,-2.2781,-2.2712,-2.2554,-2.249,-2.249,-2.2377,-2.1769,-2.0585,-2.0187,-1.9461,-1.8352,-1.7574,-1.6847,-1.6123,-1.4614,-1.3396,0.0,0.0,0.0,0.0,0.0,0.0,0.0,0.0,0.0,0.0,0.0,-1.2025,-1.2569,-1.3991,-1.5003,-1.5331,-1.6313,-1.7272,-1.8083,-1.8161,-1.8795,-2.0346,-2.0014,-1.9829,-2.0312,-2.0423,-2.0241,-1.9774,-1.9875,-1.9939,-1.9711,-1.9352,-1.9129,-1.9026,-1.939,-1.9705,-1.9705,-1.9705,-1.9705,-1.9705,-1.9882,-2.0238,-2.0862,-2.1177,-2.1558,-2.2169,-2.2327,-2.2327,-2.2327,-2.2327,-2.2327,-2.2327,-2.2327,-2.2327,-2.2181,-2.1646,-2.1103,-2.1036,-2.1039,-2.1015,-3.3736,-3.3803,-3.3803,-3.382,-3.3777,-3.3511,-3.3033,-3.2391,-3.1749,-3.1072,-3.0345,-2.96,-2.9262,-2.9279,-2.9262,-2.9299,-2.9262,-2.9316,-2.9211,-2.9144,-2.9127,-2.8704,-2.7977,-2.796,-2.7638,-2.6996,-2.6877,-2.6505,-2.5913,-2.5795,-2.5406,-2.4811,-2.4678,-2.4838,-2.5149,-2.3797,-2.3076,-2.3101,-2.3347,-2.336,-2.3189,-2.2905,-2.2746,-2.2695,-2.2463,-2.1942,-2.1059,-2.0483,-1.9773,-1.8944,-1.8386,-1.7743,-1.702,-1.6208,-1.5409,0.0,-1.3126,0.0,0.0,0.0,0.0,0.0,0.0,0.0,0.0,-1.3369,-1.397,-1.4773,-1.6306,-1.7442,-1.8021,-1.9344,-2.015,-2.0157,-2.0223,-2.0555,-2.1262,-2.1362,-2.1375,-2.1493,-2.1214,-2.0826,-2.0259,-1.9933,-1.9741,-1.969,-1.969,-1.9645,-1.9675,-1.9675,-1.9705,-1.9705,-1.9705,-1.9705,-1.9705,-1.9705,-1.9975,-2.0715,-2.0886,-2.1197,-2.1948,-2.2094,-2.2123,-2.2106,-2.2094,-2.2077,-2.2152,-2.2113,-2.2108,-2.2068,-2.1977,-2.1977,-2.2051,-2.2136,-2.2282,-3.5445,-3.5835,-3.5835,-3.5835,-3.5766,-3.5169,-3.4232,-3.3186,-3.3034,-3.256,-3.1816,-3.1106,-3.0768,-3.0784,-3.0768,-3.0784,-3.0784,-3.0784,-3.0446,-2.9888,-2.9905,-2.9499,-2.8789,-2.8755,-2.8687,-2.8501,-2.7909,-2.7537,-2.735,-2.6776,-2.642,-2.6268,-2.5693,-2.561,-2.5947,0.0,0.0,0.0,-2.3554,-2.3239,-2.3212,-2.3141,-2.2972,-2.2721,-2.266,0.0,-2.0348,-2.0703,-2.0314,-1.9012,-1.9309,0.0,0.0,0.0,0.0,0.0,0.0,0.0,0.0,0.0,0.0,0.0,-1.5221,-1.4692,-1.4471,-1.5927,-1.6842,-1.6759,-1.8713,-1.9904,-1.9628,-2.0432,-2.0972,-2.1,-2.1502,-2.1944,-2.209,-2.2068,-2.1852,-2.1189,-2.1054,-2.0681,-2.0,-1.9756,-1.9705,-1.9705,-1.9705,-1.9705,-1.9705,-1.9705,-1.9705,-1.9705,-1.9705,-1.9705,-1.9705,-1.9705,-1.9858,-2.0323,-2.0409,-2.067,-2.1163,-2.1291,-2.126,-2.1291,-2.1229,-2.126,-2.126,-2.1236,-2.1292,-2.1259,-2.1256,-2.1339,-2.1667,-2.2024,-2.2077,-3.6123,-3.6002,-3.6028,-3.6028,0.0,-3.56,-3.507,-3.4438,-3.3728,-3.3186,-3.2814,-3.2442,-3.229,-3.2273,-3.1901,-3.1732,-3.1715,-3.136,-3.1004,-3.0649,-3.0649,-3.026,-2.9533,-2.9533,-2.9347,-2.9011,-2.8586,-2.8197,-2.7789,-2.7435,-2.7063,-2.6691,-2.6319,-2.636,-2.6727,-2.6481,-2.5853,-2.4906,-2.4502,-2.4085,-2.3692,-2.3544,-2.3369,-2.3189,-2.2873,0.0,0.0,0.0,0.0,0.0,0.0,0.0,0.0,0.0,0.0,-1.7789,-1.6963,-1.65,-1.6517,-1.6636,-1.6985,-1.7633,-1.8093,-1.7856,-1.6724,-1.8024,-1.8949,-1.9185,-2.0322,-2.1027,-2.116,-2.1507,-2.1765,-2.1737,-2.1857,-2.1965,-2.1945,-2.1781,-2.1488,-2.1095,-2.0799,-2.0462,-2.0056,-1.9837,-1.9705,-1.9705,-1.9705,-1.9705,-1.9705,-1.9705,-1.9705,-1.9705,-1.9705,-1.9705,-1.9705,-1.9705,-1.9852,-2.0182,-2.0292,-2.0499,-2.0926,-2.1134,-2.1134,-2.1023,-2.091,-2.0828,-2.0957,-2.1004,-2.1012,-2.1007,-2.0985,-2.0964,-2.1021,-2.1355,-2.1554,-3.6535,-3.5825,-3.5808,-3.574,-3.5639,-3.5639,-3.5639,-3.552,-3.4201,0.0,0.0,-3.3474,-3.3389,-3.3355,-3.2763,-3.2476,-3.2425,-3.1715,-3.1393,-3.1376,-3.1258,-3.0869,-3.0311,-3.0294,-2.9973,-2.9381,-2.9282,-2.8789,-2.8044,-2.7857,-2.7435,-2.6759,-2.6708,-2.6906,-2.7282,-2.7334,-2.6766,-2.5692,-2.547,-2.4997,-2.4226,-2.3917,-2.3756,-2.371,-2.3093,-2.2424,-2.1628,-2.1473,-2.1025,-2.0255,-2.0322,-2.0339,-2.0204,-2.0204,-2.0137,-2.0002,-1.9985,-1.979,-1.935,-1.9612,-1.9588,-1.9114,-2.0202,-2.029,-1.8887,-1.9772,-2.066,-2.1231,-2.1353,-2.1634,-2.2243,-2.2282,-2.2327,-2.2282,-2.1893,-2.1608,-2.1591,-2.1245,-2.099,-2.0846,-2.0539,-2.0289,-2.0264,-1.9924,-1.9747,-1.9782,-1.9747,-1.9705,-1.9705,-1.9705,-1.9705,-1.9705,-1.9705,-1.9705,-1.9705,-1.9705,-1.9837,-2.011,-2.0177,-2.0349,-2.0677,-2.0959,-2.0975,-2.0731,-2.0597,-2.0543,-2.0686,-2.0711,-2.0745,-2.0769,-2.0775,-2.0656,-2.0316,-2.0499,-2.0747,-3.7297,-3.662,-3.6637,-3.6231,-3.5639,-3.5639,-3.5639,-3.5554,-3.4709,-3.4336,-3.4303,-3.3694,-3.3389,-3.3389,-3.3305,-3.3254,-3.3203,-3.2459,-3.2121,-3.2127,-3.1478,-3.114,-3.1055,-3.1038,-3.0987,-3.0835,-3.026,-2.955,-2.8822,-2.8146,-2.7435,-2.6793,-2.6708,-2.6906,-2.7286,-2.763,-2.7378,-2.6535,-2.5786,-2.5017,-2.4226,-2.4151,-2.3996,-2.3692,-2.3323,-2.2628,-2.1663,-2.1958,-2.1803,-2.1119,-2.1634,-2.1701,-2.1059,-2.1025,-2.072,-2.0069,-1.9985,-2.0238,-2.0831,-2.0931,-2.1208,-2.1686,-2.1939,-2.1428,-2.0013,-2.1109,-2.1849,-2.1599,-2.1876,-2.2192,-2.2282,-2.2327,-2.2327,-2.2282,-2.1893,-2.1598,-2.1585,-2.1247,-2.0846,-2.0508,-2.0338,-2.0317,-2.0283,-1.9984,-1.9874,-2.0054,-1.9909,-1.9705,-1.9705,-1.9705,-1.9705,-1.9705,-1.9705,-1.9705,-1.9705,-1.9705,-1.9756,-1.9756,-1.9837,-1.9858,-1.996,-2.0035,-2.005,-1.9925,-1.9909,-1.9904,-1.9935,-1.9869,-1.996,-1.9985,-2.0005,-1.9939,-1.9854,-1.9909,-1.9995,-3.8058,-3.7415,-3.7398,-3.6958,-3.6214,-3.5791,-3.5639,-3.556,-3.5267,-3.5098,-3.5081,-3.4742,-3.4607,-3.4556,-3.4184,-3.3998,-3.3964,-3.322,-3.2679,-3.2297,-3.1935,-3.1579,-3.1207,-3.119,-3.119,-3.1157,-3.0869,-3.0311,-2.9617,-2.9211,-2.8467,-2.7368,-2.6894,-2.6774,-2.7004,-2.7378,-2.7163,-2.6382,-2.5775,-2.5177,-2.4548,-2.4153,-2.3837,-2.3674,-2.3369,-2.2887,-2.2218,-2.2265,-2.2141,-2.1803,-2.2124,-2.2158,-2.182,-2.1803,-2.1634,-2.1295,-2.1235,-2.1414,-2.1769,-2.1803,-2.1938,-2.2248,-2.2327,-2.2017,-2.1317,-2.1893,-2.2209,-2.2003,-2.2163,-2.2327,-2.2327,-2.2327,-2.2327,-2.2327,-2.1903,-2.1625,-2.1565,-2.1247,-2.0926,-2.0701,-2.0699,-2.0667,-2.0701,-2.0516,-2.033,-2.033,-1.9965,-1.9726,-1.9726,-1.9741,-1.9726,-1.9705,-1.9705,-1.9705,-1.9705,-1.9705,-1.9705,-1.9705,-1.9705,-1.9705,-1.9705,-1.9705,-1.9705,-1.9705,-1.9705,-1.9705,-1.9705,-1.9705,-1.9705,-1.9705,-1.9705,-1.9705,-1.9726,-1.9874,-1.9929,-3.8819,-3.8142,-3.8142,-3.7719,-3.6992,-3.64,-3.6045,-3.5876,-3.5893,-3.5791,-3.5639,-3.5639,-3.5639,-3.5554,-3.5013,-3.4742,-3.4641,-3.3998,-3.3339,-3.2797,-3.2611,-3.2154,-3.1478,-3.1444,-3.136,-3.1207,-3.119,-3.0818,-3.0176,-3.0108,-2.9293,-2.7892,-2.7063,-2.6708,-2.6691,-2.6987,-2.6854,-2.6255,-2.5756,-2.5341,-2.4945,-2.4226,-2.3835,-2.3813,-2.3342,-2.2972,-2.2695,-2.2453,-2.2327,-2.2327,-2.2327,-2.2327,-2.2327,-2.2327,-2.2327,-2.2327,-2.2327,-2.2327,-2.2327,-2.2327,-2.2327,-2.2327,-2.2327,-2.2327,-2.2327,-2.2327,-2.2327,-2.2327,-2.2282,-2.2327,-2.2327,-2.2327,-2.2327,-2.2265,-2.1894,-2.1603,-2.1554,-2.126,-2.0991,-2.0975,-2.0991,-2.1023,-2.1119,-2.107,-2.0859,-2.0508,-2.0116,-1.9839,-1.9859,-1.9823,-1.9839,-1.9823,-1.9767,-1.9726,-1.9705,-1.9786,-1.9863,-1.9844,-1.9869,-1.9878,-1.9863,-1.9782,-1.9726,-1.9705,-1.9705,-1.9705,-1.9705,-1.9705,-1.9705,-1.9705,-1.9786,-1.9908,-2.005,-2.0261,-2.033,-3.9546,-3.8937,-3.8886,-3.8464,-3.7821,-3.7702,-3.7263,-3.6705,-3.6671,-3.6248,-3.5707,-3.5639,-3.5639,-3.5622,-3.5537,-3.5487,-3.5419,-3.4726,-3.432,-3.4167,-3.3609,-3.2899,-3.2188,-3.2195,-3.1833,-3.1258,-3.119,-3.0852,-3.0192,-3.0108,-2.9347,-2.7892,-2.7063,-2.6708,-2.6708,-2.6758,-2.6724,-2.6639,-2.5959,-2.5532,-2.5394,-2.465,-2.4268,-2.4226,-2.3265,-2.2746,-2.2721,-2.2453,-2.231,-2.2327,-2.231,-2.231,-2.231,-2.231,-2.231,-2.231,-2.231,-2.2327,-2.2327,-2.2327,-2.2327,-2.2327,-2.2327,-2.2327,-2.2327,-2.2327,-2.2327,-2.2344,-2.2344,-2.2327,-2.2327,-2.2327,-2.2344,-2.2282,-2.1928,-2.1591,-2.1595,-2.126,-2.0988,-2.0975,-2.1086,-2.1166,-2.1437,-2.1259,-2.1031,-2.0953,-2.0527,-2.0265,-2.0237,-2.0249,-2.0249,-2.0203,-1.9989,-1.9797,-1.9807,-2.0029,-2.0216,-2.0264,-2.0258,-2.0257,-2.02,-1.9995,-1.9741,-1.9837,-1.9762,-1.9762,-1.9762,-1.9705,-1.9741,-1.9935,-2.0081,-2.0349,-2.0728,-2.0878,-2.0748,-3.9901,-3.9631,-3.9631,-3.9208,-3.8548,-3.8091,-3.7736,-3.7415,-3.6975,-3.6603,-3.6265,-3.5825,-3.5639,-3.5639,-3.5639,-3.5639,-3.5605,-3.5301,-3.4895,-3.4506,-3.4167,-3.344,-3.2398,-3.2313,-3.1901,-3.1241,-3.119,-3.1038,-3.0717,-3.0311,-2.955,-2.8535,-2.774,-2.7131,-2.6742,-2.6708,-2.6708,-2.6674,-2.6117,-2.5816,-2.5722,-2.5098,-2.4714,-2.4679,-2.4292,-2.3719,-2.322,-2.3185,-2.3035,-2.2588,-2.2721,-2.2849,-2.2824,-2.2625,-2.2554,-2.2527,-2.2388,-2.2327,-2.2327,-2.2327,-2.2327,-2.2327,-2.2327,-2.2327,-2.2327,-2.2327,-2.2547,-2.311,-2.2716,-2.2327,-2.2344,-2.2457,-2.2474,-2.2344,-2.2248,-2.2185,-2.2019,-2.1903,-2.1774,-2.1797,-2.1787,-2.1807,-2.191,-2.1644,-2.1388,-2.1301,-2.0985,-2.0749,-2.0701,-2.0732,-2.0717,-2.0687,-2.0555,-2.05,-2.0457,-2.0574,-2.0716,-2.0731,-2.0718,-2.0701,-2.0673,-2.0613,-2.0392,-2.0106,-2.0056,-2.0035,-2.0089,-2.0096,-2.0101,-2.0323,-2.0518,-2.0799,-2.0975,-2.1171,-2.121,-4.0087,-4.0087,-4.0087,-3.9766,-3.9259,-3.8734,-3.8379,-3.8159,-3.7618,-3.728,-3.7026,-3.6282,-3.5926,-3.591,-3.5723,-3.5639,-3.5639,-3.5639,-3.5334,-3.4827,-3.481,-3.4117,-3.2949,-3.2662,-3.2205,-3.1562,-3.1292,-3.119,-3.1106,-3.0463,-2.982,-2.9211,-2.8298,-2.7537,-2.7046,-2.6826,-2.6708,-2.6674,-2.6332,-2.612,-2.599,-2.5656,-2.5317,-2.4974,-2.4905,-2.4504,-2.3761,-2.3944,-2.3764,-2.3076,-2.3272,-2.3323,-2.3189,-2.2972,-2.2797,-2.2695,-2.2436,-2.2327,-2.2327,-2.2327,-2.2338,-2.2388,-2.2332,-2.2321,-2.2415,-2.2443,-2.2932,-2.3752,-2.3421,-2.3177,-2.3232,-2.338,-2.3378,-2.3257,-2.3402,-2.3397,-2.3255,-2.3147,-2.2999,-2.2802,-2.2677,-2.2491,-2.2333,-2.207,-2.1928,-2.1881,-2.1589,-2.1321,-2.1259,-2.1228,-2.1148,-2.1175,-2.1272,-2.1262,-2.1063,-2.1103,-2.1117,-2.1163,-2.1171,-2.1175,-2.1135,-2.1055,-2.091,-2.0488,-2.0444,-2.0447,-2.0499,-2.0534,-2.068,-2.1006,-2.1195,-2.1262,-2.1454,-2.1624,-2.1744,-4.0087,-4.0087,-4.0087,-4.0104,-4.0053,-3.9935,-3.9563,-3.8954,-3.8853,-3.8481,-3.7804,-3.706,-3.6738,-3.6637,-3.5977,-3.5639,-3.5639,-3.5639,-3.5588,-3.5504,-3.552,-3.5131,-3.4387,-3.3694,-3.2949,-3.2138,-3.1562,-3.1241,-3.1173,-3.0497,-3.0091,-2.9956,-2.8653,-2.7823,-2.7621,-2.7063,-2.6708,-2.6691,-2.6624,-2.6436,-2.612,-2.637,-2.5967,-2.4995,-2.4658,-2.4622,-2.4455,-2.4455,-2.4279,-2.3863,-2.3875,-2.3676,-2.3307,-2.3206,-2.3021,-2.2721,-2.2463,-2.231,-2.231,-2.2366,-2.2426,-2.2599,-2.249,-2.2426,-2.2625,-2.285,-2.3328,-2.3998,-2.4726,-2.5113,-2.5382,-2.5257,-2.5235,-2.5221,-2.5339,-2.5345,-2.5349,-2.489,-2.4628,-2.4024,-2.3557,-2.3198,-2.2519,-2.2508,-2.2734,-2.2722,-2.2389,-2.2158,-2.2106,-2.184,-2.1705,-2.1702,-2.1832,-2.1955,-2.1271,-2.1338,-2.1566,-2.1597,-2.1618,-2.1582,-2.1376,-2.1166,-2.1023,-2.0877,-2.0795,-2.0812,-2.0926,-2.107,-2.1274,-2.1502,-2.1615,-2.1736,-2.195,-2.2169,-2.218,-4.0087,-4.0087,-4.0087,-4.0087,-4.0087,-4.0087,-3.9935,-3.9648,-3.9191,-3.8853,-3.8514,-3.7821,-3.7246,-3.6738,-3.6485,-3.6096,-3.5656,-3.5639,-3.5639,-3.5639,-3.5639,-3.5216,-3.4523,-3.4201,-3.344,-3.2374,-3.2019,-3.1647,-3.119,-3.092,-3.0565,-3.0125,-2.9583,-2.8803,-2.7924,-2.7554,-2.7199,-2.6725,-2.6418,-2.6139,-2.6049,-2.6156,-2.6007,-2.5617,-2.5782,-2.5676,-2.5203,-2.5388,-2.5257,-2.4642,-2.4523,-2.439,-2.4182,-2.3567,-2.3028,-2.2746,-2.266,-2.2598,-2.259,-2.2773,-2.2807,-2.2721,-2.2815,-2.2824,-2.2859,-2.3403,-2.4261,-2.5229,-2.6092,-2.6813,-2.7326,-2.6709,-2.5835,-2.5664,-2.5799,-2.591,-2.5641,-2.5473,-2.5227,-2.4768,-2.4357,-2.407,-2.4077,-2.4168,-2.4313,-2.4502,-2.4431,-2.4007,-2.3465,-2.3196,-2.2886,-2.2422,-2.2281,-2.2248,-2.2215,-2.2012,-2.204,-2.204,-2.2046,-2.2046,-2.1899,-2.1827,-2.1708,-2.1402,-2.1261,-2.1355,-2.154,-2.1864,-2.2015,-2.2085,-2.2198,-2.218,-2.2508,-2.2378,-2.2327,-4.0087,-4.0087,-4.0087,-4.0087,-4.0087,-4.0087,-4.0087,-4.002,-3.9563,-3.936,-3.9191,-3.8582,-3.7973,-3.7449,-3.6992,-3.6518,-3.5994,-3.5757,-3.5639,-3.5639,-3.5639,-3.5351,-3.4895,-3.4607,-3.3981,-3.3034,-3.2459,-3.1901,-3.1275,-3.119,-3.092,-3.0497,-3.0243,-2.96,-2.8687,-2.8332,-2.7824,-2.713,-2.6735,-2.6421,-2.6082,-2.6139,-2.6156,-2.6085,-2.647,-2.6471,-2.5981,-2.6204,-2.6014,-2.5467,-2.5385,-2.5392,-2.529,-2.4585,-2.3898,-2.3492,-2.3368,-2.3177,-2.2933,-2.3069,-2.3141,-2.3028,-2.3135,-2.3188,-2.3397,-2.4025,-2.5009,-2.6165,-2.679,-2.7556,-2.8244,-2.7489,-2.6675,-2.6675,-2.6895,-2.6934,-2.6723,-2.6606,-2.6279,-2.5722,-2.5059,-2.491,-2.5156,-2.518,-2.5359,-2.5715,-2.5742,-2.5404,-2.4863,-2.4322,-2.3981,-2.3344,-2.2886,-2.2681,-2.2535,-2.2423,-2.2265,-2.2248,-2.2215,-2.2265,-2.2338,-2.2338,-2.2254,-2.1949,-2.1919,-2.2024,-2.2264,-2.2592,-2.2681,-2.2738,-2.259,-2.2473,-2.2521,-2.2395,-2.2344,-4.0087,-4.0087,-4.0087,-4.0087,-4.0087,-4.0087,-4.0087,-4.007,-4.0037,-3.9969,-3.9851,-3.9292,-3.8903,-3.8616,-3.755,-3.684,-3.6569,-3.6028,-3.5707,-3.5639,-3.5639,-3.5622,-3.5487,-3.4895,-3.4455,-3.41,-3.2916,-3.1901,-3.1224,-3.119,-3.114,-3.1038,-3.0497,-3.0108,-2.9985,-2.9279,-2.8586,-2.7874,-2.7636,-2.714,-2.622,-2.6436,-2.6436,-2.6156,-2.6487,-2.6674,-2.6623,-2.6657,-2.6465,-2.6161,-2.6409,-2.6645,-2.6421,-2.6073,-2.5641,-2.49,-2.4569,-2.4016,-2.3389,-2.3289,-2.3455,-2.3625,-2.3463,-2.3791,-2.4527,-2.4651,-2.5273,-2.668,-2.7022,-2.7252,-2.8143,-2.7976,-2.7942,-2.8761,-2.856,-2.8554,-2.8638,-2.8522,-2.7971,-2.6911,-2.5978,-2.537,-2.5536,-2.5842,-2.6063,-2.6357,-2.641,-2.626,-2.5911,-2.524,-2.4615,-2.4166,-2.359,-2.3047,-2.2848,-2.2666,-2.2536,-2.2378,-2.2327,-2.231,-2.2388,-2.2398,-2.2426,-2.2243,-2.2347,-2.2473,-2.2664,-2.2955,-2.2893,-2.2893,-2.2786,-2.2669,-2.2521,-2.244,-2.2344,-4.0087,-4.0087,-4.0087,-4.0087,-4.0087,-4.0087,-4.0087,-4.0087,-4.0087,-4.0087,-4.0037,-3.9834,-3.9462,-3.9005,-3.8447,-3.7736,-3.6806,-3.6502,-3.6146,-3.5707,-3.5639,-3.5639,-3.5571,-3.5385,-3.4742,-3.3744,-3.2763,-3.1901,-3.1309,-3.119,-3.119,-3.1123,-3.0954,-3.0581,-3.0142,-2.9837,-2.9161,-2.7941,-2.7789,-2.7348,-2.6589,-2.6624,-2.6624,-2.6505,-2.6624,-2.6708,-2.6708,-2.6708,-2.6639,-2.6516,-2.6615,-2.6673,-2.6581,-2.6277,-2.5995,-2.5718,-2.5085,-2.4657,-2.4392,-2.4078,-2.4067,-2.44,-2.4392,-2.4629,-2.5269,-2.5693,-2.6145,-2.6943,-2.7228,-2.7736,-2.7942,-2.7979,-2.7993,-2.8219,-2.8461,-2.8616,-2.862,-2.85,-2.8275,-2.7967,-2.7394,-2.7208,-2.7377,-2.7449,-2.7477,-2.7852,-2.7976,-2.7724,-2.6783,-2.6282,-2.55,-2.4647,-2.3967,-2.3454,-2.329,-2.2924,-2.2474,-2.24,-2.2377,-2.2411,-2.2487,-2.2527,-2.251,-2.2563,-2.2686,-2.2883,-2.3098,-2.3153,-2.3084,-2.2977,-2.2867,-2.2721,-2.2613,-2.2474,-2.2361,-4.0087,-4.0087,-4.0087,-4.0087,-4.0087,-4.0087,-4.0087,-4.0087,-4.0087,-4.0087,-4.0087,-4.007,-3.9851,-3.9411,-3.9123,-3.8328,-3.7246,-3.6924,-3.6366,-3.5723,-3.5639,-3.5639,-3.5639,-3.5639,-3.4844,-3.3575,-3.2933,-3.2171,-3.1224,-3.119,-3.119,-3.119,-3.119,-3.0987,-3.0548,-3.048,-2.9854,-2.8805,-2.8416,-2.7875,-2.7215,-2.6843,-2.6708,-2.6691,-2.6708,-2.6708,-2.6708,-2.6708,-2.6708,-2.6757,-2.6939,-2.7165,-2.7245,-2.7227,-2.6975,-2.6447,-2.5919,-2.5423,-2.5135,-2.4785,-2.4736,-2.5023,-2.5195,-2.5524,-2.5999,-2.6489,-2.6578,-2.7169,-2.7274,-2.7525,-2.7613,-2.7522,-2.7487,-2.7457,-2.7936,-2.8253,-2.8366,-2.8534,-2.8617,-2.8512,-2.8265,-2.8308,-2.8514,-2.8467,-2.8569,-2.8888,-2.8975,-2.8842,-2.7774,-2.7212,-2.6304,-2.5357,-2.4568,-2.4151,-2.3821,-2.3249,-2.2496,-2.2394,-2.2436,-2.2521,-2.261,-2.2624,-2.2634,-2.2634,-2.2738,-2.2888,-2.3094,-2.3164,-2.313,-2.3033,-2.2832,-2.2667,-2.2491,-2.2395,-2.2327,-4.0087,-4.0087,-4.0087,-4.0087,-4.0087,-4.0087,-4.0087,-4.0087,-4.0087,-4.0087,-4.0087,-4.0087,-4.0104,-3.9901,-3.9411,-3.8667,-3.7889,-3.7229,-3.6468,-3.5825,-3.5639,-3.5639,-3.5639,-3.5639,-3.4827,-3.3575,-3.3339,-3.2577,-3.1241,-3.119,-3.119,-3.119,-3.119,-3.119,-3.1089,-3.1157,-3.0717,-2.9922,-2.933,-2.8653,-2.7755,-2.7165,-2.6742,-2.6725,-2.6708,-2.6708,-2.6708,-2.6708,-2.6725,-2.6808,-2.7387,-2.7822,-2.8296,-2.8731,-2.8239,-2.729,-2.684,-2.6182,-2.5658,-2.5246,-2.5285,-2.5442,-2.5755,-2.6339,-2.6843,-2.6591,-2.6623,-2.7426,-2.7189,-2.6997,-2.7213,-2.7165,-2.6989,-2.6925,-2.758,-2.8059,-2.8386,-2.8718,-2.8897,-2.8892,-2.8662,-2.8572,-2.8894,-2.8665,-2.868,-2.8791,-2.89,-2.8731,-2.8482,-2.7813,-2.737,-2.6289,-2.4923,-2.4309,-2.3807,-2.3085,-2.2395,-2.24,-2.2443,-2.2637,-2.277,-2.2808,-2.2815,-2.2815,-2.2703,-2.2882,-2.3026,-2.3088,-2.3046,-2.285,-2.2679,-2.2547,-2.244,-2.2344,-2.2327,-4.0087,-4.0087,-4.0087,-4.0087,-4.0087,-4.0087,-4.0087,-4.0087,-4.0087,-4.0087,-4.0087,-4.0087,-4.0087,-4.0054,-3.9851,-3.9123,-3.8075,-3.7652,-3.684,-3.5791,-3.5639,-3.5639,-3.5639,-3.5605,-3.4861,-3.3609,-3.3372,-3.2628,-3.1292,-3.119,-3.119,-3.119,-3.119,-3.119,-3.119,-3.119,-3.0801,-3.0209,-2.9956,-2.9144,-2.8009,-2.7655,-2.7249,-2.6742,-2.6708,-2.6708,-2.6708,-2.6708,-2.6873,-2.7115,-2.7334,-2.7619,-2.802,-2.8368,-2.837,-2.7983,-2.7123,-2.6536,-2.6164,-2.5481,-2.5276,-2.5778,-2.6035,-2.6412,-2.7186,-2.6837,-2.6751,-2.7019,-2.7019,-2.7166,-2.7316,-2.7461,-2.7539,-2.7608,-2.7736,-2.8017,-2.8373,-2.874,-2.8975,-2.8975,-2.89,-2.8881,-2.89,-2.8876,-2.8724,-2.8619,-2.8575,-2.8505,-2.829,-2.7887,-2.721,-2.5983,-2.476,-2.4211,-2.3583,-2.2852,-2.2423,-2.2389,-2.2518,-2.2767,-2.2911,-2.3023,-2.3052,-2.3098,-2.2704,-2.274,-2.2869,-2.3006,-2.2851,-2.2626,-2.2519,-2.2395,-2.2378,-2.2327,-2.2327,-4.0087,-4.0087,-4.0087,-4.0087,-4.0087,-4.0087,-4.0087,-4.0087,-4.0087,-4.0087,-4.0087,-4.0087,-4.0087,-4.0054,-3.9732,-3.9005,-3.7973,-3.7567,-3.6755,-3.5825,-3.5639,-3.5639,-3.5639,-3.5605,-3.5013,-3.3947,-3.3541,-3.2763,-3.1782,-3.1343,-3.1207,-3.119,-3.119,-3.119,-3.119,-3.1173,-3.1021,-3.0581,-3.0277,-2.96,-2.882,-2.8076,-2.7638,-2.7148,-2.6911,-2.6708,-2.6708,-2.6708,-2.6873,-2.721,-2.7334,-2.7409,-2.7648,-2.7992,-2.8166,-2.8157,-2.7198,-2.6693,-2.669,-2.6039,-2.5843,-2.6231,-2.6472,-2.6817,-2.7134,-2.6939,-2.6708,-2.6758,-2.6939,-2.71,-2.7348,-2.7657,-2.772,-2.7434,-2.7674,-2.8035,-2.8372,-2.8766,-2.8975,-2.8975,-2.8975,-2.8975,-2.8975,-2.8842,-2.8658,-2.8458,-2.8275,-2.8105,-2.7911,-2.7452,-2.6764,-2.5516,-2.4688,-2.414,-2.3477,-2.2767,-2.2395,-2.2344,-2.2468,-2.2747,-2.2858,-2.2989,-2.2929,-2.2842,-2.2651,-2.2563,-2.2686,-2.2721,-2.2588,-2.2434,-2.2344,-2.2344,-2.2327,-2.2327,-2.2327,-4.0087,-4.0087,-4.0087,-4.0087,-4.0087,-4.0087,-4.0087,-4.0087,-4.0087,-4.0087,-4.0087,-4.0087,-4.0087,-4.002,-3.9411,-3.8616,-3.7872,-3.7212,-3.6417,-3.5842,-3.5639,-3.5639,-3.5639,-3.5639,-3.5148,-3.437,-3.3728,-3.2983,-3.2171,-3.1512,-3.1207,-3.119,-3.119,-3.119,-3.119,-3.119,-3.119,-3.1038,-3.0598,-3.0192,-2.9736,-2.882,-2.8163,-2.7587,-2.6996,-2.6725,-2.6708,-2.6742,-2.6858,-2.721,-2.7241,-2.7192,-2.7303,-2.7619,-2.7794,-2.7727,-2.7164,-2.6827,-2.6992,-2.6659,-2.6531,-2.6599,-2.6904,-2.7224,-2.7115,-2.6891,-2.6708,-2.6708,-2.6725,-2.7043,-2.7356,-2.7689,-2.7565,-2.7274,-2.7575,-2.7931,-2.8306,-2.8667,-2.8888,-2.8934,-2.8874,-2.8876,-2.8753,-2.8589,-2.8318,-2.8047,-2.7899,-2.7754,-2.749,-2.7128,-2.6238,-2.5047,-2.4469,-2.4073,-2.341,-2.2699,-2.2462,-2.2327,-2.2457,-2.262,-2.2644,-2.2691,-2.2579,-2.2479,-2.2449,-2.2415,-2.2415,-2.2377,-2.2338,-2.2338,-2.2327,-2.2327,-2.2327,-2.2327,-2.2327,-4.0087,-4.0087,-4.0087,-4.0087,-4.0087,-4.0087,-4.0087,-4.0087,-4.0087,-4.0087,-4.0087,-4.0087,-4.0087,-4.0087,-3.9276,-3.8599,-3.7855,-3.7077,-3.6366,-3.5707,-3.5639,-3.5639,-3.5639,-3.5639,-3.5199,-3.4523,-3.3778,-3.3034,-3.2307,-3.1647,-3.119,-3.119,-3.119,-3.119,-3.119,-3.119,-3.119,-3.1157,-3.1004,-3.0632,-3.0226,-2.977,-2.8924,-2.7891,-2.7097,-2.6742,-2.6708,-2.6708,-2.6758,-2.6825,-2.6858,-2.6873,-2.6939,-2.721,-2.7426,-2.736,-2.7028,-2.6727,-2.6737,-2.6521,-2.6254,-2.6363,-2.6671,-2.6808,-2.6825,-2.6791,-2.6708,-2.6758,-2.7004,-2.7251,-2.7572,-2.7509,-2.747,-2.7484,-2.7452,-2.7574,-2.7917,-2.8097,-2.8266,-2.8312,-2.8272,-2.8078,-2.7897,-2.8057,-2.7867,-2.7666,-2.7495,-2.7372,-2.7093,-2.6796,-2.5837,-2.4746,-2.4282,-2.39,-2.3153,-2.257,-2.2446,-2.2327,-2.2395,-2.2474,-2.25,-2.2511,-2.2468,-2.2395,-2.2327,-2.2327,-2.2327,-2.2327,-2.231,-2.2327,-2.2327,-2.2327,-2.2327,-2.2327,-2.2327,-4.0087,-4.0087,-4.0087,-4.0087,-4.0087,-4.0087,-4.0087,-4.0087,-4.0087,-4.0087,-4.0087,-4.0087,-4.0087,-3.9969,-3.9005,-3.8227,-3.7702,-3.6721,-3.6028,-3.5673,-3.5639,-3.5639,-3.5639,-3.5622,-3.5351,-3.4861,-3.3897,-3.3186,-3.2645,-3.1799,-3.119,-3.119,-3.119,-3.119,-3.119,-3.119,-3.119,-3.119,-3.119,-3.097,-3.0666,-3.0243,-2.9381,-2.7958,-2.7131,-2.6708,-2.6708,-2.6708,-2.6708,-2.6708,-2.6708,-2.6708,-2.6725,-2.6889,-2.7083,-2.7199,-2.693,-2.6835,-2.6835,-2.6653,-2.6407,-2.6373,-2.6588,-2.6657,-2.6708,-2.6708,-2.6708,-2.6725,-2.6873,-2.7098,-2.7321,-2.7627,-2.7572,-2.7324,-2.7304,-2.7331,-2.7373,-2.7636,-2.7932,-2.8021,-2.8003,-2.7905,-2.7783,-2.7656,-2.771,-2.7643,-2.7189,-2.7051,-2.6889,-2.6486,-2.5617,-2.4739,-2.422,-2.3646,-2.2886,-2.2477,-2.2378,-2.2327,-2.2344,-2.2361,-2.2383,-2.2417,-2.244,-2.2361,-2.2327,-2.2327,-2.2327,-2.2327,-2.2327,-2.2327,-2.2327,-2.2327,-2.231,-2.231,-2.231,-4.0087,-4.0087,-4.0087,-4.0087,-4.0087,-4.0087,-4.0087,-4.0087,-4.0087,-4.0087,-4.0087,-4.0087,-4.0087,-3.98,-3.8768,-3.8075,-3.7364,-3.6434,-3.5673,-3.5656,-3.5639,-3.5639,-3.5639,-3.5605,-3.5571,-3.5436,-3.4303,-3.3609,-3.3034,-3.2104,-3.141,-3.1241,-3.119,-3.119,-3.119,-3.119,-3.119,-3.119,-3.119,-3.1173,-3.1055,-3.0565,-2.96,-2.8264,-2.7148,-2.6742,-2.6708,-2.6708,-2.6708,-2.6708,-2.6708,-2.6708,-2.6708,-2.6725,-2.6808,-2.7178,-2.6853,-2.6852,-2.6946,-2.6853,-2.6657,-2.6708,-2.6691,-2.6691,-2.6708,-2.6708,-2.6708,-2.6708,-2.6758,-2.6758,-2.6775,-2.7165,-2.7233,-2.6978,-2.7029,-2.6995,-2.6943,-2.7317,-2.7587,-2.7644,-2.7535,-2.7417,-2.7402,-2.7344,-2.749,-2.7543,-2.712,-2.6739,-2.658,-2.6372,-2.5694,-2.4711,-2.4121,-2.3589,-2.2849,-2.2738,-2.2613,-2.249,-2.2453,-2.2394,-2.2366,-2.2355,-2.2389,-2.2344,-2.2327,-2.2327,-2.2327,-2.2327,-2.2327,-2.2327,-2.2338,-2.2349,-2.2349,-2.2304,-2.2321,-4.0087,-4.0087,-4.0087,-4.0087,-4.0087,-4.0087,-4.0087,-4.0087,-4.0087,-4.0087,-4.0087,-4.0087,-4.0087,-3.9817,-3.9225,-3.8159,-3.6975,-3.6011,-3.5639,-3.5639,-3.5639,-3.5639,-3.5639,-3.5639,-3.5639,-3.5419,-3.4709,-3.4066,-3.3339,-3.2544,-3.1715,-3.1309,-3.119,-3.119,-3.119,-3.119,-3.119,-3.123,-3.123,-3.1252,-3.1184,-3.0989,-3.0275,-2.8813,-2.7624,-2.6927,-2.6775,-2.6725,-2.6708,-2.6708,-2.6708,-2.6708,-2.6708,-2.6708,-2.6758,-2.6774,-2.6791,-2.6758,-2.6825,-2.6791,-2.6708,-2.6708,-2.6708,-2.6708,-2.6708,-2.6708,-2.6708,-2.6708,-2.6708,-2.6708,-2.6708,-2.6978,-2.6877,-2.6759,-2.6825,-2.6893,-2.6858,-2.6989,-2.7166,-2.7252,-2.7107,-2.7074,-2.722,-2.733,-2.7439,-2.7606,-2.7529,-2.6876,-2.6393,-2.643,-2.6321,-2.519,-2.3995,-2.3458,-2.2872,-2.2994,-2.3022,-2.2865,-2.2772,-2.2605,-2.2525,-2.2388,-2.2349,-2.231,-2.2327,-2.2327,-2.2327,-2.2327,-2.2327,-2.2327,-2.2349,-2.2371,-2.2371,-2.2371,-2.2381,-4.0087,-4.0087,-4.0087,-4.0087,-4.0087,-4.0087,-4.0087,-4.0087,-4.0087,-4.0087,-4.0087,-4.0087,-4.0087,-3.98,-3.887,-3.7601,-3.64,-3.5859,-3.5639,-3.5639,-3.5639,-3.5639,-3.5639,-3.5639,-3.5639,-3.5537,-3.5199,-3.4438,-3.3423,-3.2628,-3.1918,-3.136,-3.119,-3.119,-3.119,-3.119,-3.119,-3.123,-3.1389,-3.1507,-3.1476,-3.1403,-3.0664,-2.9658,-2.8551,-2.769,-2.7053,-2.7004,-2.6906,-2.6758,-2.6708,-2.6708,-2.6708,-2.6708,-2.6708,-2.6708,-2.6708,-2.6708,-2.6708,-2.6708,-2.6708,-2.6708,-2.6708,-2.6708,-2.6708,-2.6708,-2.6708,-2.6708,-2.6708,-2.6708,-2.6708,-2.6872,-2.6994,-2.7051,-2.7151,-2.7265,-2.7309,-2.7307,-2.7282,-2.7264,-2.7261,-2.7357,-2.7463,-2.7517,-2.747,-2.7589,-2.7772,-2.7197,-2.6397,-2.6676,-2.6931,-2.6063,-2.4893,-2.4062,-2.3538,-2.3412,-2.3283,-2.3124,-2.2964,-2.2754,-2.2615,-2.2453,-2.2349,-2.231,-2.2327,-2.2327,-2.231,-2.231,-2.231,-2.231,-2.2321,-2.236,-2.2409,-2.2419,-2.2446,-4.0087,-4.0087,-4.0087,-4.0087,-4.0087,-4.0087,-4.0087,-4.0087,-4.0087,-4.0087,-4.0087,-4.007,-3.9986,-3.9495,-3.8362,-3.6992,-3.5825,-3.5774,-3.5639,-3.5639,-3.5639,-3.5639,-3.5639,-3.5639,-3.5639,-3.5622,-3.5554,-3.4844,-3.3558,-3.2865,-3.207,-3.141,-3.119,-3.119,-3.119,-3.119,-3.119,-3.1312,-3.1585,-3.1825,-3.1847,-3.1593,-3.1133,-3.0375,-2.9591,-2.8546,-2.7853,-2.7373,-2.7132,-2.6906,-2.6758,-2.6708,-2.6708,-2.6708,-2.6708,-2.6708,-2.6708,-2.6708,-2.6708,-2.6708,-2.6708,-2.6708,-2.6708,-2.6708,-2.6708,-2.6708,-2.6708,-2.6708,-2.6708,-2.6708,-2.6741,-2.7072,-2.7233,-2.7348,-2.7589,-2.7872,-2.7794,-2.7791,-2.7813,-2.7747,-2.7614,-2.7621,-2.7754,-2.7683,-2.767,-2.7766,-2.7958,-2.7515,-2.6916,-2.7508,-2.7609,-2.6982,-2.6053,-2.5014,-2.4377,-2.3896,-2.3625,-2.3229,-2.2965,-2.273,-2.2609,-2.249,-2.2388,-2.2327,-2.2327,-2.2327,-2.231,-2.2332,-2.2371,-2.2371,-2.2321,-2.2355,-2.249,-2.2449,-2.2398,-4.0087,-4.0087,-4.0087,-4.0087,-4.0087,-4.0087,-4.0087,-4.0087,-4.0087,-4.0087,-4.0087,-4.0037,-3.9732,-3.8886,-3.7618,-3.6857,-3.6434,-3.5926,-3.5639,-3.5639,-3.5639,-3.5639,-3.5639,-3.5639,-3.5639,-3.5639,-3.5639,-3.4759,-3.3761,-3.3305,-3.2459,-3.1478,-3.119,-3.119,-3.119,-3.119,-3.119,-3.1252,-3.164,-3.2039,-3.2311,-3.1856,-3.1529,-3.096,-3.0089,-2.9165,-2.8718,-2.801,-2.739,-2.7178,-2.6873,-2.6725,-2.6708,-2.6708,-2.6708,-2.6708,-2.6708,-2.6708,-2.6708,-2.6708,-2.6708,-2.6708,-2.6708,-2.6708,-2.6708,-2.6708,-2.6708,-2.6708,-2.6725,-2.6708,-2.6791,-2.7109,-2.728,-2.7503,-2.7807,-2.796,-2.7978,-2.819,-2.8219,-2.8273,-2.8162,-2.8038,-2.8022,-2.7951,-2.7888,-2.8013,-2.8011,-2.7626,-2.7526,-2.8082,-2.8312,-2.7702,-2.6881,-2.5877,-2.5093,-2.4647,-2.3956,-2.3427,-2.2988,-2.2713,-2.2617,-2.25,-2.2377,-2.2327,-2.2327,-2.2388,-2.249,-2.251,-2.2483,-2.248,-2.2456,-2.2547,-2.2649,-2.253,-2.2377,-4.0087,-4.0087,-4.0087,-4.0087,-4.0087,-4.0087,-4.0087,-4.0087,-4.0087,-4.0087,-4.0087,-4.007,-3.9462,-3.8311,-3.7212,-3.6535,-3.6146,-3.5774,-3.5639,-3.5639,-3.5639,-3.5639,-3.5639,-3.5639,-3.5639,-3.5639,-3.5537,-3.5131,-3.4201,-3.3457,-3.2662,-3.1444,-3.119,-3.119,-3.119,-3.119,-3.1348,-3.1675,-3.2213,-3.2816,-3.3033,-3.2893,-3.2513,-3.2097,-3.1355,-3.0531,-2.9472,-2.8782,-2.7914,-2.7473,-2.6939,-2.6691,-2.6708,-2.6708,-2.6708,-2.6708,-2.6708,-2.6708,-2.6708,-2.6708,-2.6708,-2.6708,-2.6708,-2.6708,-2.6708,-2.6725,-2.6725,-2.6708,-2.6945,-2.6928,-2.6943,-2.7473,-2.7682,-2.7871,-2.8062,-2.8286,-2.8413,-2.8499,-2.8621,-2.8676,-2.87,-2.8506,-2.8377,-2.8395,-2.8381,-2.8474,-2.8567,-2.8379,-2.8299,-2.8589,-2.8649,-2.8466,-2.7565,-2.6611,-2.5899,-2.5312,-2.4401,-2.3738,-2.2981,-2.2746,-2.2643,-2.2554,-2.2388,-2.231,-2.2327,-2.2453,-2.2634,-2.2642,-2.2538,-2.2562,-2.2596,-2.262,-2.2581,-2.2457,-2.2349,-4.0087,-4.0087,-4.0087,-4.0087,-4.0087,-4.0087,-4.0087,-4.0087,-4.0087,-4.0087,-3.9952,-3.9648,-3.8751,-3.7686,-3.6823,-3.6129,-3.5673,-3.5639,-3.5639,-3.5639,-3.5639,-3.5639,-3.5639,-3.5639,-3.5639,-3.5639,-3.5639,-3.5165,-3.4472,-3.3711,-3.2747,-3.1495,-3.1275,-3.1207,-3.119,-3.123,-3.1414,-3.2029,-3.2867,-3.3406,-3.3671,-3.3734,-3.3386,-3.3028,-3.257,-3.1905,-3.0549,-2.9456,-2.8623,-2.8019,-2.7201,-2.6891,-2.6725,-2.6708,-2.6708,-2.6708,-2.6708,-2.6708,-2.6708,-2.6708,-2.6708,-2.6708,-2.6725,-2.6758,-2.6873,-2.6841,-2.6922,-2.7051,-2.7282,-2.7196,-2.7154,-2.7779,-2.7877,-2.8105,-2.8383,-2.8672,-2.8879,-2.879,-2.8785,-2.885,-2.8845,-2.8791,-2.8731,-2.8868,-2.891,-2.8952,-2.8975,-2.8975,-2.8975,-2.8975,-2.8883,-2.8714,-2.8155,-2.7235,-2.6417,-2.5729,-2.4878,-2.4025,-2.3264,-2.2733,-2.261,-2.2508,-2.2388,-2.2349,-2.2405,-2.2607,-2.2873,-2.2737,-2.262,-2.2607,-2.2608,-2.2559,-2.249,-2.2372,-2.231,-4.0087,-4.0087,-4.0087,-4.0087,-4.0087,-4.0087,-4.0087,-4.0087,-4.0087,-4.0037,-3.98,-3.8751,-3.7787,-3.6907,-3.6265,-3.5774,-3.5639,-3.5639,-3.5639,-3.5639,-3.5639,-3.5639,-3.5639,-3.5639,-3.5639,-3.5639,-3.5622,-3.5216,-3.4523,-3.3812,-3.3,-3.2239,-3.1529,-3.1275,-3.123,-3.1363,-3.1711,-3.2389,-3.3234,-3.3673,-3.3781,-3.3807,-3.3733,-3.355,-3.3036,-3.2478,-3.2269,-3.0704,-2.9364,-2.8794,-2.7879,-2.7038,-2.6792,-2.6708,-2.6708,-2.6708,-2.6708,-2.6708,-2.6708,-2.6691,-2.6708,-2.6691,-2.6758,-2.6939,-2.721,-2.7272,-2.7409,-2.7624,-2.7764,-2.7632,-2.76,-2.7819,-2.8021,-2.8026,-2.8244,-2.847,-2.864,-2.8785,-2.8785,-2.8934,-2.8905,-2.8791,-2.8761,-2.8814,-2.8803,-2.8803,-2.8975,-2.8975,-2.8975,-2.8975,-2.8938,-2.881,-2.8526,-2.7785,-2.6822,-2.5982,-2.5067,-2.4227,-2.3431,-2.2903,-2.2519,-2.2451,-2.2453,-2.2581,-2.2669,-2.289,-2.3021,-2.2876,-2.2747,-2.2645,-2.261,-2.2642,-2.2507,-2.2355,-2.2327,-4.0087,-4.0087,-4.0087,-4.0087,-4.0087,-4.0087,-4.0087,-4.0087,-4.007,-3.98,-3.9343,-3.8345,-3.7499,-3.6721,-3.6011,-3.5639,-3.5639,-3.5639,-3.5639,-3.5639,-3.5639,-3.5639,-3.5639,-3.5639,-3.5639,-3.5639,-3.5605,-3.5554,-3.5165,-3.3981,-3.3423,-3.2713,-3.1732,-3.1326,-3.1269,-3.161,-3.2108,-3.2519,-3.3274,-3.379,-3.3808,-3.3807,-3.3807,-3.3752,-3.3623,-3.3036,-3.2525,-3.1692,-3.0474,-2.9331,-2.8469,-2.7661,-2.6893,-2.6775,-2.6708,-2.6708,-2.6708,-2.6708,-2.6708,-2.6725,-2.6808,-2.7034,-2.7083,-2.7224,-2.7589,-2.7648,-2.7707,-2.7917,-2.8116,-2.8039,-2.7829,-2.8076,-2.8233,-2.7985,-2.7991,-2.8236,-2.8319,-2.8442,-2.8567,-2.8609,-2.867,-2.8658,-2.8658,-2.8699,-2.864,-2.8603,-2.8803,-2.8975,-2.8975,-2.8915,-2.8837,-2.862,-2.8336,-2.7995,-2.7087,-2.6166,-2.5244,-2.4464,-2.3684,-2.3168,-2.2779,-2.2613,-2.2625,-2.2789,-2.2873,-2.3021,-2.3069,-2.2965,-2.2888,-2.2818,-2.2781,-2.2774,-2.2609,-2.2344,-2.2327,-4.0087,-4.0087,-4.0087,-4.0087,-4.0087,-4.0087,-4.0087,-4.0087,-4.0087,-3.9512,-3.865,-3.8091,-3.7172,-3.6299,-3.5881,-3.5424,-3.5362,-3.547,-3.5577,-3.5639,-3.5639,-3.5639,-3.5639,-3.5639,-3.5639,-3.5639,-3.5605,-3.5537,-3.5064,-3.3964,-3.3288,-3.2645,-3.1901,-3.1326,-3.1363,-3.1871,-3.2284,-3.2502,-3.2965,-3.3522,-3.3569,-3.3606,-3.3734,-3.378,-3.3733,-3.3532,-3.3002,-3.2365,-3.1415,-3.0166,-2.9088,-2.8155,-2.7367,-2.686,-2.6725,-2.6708,-2.6708,-2.6708,-2.6708,-2.6725,-2.6873,-2.7178,-2.7272,-2.753,-2.7908,-2.8047,-2.8102,-2.8281,-2.8458,-2.8386,-2.8049,-2.8175,-2.7942,-2.761,-2.7888,-2.8084,-2.7968,-2.7995,-2.8146,-2.8258,-2.833,-2.8489,-2.835,-2.8381,-2.8445,-2.8424,-2.8578,-2.8803,-2.8952,-2.8832,-2.8651,-2.8373,-2.8021,-2.7703,-2.7274,-2.6315,-2.5445,-2.4992,-2.4211,-2.3562,-2.3175,-2.2932,-2.2721,-2.2746,-2.2873,-2.3069,-2.3136,-2.307,-2.3035,-2.298,-2.287,-2.2671,-2.2547,-2.2327,-2.2327,-4.0087,-4.0087,-4.0087,-4.0087,-4.0087,-4.0087,-4.007,-3.9935,-3.9817,-3.9024,-3.778,-3.7578,-3.6549,-3.5195,-3.5131,-3.5068,-3.4958,-3.5253,-3.5515,-3.5577,-3.5639,-3.5639,-3.5639,-3.5639,-3.5639,-3.5639,-3.5588,-3.5301,-3.4607,-3.3812,-3.3119,-3.2415,-3.1743,-3.1252,-3.1252,-3.1603,-3.1825,-3.1915,-3.2366,-3.284,-3.3105,-3.3196,-3.3361,-3.3504,-3.3578,-3.3405,-3.3184,-3.2784,-3.1869,-3.0836,-2.9647,-2.8699,-2.7912,-2.708,-2.6776,-2.6826,-2.6742,-2.6708,-2.6708,-2.6708,-2.6906,-2.7241,-2.7334,-2.7589,-2.8139,-2.835,-2.8342,-2.8404,-2.8658,-2.85,-2.8276,-2.8034,-2.7604,-2.7435,-2.7707,-2.7683,-2.7537,-2.7484,-2.7624,-2.7995,-2.821,-2.829,-2.8102,-2.8012,-2.8164,-2.8268,-2.8381,-2.8578,-2.8845,-2.8845,-2.8664,-2.8319,-2.7967,-2.7613,-2.7206,-2.6367,-2.5663,-2.5261,-2.4787,-2.4117,-2.343,-2.2948,-2.2787,-2.2738,-2.2873,-2.3111,-2.3168,-2.3189,-2.3052,-2.2858,-2.2562,-2.2389,-2.2327,-2.2327,-2.2327,-4.0087,-4.0087,-4.0087,-4.0087,-4.0087,-4.0087,-3.9817,-3.926,-3.8338,-3.7118,-3.5953,-3.5754,-3.5214,-3.4314,-3.4186,-3.4399,-3.464,-3.4736,-3.5052,-3.5577,-3.5577,-3.5639,-3.5639,-3.5639,-3.5639,-3.5622,-3.5554,-3.5182,-3.4506,-3.3719,-3.3025,-3.2313,-3.1846,-3.1483,-3.1372,-3.1565,-3.1825,-3.1897,-3.223,-3.2616,-3.2713,-3.2745,-3.2809,-3.2965,-3.2996,-3.3027,-3.3027,-3.2631,-3.2085,-3.1124,-2.9919,-2.9157,-2.8388,-2.7503,-2.6928,-2.708,-2.7097,-2.6708,-2.6708,-2.6725,-2.6873,-2.7147,-2.7365,-2.753,-2.7992,-2.8075,-2.8174,-2.8246,-2.833,-2.8141,-2.7985,-2.7691,-2.7332,-2.7252,-2.7324,-2.7087,-2.6952,-2.6985,-2.7144,-2.7695,-2.8035,-2.8234,-2.818,-2.8094,-2.8192,-2.8228,-2.8308,-2.8578,-2.8832,-2.8881,-2.8791,-2.8416,-2.8035,-2.7657,-2.7186,-2.6719,-2.6383,-2.6111,-2.5476,-2.4709,-2.399,-2.3193,-2.2774,-2.2686,-2.2908,-2.3117,-2.3059,-2.2965,-2.2863,-2.2676,-2.2449,-2.231,-2.231,-2.2327,-2.2327,-4.0087,-4.007,-3.9799,-3.9563,-3.9446,-3.9631,-3.9159,-3.8187,-3.7186,-3.6016,-3.4977,-3.4707,-3.4165,-3.3582,-3.3547,-3.3495,-3.3987,-3.4496,-3.4688,-3.5299,-3.5515,-3.5577,-3.5639,-3.5639,-3.5639,-3.5554,-3.5233,-3.481,-3.4058,-3.3546,-3.2946,-3.2475,-3.2157,-3.1821,-3.164,-3.1679,-3.1696,-3.1696,-3.186,-3.2039,-3.2179,-3.2282,-3.2384,-3.2517,-3.255,-3.255,-3.2517,-3.2329,-3.2087,-3.1046,-3.0197,-2.9455,-2.8696,-2.7774,-2.7063,-2.7114,-2.7063,-2.6708,-2.6708,-2.6708,-2.6841,-2.7019,-2.721,-2.75,-2.7823,-2.7992,-2.7964,-2.7966,-2.7796,-2.7719,-2.7635,-2.7317,-2.7213,-2.7111,-2.6945,-2.6742,-2.6741,-2.6774,-2.6976,-2.7504,-2.7964,-2.8147,-2.8324,-2.8294,-2.8324,-2.8309,-2.8272,-2.8551,-2.8772,-2.8821,-2.8815,-2.8518,-2.8187,-2.7835,-2.7632,-2.7476,-2.7154,-2.6963,-2.6203,-2.5338,-2.4406,-2.3566,-2.3089,-2.2615,-2.2703,-2.2764,-2.2755,-2.2695,-2.2615,-2.2515,-2.2411,-2.2327,-2.2327,-2.2327,-2.2327,-4.002,-3.9901,-3.9159,-3.8496,-3.8143,-3.8472,-3.7887,-3.6701,-3.6584,-3.573,-3.4484,-3.4314,-3.3644,-3.2827,-3.3182,-3.3235,-3.3145,-3.4087,-3.4592,-3.4941,-3.5407,-3.5532,-3.5639,-3.5639,-3.5504,-3.5284,-3.4982,-3.4466,-3.3498,-3.3119,-3.2789,-3.2682,-3.2588,-3.2348,-3.2161,-3.1933,-3.1733,-3.1487,-3.1389,-3.162,-3.1733,-3.1789,-3.1968,-3.2109,-3.2213,-3.2248,-3.2248,-3.2178,-3.2004,-3.1289,-3.0335,-2.9608,-2.8696,-2.752,-2.6996,-2.6708,-2.6725,-2.6708,-2.6708,-2.6708,-2.6708,-2.6841,-2.7051,-2.7457,-2.7648,-2.7747,-2.766,-2.7613,-2.7479,-2.7368,-2.7262,-2.7178,-2.7072,-2.6956,-2.6775,-2.6691,-2.6691,-2.6792,-2.6995,-2.7373,-2.7894,-2.8191,-2.8458,-2.8494,-2.8496,-2.8388,-2.8373,-2.8431,-2.8657,-2.8694,-2.8676,-2.8657,-2.8316,-2.8023,-2.7905,-2.7899,-2.7548,-2.719,-2.6743,-2.5941,-2.4957,-2.3905,-2.3255,-2.2747,-2.2445,-2.2377,-2.2508,-2.248,-2.2377,-2.2327,-2.2344,-2.2327,-2.2327,-2.2327,-2.231,-3.8502,-3.8381,-3.7695,-3.73,-3.7064,-3.6267,-3.5437,-3.4625,-3.4074,-3.3279,-3.2435,-3.2435,-3.2303,-3.1853,-3.2048,-3.2555,-3.3182,-3.3802,-3.4544,-3.5005,-3.5407,-3.5532,-3.5639,-3.5588,-3.5301,-3.5026,-3.4721,-3.426,-3.3321,-3.2825,-3.303,-3.3212,-3.3069,-3.2973,-3.2782,-3.2545,-3.1897,-3.1389,-3.1213,-3.1274,-3.1372,-3.1411,-3.1545,-3.1657,-3.1694,-3.1694,-3.1694,-3.1657,-3.1524,-3.1192,-2.996,-2.927,-2.9726,-2.7926,-2.6708,-2.6708,-2.6708,-2.6708,-2.6708,-2.6708,-2.6708,-2.6708,-2.6841,-2.6873,-2.7051,-2.7161,-2.7224,-2.7189,-2.7141,-2.7037,-2.7002,-2.6948,-2.6888,-2.6824,-2.6708,-2.6708,-2.6725,-2.6873,-2.706,-2.7656,-2.8141,-2.846,-2.8699,-2.874,-2.8718,-2.8584,-2.8516,-2.8571,-2.8602,-2.8664,-2.8676,-2.868,-2.8549,-2.8317,-2.827,-2.825,-2.7835,-2.7409,-2.6941,-2.623,-2.5005,-2.4028,-2.334,-2.2807,-2.244,-2.2327,-2.2338,-2.2327,-2.2327,-2.2327,-2.2327,-2.2327,-2.2327,-2.2327,-2.2327,-3.7646,-3.7342,-3.6626,-3.5865,-3.4992,-3.3904,-3.3191,-3.2849,-3.2647,-3.216,-3.1524,-3.1539,-3.1467,-3.1524,-3.164,-3.1951,-3.2664,-3.3375,-3.4037,-3.4496,-3.5424,-3.5577,-3.5639,-3.5537,-3.5297,-3.5002,-3.4582,-3.4164,-3.3351,-3.3009,-3.3112,-3.3588,-3.3504,-3.3439,-3.323,-3.2709,-3.2127,-3.1603,-3.1312,-3.1213,-3.119,-3.119,-3.119,-3.119,-3.119,-3.119,-3.119,-3.119,-3.119,-3.1089,-2.9922,-2.9431,-2.9499,-2.7791,-2.6725,-2.6708,-2.6708,-2.6708,-2.6708,-2.6708,-2.6708,-2.6708,-2.6708,-2.6725,-2.6725,-2.6841,-2.6808,-2.6808,-2.6758,-2.6725,-2.6725,-2.6691,-2.6691,-2.6708,-2.6708,-2.6708,-2.6807,-2.6933,-2.7411,-2.8037,-2.8475,-2.8803,-2.8957,-2.8975,-2.8957,-2.8824,-2.8769,-2.8805,-2.8824,-2.8837,-2.8868,-2.8879,-2.8787,-2.8627,-2.8617,-2.8505,-2.8126,-2.7688,-2.7105,-2.6286,-2.5047,-2.4113,-2.3403,-2.2852,-2.2361,-2.2327,-2.2327,-2.2327,-2.2327,-2.2327,-2.2327,-2.2327,-2.2327,-2.2327,-2.231,-3.7074,-3.6397,-3.5673,-3.4268,-3.2496,-3.1925,-3.1627,-3.1582,-3.2176,-3.212,-3.1582,-3.1467,-3.1467,-3.1467,-3.1524,-3.164,-3.2367,-3.3114,-3.3786,-3.3786,-3.5068,-3.5526,-3.5419,-3.5436,-3.4968,-3.4754,-3.4471,-3.3967,-3.3663,-3.3404,-3.3429,-3.3797,-3.3762,-3.3671,-3.3431,-3.2805,-3.2264,-3.195,-3.1449,-3.119,-3.119,-3.119,-3.119,-3.119,-3.119,-3.119,-3.119,-3.119,-3.119,-3.0954,-3.048,-2.9736,-2.8619,-2.7604,-2.6911,-2.6708,-2.6708,-2.6708,-2.6708,-2.6708,-2.6708,-2.6708,-2.6708,-2.6708,-2.6708,-2.6708,-2.6708,-2.6708,-2.6708,-2.6708,-2.6708,-2.6725,-2.6741,-2.6774,-2.6805,-2.696,-2.7147,-2.7362,-2.7805,-2.8332,-2.864,-2.8942,-2.8975,-2.8975,-2.8975,-2.8938,-2.8938,-2.8957,-2.8934,-2.8934,-2.8934,-2.8952,-2.8902,-2.88,-2.8815,-2.8694,-2.8432,-2.7946,-2.7327,-2.6476,-2.5347,-2.436,-2.3422,-2.2852,-2.2327,-2.2327,-2.2327,-2.2327,-2.2327,-2.2327,-2.2327,-2.2327,-2.2327,-2.2327,-2.2327,-3.444,-3.4226,-3.3501,-3.266,-3.1794,-3.1541,-3.1524,-3.1524,-3.1697,-3.1697,-3.1524,-3.1524,-3.1467,-3.1467,-3.1467,-3.1697,-3.2367,-3.2971,-3.3836,-3.4284,-3.5078,-3.5026,-3.4844,-3.4726,-3.4353,-3.3831,-3.3563,-3.3799,-3.3713,-3.3688,-3.3752,-3.4018,-3.3884,-3.3671,-3.3606,-3.2924,-3.2316,-3.2109,-3.1545,-3.123,-3.119,-3.119,-3.119,-3.119,-3.119,-3.119,-3.119,-3.119,-3.119,-3.1055,-3.0463,-2.9448,-2.8163,-2.7215,-2.6776,-2.6708,-2.6708,-2.6708,-2.6708,-2.6708,-2.6708,-2.6708,-2.6708,-2.6708,-2.6708,-2.6708,-2.6708,-2.6708,-2.6708,-2.6708,-2.6691,-2.6741,-2.6774,-2.6836,-2.694,-2.7223,-2.7502,-2.7847,-2.8226,-2.8515,-2.8816,-2.8912,-2.897,-2.8975,-2.8975,-2.8975,-2.8975,-2.8975,-2.8868,-2.8821,-2.8821,-2.8863,-2.8934,-2.891,-2.8864,-2.8658,-2.8326,-2.8017,-2.746,-2.6601,-2.561,-2.4522,-2.3454,-2.2779,-2.2327,-2.2395,-2.2412,-2.2327,-2.2327,-2.2327,-2.2327,-2.2327,-2.2327,-2.2327,-2.2327,-3.332,-3.2991,-3.2347,-3.1884,-3.1511,-3.1467,-3.1697,-3.191,-3.164,-3.1894,-3.2256,-3.1838,-3.1524,-3.1524,-3.1467,-3.1625,-3.2201,-3.2826,-3.3137,-3.3762,-3.4346,-3.4309,-3.4155,-3.4024,-3.3859,-3.3399,-3.3562,-3.3742,-3.3716,-3.3762,-3.3831,-3.3795,-3.3597,-3.3496,-3.3423,-3.266,-3.2213,-3.2144,-3.1524,-3.1269,-3.119,-3.119,-3.119,-3.119,-3.119,-3.119,-3.119,-3.119,-3.119,-3.0835,-3.0159,-2.9448,-2.8315,-2.7334,-2.6793,-2.6708,-2.6708,-2.6708,-2.6708,-2.6708,-2.6708,-2.6708,-2.6708,-2.6708,-2.6708,-2.6708,-2.6708,-2.6708,-2.6708,-2.6708,-2.6708,-2.6725,-2.6724,-2.679,-2.707,-2.7378,-2.7761,-2.8154,-2.8458,-2.8749,-2.8936,-2.8965,-2.8975,-2.8975,-2.8975,-2.8975,-2.8975,-2.8975,-2.8887,-2.8731,-2.8749,-2.8658,-2.8688,-2.8565,-2.8377,-2.8237,-2.8028,-2.7754,-2.7465,-2.6478,-2.5414,-2.4411,-2.3482,-2.3039,-2.2733,-2.2598,-2.2581,-2.2395,-2.2327,-2.2327,-2.2327,-2.2327,-2.2327,-2.2327,-2.2327,-3.2871,-3.2332,-3.1779,-3.1467,-3.1467,-3.1467,-3.191,-3.2382,-3.1951,-3.2351,-3.3271,-3.2296,-3.1796,-3.164,-3.1524,-3.1467,-3.1762,-3.2415,-3.2613,-3.2834,-3.3362,-3.3428,-3.3406,-3.3228,-3.3119,-3.3213,-3.336,-3.3436,-3.3476,-3.3429,-3.3314,-3.3136,-3.3045,-3.2903,-3.2466,-3.2092,-3.1861,-3.1806,-3.147,-3.1213,-3.119,-3.119,-3.119,-3.119,-3.119,-3.119,-3.119,-3.119,-3.119,-3.0649,-2.9922,-2.9245,-2.8467,-2.7503,-2.6928,-2.6708,-2.6708,-2.6708,-2.6708,-2.6708,-2.6708,-2.6708,-2.6708,-2.6708,-2.6708,-2.6708,-2.6708,-2.6708,-2.6708,-2.6708,-2.6708,-2.6691,-2.6708,-2.6903,-2.7222,-2.7574,-2.7997,-2.8359,-2.862,-2.8905,-2.8947,-2.8952,-2.8975,-2.8975,-2.8975,-2.8975,-2.8975,-2.8975,-2.8952,-2.8773,-2.8682,-2.8446,-2.8272,-2.8113,-2.796,-2.7794,-2.7673,-2.7467,-2.7103,-2.6175,-2.53,-2.4526,-2.393,-2.365,-2.3342,-2.2868,-2.2564,-2.2361,-2.2327,-2.2327,-2.2327,-2.2327,-2.2327,-2.2327,-2.2327,-3.1824,-3.1646,-3.1526,-3.1467,-3.1467,-3.1524,-3.1894,-3.2532,-3.2477,-3.2879,-3.3427,-3.3427,-3.2933,-3.2312,-3.1739,-3.1465,-3.1441,-3.1975,-3.2341,-3.2608,-3.2649,-3.2694,-3.2679,-3.2523,-3.2346,-3.2458,-3.2672,-3.2749,-3.2996,-3.2903,-3.2745,-3.2648,-3.2648,-3.2533,-3.2451,-3.2074,-3.1716,-3.1603,-3.1449,-3.119,-3.119,-3.119,-3.119,-3.119,-3.119,-3.119,-3.119,-3.119,-3.119,-3.0751,-2.9871,-2.9214,-2.8486,-2.7639,-2.6911,-2.6708,-2.6708,-2.6708,-2.6708,-2.6708,-2.6708,-2.6708,-2.6708,-2.6708,-2.6708,-2.6708,-2.6708,-2.6708,-2.6708,-2.6708,-2.6708,-2.6708,-2.6758,-2.7115,-2.7465,-2.7813,-2.8185,-2.8355,-2.85,-2.8713,-2.8876,-2.8881,-2.8905,-2.891,-2.8938,-2.8957,-2.8975,-2.8975,-2.8975,-2.8797,-2.8639,-2.8306,-2.7994,-2.7869,-2.7809,-2.7512,-2.7317,-2.7131,-2.6859,-2.6182,-2.5505,-2.4828,-2.4371,-2.4205,-2.346,-2.2784,-2.253,-2.2553,-2.2361,-2.2361,-2.2327,-2.2327,-2.2327,-2.2327,-2.2327]}]]